[[{"header":{"parameterUnit":"m.s-1","parameterCategory":1,"la1":31.0,"la2":29.5877,"lo1":-88.7671,"lo2":-86.6584,"dy":0.0162,"dx":0.0185,"nx":115,"ny":88,"refTime":"2023-02-27T06:00:00:Z","depth":0,"parameterNumber":2,"parameterNumberName":"U-component_of_WINDS"},"data":[0.0,0.0,0.0,0.0,0.0,0.0,0.0,0.0,0.0,0.0,0.0,0.0,0.0,0.0,0.0,0.0,0.0,0.0,0.0,0.0,0.0,0.0,0.0,0.0,0.0,0.0,0.0,0.0,0.0,0.0,0.0,0.0,0.0,0.0,0.0,0.0,0.0,0.0,0.0,0.0,0.0,0.0,0.0,0.0,0.0,0.0,0.0,0.0,0.0,0.0,0.0,0.0,0.0,0.0,0.0,0.0,0.0,0.0,0.0,0.0,0.0,0.0,0.0,0.0,0.0,0.0,0.0,0.0,0.0,0.0,0.0,0.0,0.0,0.0,0.0,0.0,0.0,0.0,0.0,0.0,0.0,0.0,0.0,0.0,0.0,0.0,0.0,0.0,0.0,0.0,0.0,0.0,0.0,0.0,0.0,0.0,0.0,0.0,0.0,0.0,0.0,0.0,0.0,0.0,0.0,0.0,0.0,0.0,0.0,0.0,0.0,0.0,0.0,0.0,0.0,0.0,0.0,0.0,0.0,0.0,0.0,0.0,0.0,0.0,0.0,0.0,0.0,0.0,0.0,0.0,0.0,0.0,0.0,0.0,0.0,0.0,0.0,0.0,0.0,0.0,0.0,0.0,0.0,0.0,0.0,0.0,0.0,0.0,0.0,0.0,0.0,0.0,0.0,0.0,0.0,0.0,0.0,0.0,0.0,0.0,0.0,0.0,0.0,0.0,0.0,0.0,0.0,0.0,0.0,0.0,0.0,0.0,0.0,0.0,0.0,0.0,0.0,0.0,0.0,0.0,0.0,0.0,0.0,0.0,0.0,0.0,0.0,0.0,0.0,0.0,0.0,0.0,0.0,0.0,0.0,0.0,0.0,0.0,0.0,0.0,0.0,0.0,0.0,0.0,0.0,0.0,0.0,0.0,0.0,0.0,0.0,0.0,0.0,0.0,0.0,0.0,0.0,0.0,0.0,0.0,0.0,0.0,0.0,0.0,0.0,0.0,0.0,0.0,0.0,0.0,0.0,0.0,0.0,0.0,0.0,0.0,0.0,0.0,0.0,0.0,0.0,0.0,0.0,0.0,0.0,0.0,0.0,0.0,0.0,0.0,0.0,0.0,0.0,0.0,0.0,0.0,0.0,0.0,0.0,0.0,0.0,0.0,0.0,0.0,0.0,0.0,0.0,0.0,0.0,0.0,0.0,0.0,0.0,0.0,0.0,0.0,0.0,0.0,0.0,0.0,0.0,0.0,0.0,0.0,0.0,0.0,0.0,0.0,0.0,0.0,0.0,0.0,0.0,0.0,0.0,0.0,0.0,0.0,0.0,0.0,0.0,0.0,0.0,0.0,0.0,0.0,0.0,0.0,0.0,0.0,0.0,0.0,0.0,0.0,0.0,0.0,0.0,0.0,0.0,0.0,0.0,0.0,0.0,0.0,0.0,0.0,0.0,0.0,0.0,0.0,0.0,0.0,0.0,0.0,0.0,0.0,0.0,0.0,0.0,0.0,0.0,0.0,0.0,0.0,0.0,0.0,0.0,0.0,0.0,0.0,0.0,0.0,0.0,0.0,0.0,0.0,0.0,0.0,0.0,0.0,0.0,0.0,0.0,0.0,0.0,0.0,0.0,0.0,0.0,0.0,0.0,0.0,0.0,0.0,0.0,0.0,0.0,0.0,0.0,0.0,0.0,0.0,0.0,0.0,0.0,0.0,0.0,0.0,0.0,0.0,0.0,0.0,0.0,0.0,0.0,0.0,0.0,0.0,0.0,0.0,0.0,0.0,0.0,0.0,0.0,0.0,0.0,0.0,0.0,0.0,0.0,0.0,0.0,0.0,0.0,0.0,0.0,0.0,0.0,0.0,0.0,0.0,0.0,0.0,0.0,0.0,0.0,0.0,0.0,0.0,0.0,0.0,0.0,0.0,0.0,0.0,0.0,0.0,0.0,0.0,0.0,0.0,0.0,0.0,0.0,0.0,0.0,0.0,0.0,0.0,0.0,0.0,0.0,0.0,0.0,0.0,0.0,0.0,0.0,0.0,0.0,0.0,0.0,0.0,0.0,0.0,0.0,0.0,0.0,0.0,0.0,0.0,0.0,0.0,0.0,0.0,0.0,0.0,0.0,0.0,0.0,0.0,0.0,0.0,0.0,0.0,0.0,0.0,0.0,0.0,0.0,0.0,0.0,0.0,0.0,0.0,0.0,0.0,0.0,0.0,0.0,0.0,0.0,0.0,0.0,0.0,0.0,0.0,0.0,0.0,0.0,0.0,0.0,0.0,0.0,0.0,0.0,0.0,0.0,0.0,0.0,0.0,0.0,0.0,0.0,0.0,0.0,0.0,0.0,0.0,0.0,0.0,0.0,0.0,0.0,0.0,0.0,0.0,0.0,0.0,0.0,0.0,0.0,0.0,0.0,0.0,0.0,0.0,0.0,0.0,0.0,0.0,0.0,0.0,0.0,0.0,0.0,0.0,0.0,0.0,0.0,0.0,0.0,0.0,0.0,0.0,0.0,0.0,0.0,0.0,0.0,0.0,0.0,0.0,0.0,0.0,0.0,0.0,0.0,0.0,0.0,0.0,0.0,0.0,0.0,0.0,0.0,0.0,0.0,0.0,0.0,0.0,0.0,0.0,0.0,0.0,0.0,0.0,0.0,0.0,0.0,0.0,0.0,0.0,0.0,0.0,0.0,0.0,0.0,0.0,0.0,0.0,0.0,0.0,0.0,0.0,0.0,0.0,0.0,0.0,0.0,0.0,0.0,0.0,0.0,0.0,0.0,0.0,0.0,0.0,0.0,0.0,0.0,0.0,0.0,0.0,0.0,0.0,0.0,0.0,0.0,0.0,0.0,0.0,0.0,0.0,0.0,0.0,0.0,0.0,0.0,0.0,0.0,0.0,0.0,0.0,0.0,0.0,0.0,0.0,0.0,0.0,0.0,0.0,0.0,0.0,0.0,0.0,0.0,0.0,0.0,0.0,0.0,0.0,0.0,0.0,0.0,0.0,0.0,0.0,0.0,0.0,0.0,0.0,0.0,0.0,0.0,0.0,0.0,0.0,0.0,0.0,0.0,0.0,0.0,0.0,0.0,0.0,0.0,0.0,0.0,0.0,0.0,0.0,0.0,0.0,0.0,0.0,0.0,0.0,0.0,0.0,0.0,0.0,0.0,0.0,0.0,0.0,0.0,0.0,0.0,0.0,0.0,0.0,0.0,0.0,0.0,0.0,0.0,0.0,0.0,0.0,0.0,0.0,0.0,0.0,0.0,0.0,0.0,0.0,0.0,0.0,0.0,0.0,0.0,0.0,0.0,0.0,0.0,0.0,0.0,0.0,0.0,0.0,0.0,0.0,0.0,0.0,0.0,0.0,0.0,0.0,0.0,0.0,0.0,0.0,0.0,0.0,0.0,0.0,0.0,0.0,0.0,0.0,0.0,0.0,0.0,0.0,0.0,0.0,0.0,0.0,0.0,0.0,0.0,0.0,0.0,0.0,0.0,0.0,0.0,0.0,0.0,0.0,0.0,0.0,0.0,0.0,0.0,0.0,0.0,0.0,0.0,0.0,0.0,0.0,0.0,0.0,0.0,0.0,0.0,0.0,0.0,0.0,0.0,0.0,0.0,0.0,0.0,0.0,0.0,0.0,0.0,0.0,0.0,0.0,0.0,0.0,0.0,0.0,0.0,0.0,0.0,0.0,0.0,0.0,0.0,0.0,0.0,0.0,0.0,0.0,0.0,0.0,0.0,0.0,0.0,0.0,0.0,0.0,0.0,0.0,0.0,0.0,0.0,0.0,0.0,0.0,0.0,0.0,0.0,0.0,0.0,0.0,0.0,0.0,0.0,0.0,0.0,0.0,0.0,0.0,0.0,0.0,0.0,0.0,0.0,0.0,0.0,0.0,0.0,0.0,0.0,0.0,0.0,0.0,0.0,0.0,0.0,0.0,0.0,0.0,0.0,0.0,0.0,0.0,0.0,0.0,0.0,0.0,0.0,0.0,0.0,0.0,0.0,0.0,0.0,0.0,0.0,0.0,0.0,0.0,0.0,0.0,0.0,0.0,0.0,0.0,0.0,0.0,0.0,0.0,0.0,0.0,0.0,0.0,0.0,0.0,0.0,0.0,0.0,0.0,0.0,0.0,0.0,0.0,0.0,0.0,0.0,0.0,0.0,0.0,0.0,0.0,0.0,0.0,0.0,0.0,0.0,0.0,0.0,0.0,0.0,0.0,0.0,0.0,0.0,0.0,0.0,0.0,0.0,0.0,0.0,0.0,0.0,0.0,-1.1593,0.0,0.0,0.0,0.0,0.0,0.0,0.0,0.0,0.0,0.0,0.0,0.0,0.0,0.0,0.0,0.0,0.0,0.0,0.0,0.0,0.0,0.0,0.0,0.0,0.0,0.0,0.0,0.0,0.0,0.0,0.0,0.0,0.0,0.0,0.0,0.0,0.0,0.0,0.0,0.0,0.0,0.0,0.0,0.0,0.0,0.0,0.0,0.0,0.0,0.0,0.0,0.0,0.0,0.0,0.0,0.0,0.0,0.0,0.0,0.0,0.0,0.0,0.0,0.0,0.0,0.0,0.0,0.0,0.0,0.0,0.0,0.0,0.0,0.0,0.0,0.0,0.0,0.0,0.0,0.0,0.0,0.0,0.0,0.0,0.0,0.0,0.0,0.0,0.0,0.0,0.0,0.0,0.0,0.0,0.0,0.0,0.0,0.0,0.0,0.0,0.0,0.0,0.0,0.0,0.0,0.0,0.0,0.0,0.0,0.0,-1.0665,-1.0516,-1.1121,-1.1527,-1.1593,0.0,0.0,0.0,0.0,0.0,0.0,0.0,0.0,0.0,0.0,0.0,0.0,0.0,0.0,0.0,0.0,0.0,0.0,0.0,0.0,0.0,0.0,0.0,0.0,0.0,0.0,0.0,0.0,0.0,0.0,0.0,0.0,0.0,0.0,0.0,0.0,0.0,0.0,0.0,0.0,0.0,0.0,0.0,0.0,0.0,0.0,0.0,0.0,0.0,0.0,0.0,0.0,0.0,0.0,0.0,0.0,0.0,0.0,0.0,0.0,0.0,0.0,0.0,0.0,0.0,0.0,0.0,0.0,0.0,0.0,0.0,0.0,0.0,0.0,0.0,0.0,0.0,0.0,0.0,0.0,0.0,0.0,0.0,0.0,0.0,0.0,0.0,0.0,0.0,0.0,0.0,0.0,0.0,0.0,0.0,0.0,0.0,0.0,0.0,0.0,0.0,0.0,0.0,0.0,0.0,0.0,0.0,0.0,0.0,0.0,0.0,0.0,-1.1349,-1.1627,-1.1579,0.0,0.0,0.0,0.0,0.0,0.0,0.0,0.0,0.0,0.0,0.0,0.0,0.0,0.0,0.0,0.0,0.0,0.0,0.0,0.0,0.0,0.0,0.0,0.0,0.0,0.0,0.0,0.0,0.0,0.0,0.0,0.0,0.0,0.0,0.0,0.0,0.0,0.0,0.0,0.0,0.0,0.0,0.0,0.0,0.0,0.0,0.0,0.0,0.0,0.0,0.0,0.0,0.0,0.0,0.0,0.0,0.0,0.0,0.0,0.0,0.0,0.0,0.0,0.0,0.0,0.0,0.0,0.0,0.0,0.0,0.0,0.0,0.0,0.0,0.0,0.0,0.0,0.0,0.0,0.0,0.0,0.0,0.0,0.0,0.0,0.0,0.0,0.0,0.0,0.0,0.0,0.0,0.0,0.0,0.0,0.0,0.0,0.0,0.0,0.0,0.0,0.0,0.0,0.0,0.0,0.0,0.0,0.0,0.0,0.0,-1.1648,-1.176,-1.1944,0.0,-1.1882,0.0,0.0,0.0,0.0,0.0,0.0,0.0,0.0,0.0,0.0,0.0,0.0,0.0,0.0,0.0,0.0,0.0,0.0,0.0,0.0,0.0,0.0,0.0,0.0,0.0,0.0,0.0,0.0,0.0,0.0,0.0,0.0,0.0,0.0,0.0,0.0,0.0,0.0,0.0,0.0,0.0,0.0,0.0,0.0,0.0,0.0,0.0,0.0,0.0,0.0,0.0,0.0,0.0,0.0,0.0,0.0,0.0,0.0,0.0,0.0,0.0,0.0,0.0,0.0,0.0,0.0,0.0,0.0,0.0,0.0,0.0,0.0,0.0,0.0,0.0,0.0,0.0,0.0,0.0,0.0,0.0,0.0,0.0,0.0,0.0,0.0,0.0,0.0,0.0,0.0,0.0,0.0,0.0,0.0,0.0,0.0,0.0,0.0,0.0,0.0,0.0,0.0,0.0,0.0,0.0,0.0,0.0,0.0,0.0,0.0,-1.1719,-1.1769,-1.1968,-1.1986,0.0,0.0,0.0,0.0,0.0,0.0,0.0,0.0,0.0,0.0,0.0,0.0,0.0,0.0,0.0,0.0,0.0,0.0,0.0,0.0,0.0,0.0,0.0,0.0,0.0,0.0,0.0,0.0,0.0,0.0,0.0,0.0,0.0,0.0,0.0,0.0,0.0,0.0,0.0,0.0,0.0,0.0,0.0,0.0,0.0,0.0,0.0,0.0,0.0,0.0,0.0,0.0,0.0,0.0,0.0,0.0,0.0,0.0,0.0,0.0,0.0,0.0,0.0,0.0,0.0,0.0,0.0,0.0,0.0,0.0,0.0,0.0,0.0,0.0,0.0,0.0,0.0,0.0,0.0,0.0,0.0,0.0,0.0,0.0,0.0,0.0,0.0,0.0,0.0,0.0,0.0,0.0,0.0,0.0,0.0,0.0,0.0,0.0,0.0,0.0,0.0,0.0,0.0,0.0,0.0,0.0,0.0,0.0,0.0,0.0,-1.1469,-1.1737,-1.1837,-1.1968,-1.1918,-1.1719,0.0,0.0,0.0,0.0,0.0,0.0,0.0,0.0,0.0,0.0,0.0,0.0,0.0,0.0,0.0,0.0,0.0,0.0,0.0,0.0,0.0,0.0,0.0,0.0,0.0,0.0,0.0,0.0,0.0,0.0,0.0,0.0,0.0,0.0,0.0,0.0,0.0,0.0,0.0,0.0,0.0,0.0,0.0,0.0,0.0,0.0,0.0,0.0,0.0,0.0,0.0,0.0,0.0,0.0,0.0,0.0,0.0,0.0,0.0,0.0,0.0,0.0,0.0,0.0,0.0,0.0,0.0,0.0,0.0,0.0,0.0,0.0,0.0,0.0,0.0,0.0,0.0,0.0,0.0,0.0,0.0,0.0,0.0,0.0,0.0,0.0,0.0,0.0,0.0,0.0,0.0,0.0,0.0,0.0,0.0,0.0,0.0,0.0,0.0,0.0,0.0,0.0,0.0,0.0,0.0,0.0,0.0,0.0,-1.1116,-1.1469,-1.1819,-1.2067,-1.1968,-1.1819,0.0,0.0,0.0,0.0,0.0,0.0,0.0,0.0,0.0,0.0,0.0,0.0,0.0,0.0,0.0,0.0,0.0,0.0,0.0,0.0,0.0,0.0,0.0,0.0,0.0,0.0,0.0,0.0,0.0,0.0,0.0,0.0,0.0,0.0,0.0,0.0,0.0,0.0,0.0,0.0,0.0,0.0,0.0,0.0,0.0,0.0,0.0,0.0,0.0,0.0,0.0,0.0,0.0,0.0,0.0,0.0,0.0,0.0,0.0,0.0,0.0,0.0,0.0,0.0,0.0,0.0,0.0,0.0,0.0,0.0,0.0,0.0,0.0,0.0,0.0,0.0,0.0,0.0,0.0,0.0,0.0,0.0,0.0,0.0,0.0,0.0,0.0,0.0,0.0,0.0,0.0,0.0,0.0,0.0,0.0,0.0,0.0,0.0,0.0,0.0,0.0,0.0,0.0,0.0,0.0,0.0,0.0,0.0,0.0,-1.1116,-1.1586,-1.1918,-1.2085,-1.2085,-1.1918,0.0,0.0,0.0,0.0,0.0,0.0,0.0,0.0,0.0,0.0,0.0,0.0,0.0,0.0,0.0,0.0,0.0,0.0,0.0,0.0,0.0,0.0,0.0,0.0,0.0,0.0,0.0,0.0,0.0,0.0,0.0,0.0,0.0,0.0,0.0,0.0,0.0,0.0,0.0,0.0,0.0,0.0,0.0,0.0,0.0,0.0,0.0,0.0,0.0,0.0,0.0,0.0,0.0,0.0,0.0,0.0,0.0,0.0,0.0,0.0,0.0,0.0,0.0,0.0,0.0,0.0,0.0,0.0,0.0,0.0,0.0,0.0,0.0,0.0,0.0,0.0,0.0,0.0,0.0,0.0,0.0,0.0,0.0,0.0,0.0,0.0,0.0,0.0,0.0,0.0,0.0,0.0,0.0,0.0,0.0,0.0,0.0,0.0,0.0,0.0,0.0,0.0,0.0,0.0,0.0,0.0,0.0,0.0,0.0,-1.1267,0.0,-1.2017,0.0,-1.2116,-1.2017,0.0,0.0,0.0,0.0,0.0,0.0,0.0,0.0,0.0,0.0,0.0,0.0,0.0,0.0,0.0,0.0,0.0,0.0,0.0,0.0,0.0,0.0,0.0,0.0,0.0,0.0,0.0,0.0,0.0,0.0,0.0,0.0,0.0,0.0,0.0,0.0,0.0,0.0,0.0,0.0,0.0,0.0,0.0,0.0,0.0,0.0,0.0,0.0,0.0,0.0,0.0,0.0,0.0,0.0,0.0,0.0,0.0,0.0,0.0,0.0,0.0,0.0,0.0,0.0,0.0,0.0,0.0,0.0,0.0,0.0,0.0,0.0,0.0,0.0,0.0,0.0,0.0,0.0,0.0,0.0,0.0,0.0,0.0,0.0,0.0,0.0,0.0,0.0,0.0,0.0,0.0,0.0,0.0,0.0,0.0,0.0,0.0,0.0,0.0,0.0,0.0,0.0,0.0,0.0,0.0,0.0,0.0,0.0,-1.1184,-1.1669,-1.1918,-1.2067,-1.2135,-1.2234,-1.2135,0.0,0.0,0.0,0.0,0.0,0.0,0.0,0.0,0.0,0.0,0.0,0.0,0.0,0.0,0.0,0.0,0.0,0.0,0.0,0.0,0.0,0.0,0.0,0.0,0.0,0.0,0.0,0.0,0.0,0.0,0.0,0.0,0.0,0.0,0.0,0.0,0.0,0.0,0.0,0.0,0.0,0.0,0.0,0.0,0.0,0.0,0.0,0.0,0.0,0.0,0.0,0.0,0.0,0.0,0.0,0.0,0.0,0.0,0.0,0.0,0.0,0.0,0.0,0.0,0.0,0.0,0.0,0.0,0.0,0.0,0.0,0.0,0.0,0.0,0.0,0.0,0.0,0.0,0.0,0.0,0.0,0.0,0.0,0.0,0.0,0.0,0.0,0.0,0.0,0.0,0.0,0.0,0.0,0.0,0.0,0.0,0.0,0.0,0.0,0.0,0.0,0.0,0.0,0.0,0.0,0.0,0.0,0.0,0.0,-1.1687,-1.1986,-1.2067,-1.2135,-1.2116,-1.2113,0.0,0.0,0.0,0.0,0.0,0.0,0.0,0.0,0.0,0.0,0.0,0.0,0.0,0.0,0.0,0.0,0.0,0.0,0.0,0.0,0.0,0.0,0.0,0.0,0.0,0.0,0.0,0.0,0.0,0.0,0.0,0.0,0.0,0.0,0.0,0.0,0.0,0.0,0.0,0.0,0.0,0.0,0.0,0.0,0.0,0.0,0.0,0.0,0.0,0.0,0.0,0.0,0.0,0.0,0.0,0.0,0.0,0.0,0.0,0.0,0.0,0.0,0.0,0.0,0.0,0.0,0.0,0.0,0.0,0.0,0.0,0.0,0.0,0.0,0.0,0.0,0.0,0.0,0.0,0.0,0.0,0.0,0.0,0.0,0.0,0.0,0.0,0.0,0.0,0.0,0.0,0.0,0.0,0.0,0.0,0.0,0.0,0.0,0.0,0.0,0.0,0.0,0.0,0.0,0.0,0.0,0.0,0.0,0.0,-1.2431,-1.2599,-1.2605,-1.2406,-1.2586,-1.251,-1.2202,0.0,0.0,0.0,0.0,0.0,0.0,0.0,0.0,0.0,0.0,0.0,0.0,0.0,0.0,0.0,0.0,0.0,0.0,0.0,0.0,0.0,0.0,0.0,0.0,0.0,0.0,0.0,0.0,0.0,0.0,0.0,0.0,0.0,0.0,0.0,0.0,0.0,0.0,0.0,0.0,0.0,0.0,0.0,0.0,0.0,0.0,0.0,0.0,0.0,0.0,0.0,0.0,0.0,0.0,0.0,0.0,0.0,0.0,0.0,0.0,0.0,0.0,0.0,0.0,0.0,0.0,0.0,0.0,0.0,0.0,0.0,0.0,0.0,0.0,0.0,0.0,0.0,0.0,0.0,0.0,0.0,0.0,0.0,0.0,0.0,0.0,0.0,0.0,0.0,0.0,0.0,0.0,0.0,0.0,0.0,0.0,0.0,0.0,0.0,0.0,0.0,0.0,0.0,0.0,0.0,0.0,0.0,0.0,-1.3729,-1.3793,-1.3563,-1.2987,-1.3468,-1.3273,0.0,0.0,0.0,0.0,0.0,0.0,0.0,0.0,0.0,0.0,0.0,0.0,0.0,0.0,0.0,0.0,0.0,0.0,0.0,0.0,0.0,0.0,0.0,0.0,0.0,0.0,0.0,0.0,0.0,0.0,0.0,0.0,0.0,0.0,0.0,0.0,0.0,0.0,0.0,0.0,0.0,0.0,0.0,0.0,0.0,0.0,0.0,0.0,0.0,0.0,0.0,0.0,0.0,0.0,0.0,0.0,0.0,0.0,0.0,0.0,0.0,0.0,0.0,0.0,0.0,0.0,0.0,0.0,0.0,0.0,0.0,0.0,0.0,0.0,0.0,0.0,0.0,0.0,0.0,0.0,0.0,0.0,0.0,0.0,0.0,0.0,0.0,0.0,0.0,0.0,0.0,0.0,0.0,0.0,0.0,0.0,0.0,0.0,0.0,0.0,0.0,0.0,0.0,0.0,0.0,0.0,0.0,0.0,0.0,-1.4341,-1.5283,-1.508,-1.3616,-1.3737,-1.3534,0.0,0.0,0.0,0.0,0.0,0.0,0.0,0.0,0.0,0.0,0.0,0.0,0.0,0.0,0.0,0.0,0.0,0.0,0.0,0.0,0.0,0.0,0.0,0.0,0.0,0.0,0.0,0.0,0.0,0.0,0.0,0.0,0.0,0.0,0.0,0.0,0.0,0.0,0.0,0.0,0.0,0.0,0.0,0.0,0.0,0.0,0.0,0.0,0.0,0.0,0.0,0.0,0.0,0.0,0.0,0.0,0.0,0.0,0.0,0.0,0.0,0.0,0.0,0.0,0.0,0.0,0.0,0.0,0.0,0.0,0.0,0.0,0.0,0.0,0.0,0.0,0.0,0.0,0.0,0.0,0.0,0.0,0.0,0.0,0.0,0.0,0.0,0.0,0.0,0.0,0.0,0.0,0.0,0.0,0.0,0.0,0.0,0.0,0.0,0.0,0.0,0.0,0.0,0.0,0.0,0.0,0.0,0.0,-1.4523,-1.5302,-1.6357,-1.6321,-1.5081,-1.4711,-1.4121,0.0,0.0,0.0,0.0,0.0,0.0,0.0,0.0,0.0,0.0,0.0,0.0,0.0,0.0,0.0,0.0,0.0,0.0,0.0,0.0,0.0,0.0,0.0,0.0,0.0,0.0,0.0,0.0,0.0,0.0,0.0,0.0,0.0,0.0,0.0,0.0,0.0,0.0,0.0,0.0,0.0,0.0,0.0,0.0,0.0,0.0,0.0,0.0,0.0,0.0,0.0,0.0,0.0,0.0,0.0,0.0,0.0,0.0,0.0,0.0,0.0,0.0,0.0,0.0,0.0,0.0,0.0,0.0,0.0,0.0,0.0,0.0,0.0,0.0,0.0,0.0,0.0,0.0,0.0,0.0,0.0,0.0,0.0,0.0,0.0,0.0,0.0,0.0,0.0,0.0,0.0,0.0,0.0,0.0,0.0,0.0,0.0,0.0,0.0,0.0,0.0,0.0,0.0,0.0,0.0,0.0,0.0,0.0,-1.4868,-1.606,-1.6855,-1.6965,-1.6542,-1.5807,-1.4823,0.0,0.0,0.0,0.0,0.0,0.0,0.0,0.0,0.0,0.0,0.0,0.0,0.0,0.0,0.0,0.0,0.0,0.0,0.0,0.0,0.0,0.0,0.0,0.0,0.0,0.0,0.0,0.0,0.0,0.0,0.0,0.0,0.0,0.0,0.0,0.0,0.0,0.0,0.0,0.0,0.0,0.0,0.0,0.0,0.0,0.0,0.0,0.0,0.0,0.0,0.0,0.0,0.0,0.0,0.0,0.0,0.0,0.0,0.0,0.0,0.0,0.0,0.0,0.0,0.0,0.0,0.0,0.0,0.0,0.0,0.0,0.0,0.0,0.0,0.0,0.0,0.0,0.0,0.0,0.0,0.0,0.0,0.0,0.0,0.0,0.0,0.0,0.0,0.0,0.0,0.0,0.0,0.0,0.0,0.0,0.0,0.0,0.0,0.0,0.0,0.0,0.0,0.0,0.0,0.0,0.0,0.0,0.0,-1.3897,-1.4595,-1.5531,-1.5876,-1.5423,-1.5642,-1.5184,0.0,0.0,0.0,0.0,0.0,0.0,0.0,0.0,0.0,0.0,0.0,0.0,0.0,0.0,0.0,0.0,0.0,0.0,0.0,0.0,0.0,0.0,0.0,0.0,0.0,0.0,0.0,0.0,0.0,0.0,0.0,0.0,0.0,0.0,0.0,0.0,0.0,0.0,0.0,0.0,0.0,0.0,0.0,0.0,0.0,0.0,0.0,0.0,-1.2009,0.0,0.0,0.0,0.0,0.0,0.0,0.0,0.0,0.0,0.0,0.0,0.0,0.0,0.0,0.0,0.0,0.0,0.0,0.0,0.0,0.0,0.0,0.0,0.0,0.0,0.0,0.0,0.0,0.0,0.0,0.0,0.0,0.0,0.0,0.0,0.0,0.0,0.0,0.0,0.0,0.0,0.0,0.0,0.0,0.0,0.0,0.0,0.0,0.0,0.0,0.0,0.0,0.0,0.0,0.0,0.0,0.0,0.0,0.0,-1.3802,-1.4362,-1.5238,-1.5581,-1.5377,-1.5132,-1.4623,0.0,0.0,0.0,0.0,0.0,0.0,0.0,0.0,0.0,0.0,0.0,0.0,0.0,0.0,0.0,0.0,0.0,0.0,0.0,0.0,0.0,0.0,0.0,0.0,0.0,0.0,0.0,0.0,0.0,0.0,0.0,0.0,0.0,0.0,0.0,0.0,0.0,0.0,0.0,0.0,0.0,0.0,0.0,0.0,0.0,0.0,0.0,0.0,0.0,0.0,0.0,0.0,0.0,0.0,0.0,0.0,0.0,0.0,0.0,0.0,0.0,0.0,0.0,0.0,0.0,0.0,0.0,0.0,0.0,0.0,0.0,0.0,0.0,0.0,0.0,0.0,0.0,0.0,0.0,0.0,0.0,0.0,0.0,0.0,0.0,0.0,0.0,0.0,0.0,0.0,0.0,0.0,0.0,0.0,0.0,0.0,0.0,0.0,0.0,0.0,0.0,0.0,0.0,0.0,0.0,0.0,0.0,-1.3018,-1.3747,-1.4356,-1.5043,-1.5367,-1.53,-1.4377,-1.3623,-1.3204,0.0,0.0,0.0,0.0,0.0,0.0,0.0,0.0,0.0,0.0,0.0,0.0,0.0,0.0,0.0,0.0,0.0,0.0,0.0,0.0,0.0,0.0,0.0,0.0,0.0,0.0,0.0,0.0,0.0,0.0,0.0,0.0,0.0,0.0,0.0,0.0,0.0,0.0,-1.1295,-1.095,0.0,0.0,0.0,0.0,0.0,0.0,0.0,0.0,-1.2286,0.0,0.0,0.0,0.0,0.0,0.0,0.0,0.0,0.0,0.0,0.0,0.0,0.0,0.0,0.0,0.0,0.0,0.0,0.0,0.0,0.0,0.0,0.0,0.0,0.0,0.0,0.0,0.0,0.0,0.0,0.0,0.0,0.0,0.0,0.0,0.0,0.0,0.0,0.0,0.0,0.0,0.0,0.0,0.0,0.0,0.0,0.0,0.0,0.0,0.0,0.0,0.0,0.0,0.0,0.0,0.0,-1.1711,-1.2084,-1.2476,-1.2871,-1.354,-1.372,-1.3434,-1.299,-1.2684,-1.2624,0.0,0.0,0.0,0.0,0.0,0.0,0.0,0.0,0.0,0.0,0.0,0.0,0.0,0.0,0.0,0.0,0.0,0.0,0.0,0.0,0.0,0.0,0.0,0.0,0.0,0.0,0.0,0.0,0.0,0.0,0.0,0.0,0.0,0.0,0.0,0.0,0.0,0.0,0.0,-1.0176,-1.0068,0.0,0.0,0.0,0.0,0.0,0.0,0.0,0.0,-1.2661,0.0,0.0,0.0,0.0,0.0,0.0,0.0,0.0,0.0,0.0,0.0,0.0,0.0,0.0,0.0,0.0,0.0,0.0,0.0,0.0,0.0,0.0,0.0,0.0,0.0,0.0,0.0,0.0,0.0,0.0,0.0,0.0,0.0,0.0,0.0,0.0,0.0,0.0,0.0,0.0,0.0,0.0,0.0,0.0,0.0,0.0,0.0,0.0,0.0,0.0,0.0,0.0,0.0,0.0,0.0,-1.1681,-1.2065,-1.2365,-1.2526,-1.3155,-1.3418,-1.3258,-1.295,-1.2775,0.0,0.0,0.0,0.0,0.0,0.0,0.0,0.0,0.0,0.0,0.0,0.0,0.0,0.0,0.0,0.0,0.0,0.0,0.0,0.0,0.0,0.0,0.0,0.0,0.0,0.0,0.0,0.0,0.0,0.0,0.0,0.0,0.0,0.0,0.0,0.0,0.0,0.0,0.0,0.0,-1.0328,-1.0406,-1.0253,0.0,0.0,0.0,0.0,0.0,0.0,-1.3011,-1.2959,0.0,0.0,0.0,0.0,0.0,0.0,0.0,0.0,0.0,0.0,0.0,0.0,0.0,0.0,0.0,0.0,0.0,0.0,0.0,0.0,0.0,0.0,0.0,0.0,0.0,0.0,0.0,0.0,0.0,0.0,0.0,0.0,0.0,0.0,0.0,0.0,0.0,0.0,0.0,0.0,0.0,0.0,0.0,0.0,0.0,0.0,0.0,0.0,0.0,0.0,0.0,0.0,0.0,0.0,0.0,-1.1934,-1.2327,-1.2555,-1.2643,-1.3199,-1.3462,-1.3404,-1.314,-1.3009,0.0,0.0,0.0,0.0,0.0,0.0,0.0,0.0,0.0,0.0,0.0,0.0,0.0,0.0,0.0,0.0,0.0,0.0,0.0,0.0,0.0,0.0,0.0,0.0,0.0,0.0,0.0,0.0,0.0,0.0,0.0,0.0,0.0,0.0,0.0,0.0,0.0,0.0,0.0,0.0,0.0,-1.0975,-1.0718,-1.1464,0.0,0.0,0.0,0.0,-1.403,-1.3783,0.0,0.0,0.0,0.0,0.0,0.0,0.0,0.0,0.0,0.0,0.0,0.0,0.0,0.0,0.0,0.0,0.0,0.0,0.0,0.0,0.0,0.0,0.0,0.0,0.0,0.0,0.0,0.0,0.0,0.0,0.0,0.0,0.0,0.0,0.0,0.0,0.0,0.0,0.0,0.0,0.0,0.0,0.0,0.0,0.0,0.0,0.0,0.0,0.0,0.0,0.0,0.0,0.0,0.0,0.0,0.0,-1.2371,-1.2497,-1.2658,-1.295,-1.3316,-1.336,-1.3082,-1.3023,-1.2938,0.0,0.0,0.0,0.0,0.0,0.0,0.0,0.0,0.0,0.0,0.0,0.0,0.0,0.0,0.0,0.0,0.0,0.0,0.0,0.0,0.0,0.0,0.0,0.0,0.0,0.0,0.0,0.0,0.0,0.0,0.0,0.0,0.0,0.0,0.0,0.0,0.0,0.0,0.0,0.0,0.0,-1.1318,-1.1307,-1.1822,-1.2413,0.0,0.0,0.0,-1.4148,-1.493,0.0,0.0,0.0,0.0,0.0,0.0,0.0,0.0,0.0,0.0,0.0,0.0,0.0,0.0,0.0,0.0,0.0,0.0,0.0,0.0,0.0,0.0,0.0,0.0,0.0,0.0,0.0,0.0,0.0,0.0,0.0,0.0,0.0,0.0,0.0,0.0,0.0,0.0,0.0,0.0,0.0,0.0,0.0,0.0,0.0,0.0,0.0,0.0,0.0,0.0,0.0,0.0,0.0,0.0,0.0,-1.1496,-1.2294,-1.2444,-1.2535,-1.2643,-1.31,-1.3201,-1.2913,-1.2913,-1.2913,0.0,0.0,0.0,0.0,0.0,0.0,0.0,0.0,0.0,0.0,0.0,0.0,0.0,0.0,0.0,0.0,0.0,0.0,0.0,0.0,0.0,0.0,0.0,0.0,0.0,0.0,0.0,0.0,0.0,0.0,0.0,0.0,0.0,0.0,0.0,0.0,0.0,0.0,0.0,0.0,0.0,0.0,-1.1962,-1.2588,0.0,0.0,0.0,-1.4082,-1.4757,0.0,0.0,0.0,0.0,0.0,0.0,0.0,0.0,0.0,0.0,0.0,0.0,0.0,0.0,0.0,0.0,0.0,0.0,0.0,0.0,0.0,0.0,0.0,0.0,0.0,0.0,0.0,0.0,0.0,0.0,0.0,0.0,0.0,0.0,0.0,0.0,0.0,0.0,0.0,0.0,0.0,0.0,0.0,0.0,0.0,0.0,0.0,0.0,0.0,0.0,0.0,0.0,0.0,0.0,0.0,0.0,0.0,-1.2272,-1.2351,-1.2441,-1.2543,-1.2926,-1.3039,-1.2893,-1.2893,0.0,0.0,0.0,0.0,0.0,0.0,0.0,0.0,0.0,0.0,0.0,0.0,0.0,0.0,0.0,0.0,0.0,0.0,0.0,0.0,0.0,0.0,0.0,0.0,0.0,0.0,0.0,-1.0297,0.0,0.0,0.0,0.0,0.0,0.0,0.0,0.0,0.0,0.0,0.0,0.0,0.0,0.0,-1.2832,-1.2688,-1.3458,-1.415,0.0,0.0,-1.4546,-1.5297,-1.5284,-1.5114,0.0,0.0,0.0,0.0,0.0,0.0,0.0,0.0,0.0,0.0,0.0,0.0,0.0,0.0,0.0,0.0,0.0,0.0,0.0,0.0,0.0,0.0,0.0,0.0,0.0,0.0,0.0,0.0,0.0,0.0,0.0,0.0,0.0,0.0,0.0,0.0,0.0,0.0,0.0,0.0,0.0,0.0,0.0,0.0,0.0,0.0,0.0,0.0,0.0,0.0,0.0,0.0,0.0,0.0,0.0,-1.2431,-1.2192,-1.2347,-1.2837,-1.2893,-1.2907,-1.2893,-1.2893,-1.282,0.0,0.0,0.0,0.0,0.0,0.0,0.0,0.0,0.0,0.0,0.0,0.0,0.0,0.0,0.0,0.0,0.0,0.0,0.0,0.0,0.0,0.0,0.0,0.0,0.0,0.0,0.0,0.0,0.0,0.0,0.0,0.0,0.0,0.0,0.0,0.0,0.0,0.0,0.0,0.0,0.0,-1.3336,-1.3648,-1.4432,-1.5003,0.0,0.0,-1.5645,-1.5431,-1.6273,-1.6421,-1.4559,0.0,0.0,0.0,0.0,0.0,0.0,0.0,0.0,0.0,0.0,0.0,0.0,0.0,0.0,0.0,0.0,0.0,0.0,0.0,0.0,0.0,0.0,0.0,0.0,0.0,0.0,0.0,0.0,0.0,0.0,0.0,0.0,0.0,0.0,0.0,0.0,0.0,0.0,0.0,0.0,0.0,0.0,0.0,0.0,0.0,0.0,0.0,0.0,0.0,0.0,0.0,0.0,0.0,-1.1479,-1.2063,-1.2179,-1.2317,-1.2512,-1.2777,-1.2777,-1.2526,-1.2702,-1.2716,0.0,0.0,0.0,0.0,0.0,0.0,0.0,0.0,0.0,0.0,0.0,0.0,0.0,0.0,0.0,0.0,0.0,0.0,0.0,0.0,0.0,0.0,0.0,0.0,0.0,0.0,0.0,0.0,-0.9289,-0.9099,-0.9147,0.0,0.0,0.0,0.0,0.0,0.0,0.0,0.0,0.0,0.0,-1.3391,-1.3924,-1.4599,0.0,0.0,-1.5484,-1.5498,-1.547,-1.566,-1.5464,-1.434,-1.397,0.0,0.0,0.0,0.0,0.0,0.0,0.0,0.0,0.0,0.0,0.0,0.0,0.0,0.0,0.0,0.0,0.0,0.0,0.0,0.0,0.0,0.0,0.0,0.0,0.0,0.0,0.0,0.0,0.0,0.0,0.0,0.0,0.0,0.0,0.0,0.0,0.0,0.0,0.0,0.0,0.0,0.0,0.0,0.0,0.0,0.0,0.0,0.0,0.0,0.0,0.0,0.0,-1.1471,-1.184,-1.2213,-1.2476,-1.2559,-1.2925,-1.2939,-1.2585,-1.2772,-1.2826,0.0,0.0,0.0,0.0,0.0,0.0,0.0,0.0,0.0,0.0,0.0,0.0,0.0,0.0,0.0,0.0,0.0,0.0,0.0,0.0,0.0,0.0,0.0,0.0,0.0,0.0,0.0,0.0,-0.9237,-0.9135,-0.9301,0.0,0.0,0.0,0.0,0.0,0.0,0.0,0.0,0.0,0.0,-1.2998,-1.3656,-1.428,-1.4769,-1.5149,-1.5266,-1.5222,-1.5153,-1.5005,-1.468,-1.3888,0.0,0.0,0.0,0.0,0.0,0.0,0.0,0.0,0.0,0.0,0.0,0.0,0.0,0.0,0.0,0.0,0.0,0.0,0.0,0.0,0.0,0.0,0.0,0.0,0.0,0.0,0.0,0.0,0.0,0.0,0.0,0.0,0.0,0.0,0.0,0.0,0.0,0.0,0.0,0.0,0.0,0.0,0.0,0.0,0.0,0.0,0.0,0.0,0.0,0.0,0.0,0.0,0.0,0.0,-1.1983,-1.2218,-1.2585,-1.316,-1.32,-1.32,-1.3186,-1.32,-1.3333,-1.3506,0.0,0.0,0.0,0.0,0.0,0.0,0.0,0.0,0.0,0.0,0.0,0.0,0.0,0.0,0.0,0.0,0.0,0.0,0.0,0.0,0.0,0.0,0.0,0.0,0.0,0.0,-0.9705,-0.9484,-0.9347,0.0,0.0,0.0,0.0,0.0,0.0,0.0,0.0,0.0,0.0,-1.1358,-1.2159,-1.2792,-1.3448,-1.4126,-1.4654,-1.4883,-1.4784,-1.4292,-1.4441,-1.4173,0.0,0.0,0.0,0.0,0.0,0.0,0.0,0.0,0.0,0.0,0.0,0.0,0.0,0.0,0.0,0.0,0.0,0.0,0.0,0.0,0.0,0.0,0.0,0.0,0.0,0.0,0.0,0.0,-1.0942,0.0,0.0,0.0,0.0,0.0,0.0,0.0,0.0,0.0,0.0,0.0,-1.2037,-1.2532,0.0,0.0,0.0,0.0,0.0,0.0,0.0,0.0,0.0,0.0,0.0,0.0,-1.1979,-1.2402,-1.2553,-1.2893,-1.348,-1.3494,-1.3494,-1.3494,-1.3494,-1.3641,-1.3921,0.0,0.0,0.0,0.0,0.0,0.0,0.0,0.0,0.0,0.0,0.0,0.0,0.0,0.0,0.0,0.0,0.0,0.0,0.0,0.0,0.0,0.0,0.0,0.0,0.0,-0.9913,0.0,0.0,0.0,0.0,0.0,0.0,0.0,0.0,0.0,0.0,0.0,-1.0821,-1.1287,-1.1755,-1.2397,-1.3047,-1.3584,-1.3899,0.0,0.0,0.0,0.0,0.0,0.0,0.0,0.0,0.0,0.0,0.0,0.0,0.0,0.0,-1.146,-1.0972,-1.0955,-1.094,-1.1072,0.0,0.0,0.0,0.0,0.0,0.0,0.0,0.0,0.0,0.0,0.0,0.0,0.0,0.0,0.0,0.0,-1.0924,0.0,0.0,0.0,0.0,0.0,0.0,0.0,0.0,-1.2204,-1.2572,-1.2786,-1.3173,-1.3227,0.0,-1.3134,-1.2818,0.0,0.0,0.0,0.0,0.0,0.0,0.0,0.0,-1.2456,-1.289,-1.312,-1.3507,-1.4068,-1.4108,-1.4108,-1.4108,-1.4095,-1.4188,-1.4389,-1.395,-1.3845,0.0,0.0,0.0,0.0,0.0,0.0,0.0,0.0,0.0,0.0,0.0,0.0,0.0,0.0,0.0,0.0,0.0,0.0,0.0,0.0,0.0,0.0,0.0,-0.9979,0.0,0.0,0.0,0.0,0.0,0.0,0.0,0.0,0.0,-1.0943,-1.0733,-1.086,-1.1321,-1.1573,-1.1932,-1.2713,0.0,0.0,0.0,0.0,0.0,0.0,0.0,-1.3287,-1.2926,-1.2692,-1.2275,-1.1933,-1.1724,-1.1515,-1.1385,0.0,0.0,-1.0854,-1.0897,-1.1009,-1.1039,-1.1065,-1.1099,-1.1219,-1.1236,-1.1345,0.0,0.0,0.0,0.0,0.0,0.0,0.0,0.0,-1.0903,-1.1246,0.0,-1.0502,0.0,0.0,0.0,0.0,0.0,0.0,0.0,0.0,-1.2786,-1.3106,-1.3641,-1.3694,-1.3758,-1.3854,-1.3854,-1.3542,-1.3067,-1.2338,0.0,0.0,0.0,0.0,0.0,0.0,-1.2843,-1.3423,-1.3788,-1.4376,-1.4937,-1.504,-1.495,-1.495,-1.495,-1.495,-1.486,-1.3689,-1.2974,-1.2711,-1.1815,0.0,0.0,0.0,0.0,0.0,0.0,0.0,0.0,0.0,0.0,0.0,0.0,0.0,0.0,0.0,0.0,0.0,0.0,0.0,0.0,-1.0651,0.0,0.0,0.0,0.0,0.0,0.0,0.0,0.0,0.0,0.0,-1.1069,-1.1141,-1.1151,-1.0773,0.0,0.0,0.0,0.0,-1.1719,-1.2442,-1.2916,-1.3197,-1.3227,-1.2792,-1.2496,-1.2557,0.0,0.0,-1.1431,-1.1345,-1.122,-1.0988,-1.089,-1.0816,-1.1084,-1.1093,-1.1008,-1.0806,-1.0696,-1.0704,-1.0712,-1.0855,-1.0847,-1.2176,0.0,0.0,0.0,0.0,-1.084,-1.1243,-1.1931,-1.1787,-1.181,-1.1849,-1.0678,0.0,0.0,0.0,0.0,0.0,0.0,-1.1727,-1.2245,-1.3274,-1.3908,-1.4269,-1.4482,-1.4629,-1.4621,-1.4621,-1.4581,-1.4375,-1.3142,-1.2257,-1.1897,0.0,0.0,0.0,0.0,-1.2163,-1.3159,-1.3297,-1.3951,-1.5257,-1.507,-1.5053,-1.4963,-1.4218,-1.3845,-1.3857,-1.3021,-1.2371,-1.2151,-1.2027,0.0,0.0,0.0,0.0,0.0,0.0,0.0,0.0,0.0,0.0,0.0,0.0,0.0,0.0,0.0,0.0,0.0,0.0,0.0,-1.063,-1.0773,-1.0685,0.0,0.0,0.0,0.0,0.0,0.0,0.0,0.0,0.0,-1.0742,-1.0712,-1.0665,0.0,0.0,-1.0768,-1.112,-1.1156,-1.1141,-1.1283,0.0,0.0,0.0,-1.2203,-1.2223,-1.225,-1.1812,-1.1421,-1.129,-1.1189,-1.0998,-1.0757,-1.0724,-1.0748,-1.0781,-1.0798,-1.0847,-1.085,-1.0891,-1.0932,-1.1037,-1.107,-1.107,-1.3503,-1.2728,-1.1593,-1.1309,-1.1626,-1.1808,-1.217,-1.2641,-1.2763,-1.2842,-1.276,-1.1611,-1.101,-1.0701,-1.0365,0.0,0.0,0.0,-1.1956,-1.2965,-1.3481,-1.4122,-1.487,-1.5044,-1.5074,-1.482,-1.482,-1.4621,-1.4141,-1.2998,-1.2238,-1.1682,0.0,0.0,-1.121,-1.1227,-1.1764,-1.2763,-1.2723,-1.333,-1.4415,-1.4266,-1.4087,-1.4087,-1.3332,-1.2998,-1.2998,-1.2109,-1.1592,-1.1443,-1.1363,-1.1435,0.0,0.0,0.0,0.0,0.0,0.0,0.0,0.0,0.0,0.0,0.0,-1.1116,0.0,0.0,0.0,0.0,-1.0993,-1.0681,-1.0473,-1.0613,0.0,0.0,0.0,0.0,0.0,0.0,0.0,-1.12,-1.1018,-1.0864,-1.0619,-1.0534,-1.0478,-1.0602,-1.0577,-1.0681,-1.0993,0.0,-1.094,-1.0954,-1.1246,-1.1546,-1.1733,-1.1742,-1.1705,-1.1837,-1.1577,-1.1362,-1.124,-1.1029,-1.0826,-1.072,-1.0688,-1.0688,-1.0688,-1.0688,-1.0753,-1.0932,-1.1029,-1.1126,-1.1297,-1.1386,-1.1443,-1.5087,-1.4932,-1.3571,-1.2702,-1.2289,-1.3015,-1.3074,-1.2777,-1.3845,-1.4139,-1.3817,-1.293,-1.2538,-1.2337,-1.1921,0.0,0.0,-1.16,-1.265,-1.4313,-1.3422,-1.3783,-1.5233,-1.5246,-1.4956,-1.4469,-1.458,-1.3998,-1.3004,-1.2363,-1.1865,-1.1392,-1.0751,-1.0651,-1.1133,-1.1155,-1.1546,-1.236,-1.2236,-1.2511,-1.3017,-1.2823,-1.2727,-1.2727,-1.2427,-1.2215,-1.2225,-1.1172,-1.06,-1.061,-1.021,-1.0019,-1.0027,0.0,0.0,0.0,0.0,0.0,0.0,0.0,0.0,0.0,0.0,0.0,0.0,0.0,0.0,0.0,-1.0689,0.0,-1.0289,-1.0252,0.0,0.0,0.0,-1.0852,-1.0906,-1.1089,-1.1239,-1.1054,0.0,0.0,0.0,0.0,-1.0494,-1.0644,-1.0594,-1.0681,-1.088,-1.0826,-1.0946,-1.115,-1.1406,-1.159,-1.1681,-1.1415,-1.1243,-1.12,-1.1216,-1.12,-1.1175,-1.0932,-1.0712,-1.0696,-1.0688,-1.0688,-1.0688,-1.0688,-1.0745,-1.0932,-1.1102,-1.1273,-1.1443,-1.1598,-1.1703,-1.6404,-1.636,-1.5806,-1.5015,-1.4266,-1.4601,-1.5005,-1.5376,-1.5102,-1.5034,-1.5013,-1.3349,-1.2486,-1.2273,-1.1861,-1.1798,-1.211,-1.2632,-1.3004,-1.3309,-1.3505,-1.3578,-1.3611,-1.3611,-1.3676,-1.3865,-1.4086,-1.409,-1.3937,-1.2699,-1.1973,-1.1816,-1.0641,-1.0213,-1.0591,-1.026,-1.0637,-1.1785,-1.1619,-1.19,-1.2727,-1.2737,-1.2727,-1.2727,-1.19,-1.1492,-1.1482,-1.0422,-0.9853,-0.9853,-0.9797,-0.9821,-1.0019,-1.0297,0.0,0.0,0.0,0.0,0.0,0.0,0.0,0.0,0.0,-1.1379,-1.1636,0.0,-1.0526,0.0,-1.0493,-1.0478,-1.0371,-1.0667,0.0,0.0,-1.1173,-1.1379,-1.1423,-1.1259,-1.1159,-1.1108,-1.0967,-1.0773,-1.0683,-1.0607,-1.0615,-1.0675,-1.0437,-1.0264,-1.0377,-1.0402,-1.033,-1.046,-1.0501,-1.0617,-1.0932,-1.1077,-1.111,-1.1208,-1.1118,-1.1029,-1.1029,-1.0842,-1.0688,-1.0688,-1.0688,-1.0688,-1.0688,-1.0688,-1.0651,-1.0707,-1.0874,-1.1281,-1.1459,-1.1533,-1.1565,-1.7501,-1.7486,-1.7296,-1.6843,-1.6155,-1.6031,-1.6221,-1.6594,-1.6273,-1.6176,-1.6085,-1.4705,-1.3799,-1.3242,-1.3373,-1.3459,-1.3423,-1.3705,-1.4122,-1.4521,-1.3956,-1.3755,-1.3992,-1.3414,-1.3117,-1.3153,-1.3153,-1.3169,-1.2956,-1.2128,-1.1678,-1.14,-1.0672,-1.0334,-1.0536,-1.0062,-1.0255,-1.1132,-1.0842,-1.0886,-1.1277,-1.1277,-1.1375,-1.1277,-1.0788,-1.0502,-1.0493,-0.9912,-0.9624,-0.9632,-0.9697,-0.9838,-0.9946,-1.0213,-1.0595,0.0,0.0,0.0,0.0,0.0,0.0,0.0,0.0,0.0,0.0,0.0,-1.0712,0.0,-1.0642,0.0,-1.055,-1.0748,-1.094,-1.1023,-1.1262,-1.1398,-1.1475,-1.1268,-1.1123,-1.104,-1.0995,-1.0899,-1.0826,-1.0875,-1.0932,-1.0932,-1.0761,-1.0607,-1.0534,-1.0526,-1.0517,-1.0517,-1.0452,-1.042,-1.0574,-1.081,-1.0988,-1.0988,-1.098,-1.0972,-1.0964,-1.0818,-1.0688,-1.0688,-1.0688,-1.0696,-1.0586,-1.0468,-1.0398,-1.027,-1.0424,-1.07,-1.0988,-1.1028,-1.1028,-1.8364,-1.8364,-1.8321,-1.8145,-1.7838,-1.7282,-1.7018,-1.7004,-1.7267,-1.7208,-1.6901,-1.6397,-1.5639,-1.4682,-1.5549,-1.5595,-1.5047,-1.5032,-1.5564,-1.636,-1.4461,-1.399,-1.4774,-1.3505,-1.2652,-1.2319,-1.2235,-1.1898,-1.1318,-1.1318,-1.1132,-1.0685,-1.0694,-1.0742,-1.078,-1.0219,-1.0083,-1.0567,-1.0228,-0.9846,-0.9632,-0.9648,-0.9657,-0.9665,-0.9681,-0.9697,-0.9697,-0.9697,-0.9697,-0.9697,-0.9843,-0.9916,-0.9925,-1.0381,-1.0729,0.0,-1.1328,0.0,0.0,0.0,0.0,0.0,0.0,0.0,0.0,-1.12,-1.1094,-1.0948,-1.081,-1.0729,-1.0729,-1.0745,-1.0826,-1.098,-1.0997,-1.1062,-1.12,-1.1224,-1.1175,-1.1053,-1.1151,-1.1175,-1.111,-1.1191,-1.1256,-1.1289,-1.1281,-1.1216,-1.1094,-1.0988,-1.0915,-1.0915,-1.0769,-1.0574,-1.0526,-1.0615,-1.072,-1.0753,-1.0842,-1.0932,-1.0923,-1.0794,-1.0688,-1.0688,-1.0688,-1.0586,-1.0366,-1.0366,-1.0147,-0.9831,-0.9935,-1.0077,-1.0226,-1.0386,-1.0271,-1.8701,-1.8672,-1.8408,-1.8277,-1.8203,-1.8072,-1.7882,-1.7647,-1.7691,-1.745,-1.7001,-1.7094,-1.6848,-1.6542,-1.6767,-1.6781,-1.6626,-1.6926,-1.666,-1.5985,-1.4724,-1.3914,-1.3409,-1.2302,-1.1634,-1.1606,-1.1813,-1.1756,-1.1429,-1.1429,-1.1208,-1.0771,-1.0934,-1.0968,0.0,0.0,0.0,0.0,-1.0179,-1.0071,-0.964,-0.9762,-0.9835,-0.9843,-0.9981,0.0,-1.0063,-1.0063,-1.0063,-1.0063,-1.0095,0.0,0.0,0.0,0.0,0.0,0.0,0.0,0.0,0.0,0.0,0.0,-1.1446,-1.1388,-1.1448,-1.1081,-1.0777,-1.0753,-1.085,-1.0915,-1.0915,-1.1045,-1.1135,-1.1167,-1.1175,-1.1191,-1.1216,-1.1224,-1.1256,-1.1386,-1.1297,-1.133,-1.1557,-1.1524,-1.15,-1.163,-1.1671,-1.1663,-1.1614,-1.1248,-1.0883,-1.0599,-1.055,-1.0542,-1.0631,-1.0672,-1.0761,-1.0858,-1.0802,-1.0761,-1.0753,-1.0729,-1.0688,-1.0688,-1.0688,-1.0578,-1.0366,-1.0366,-1.0147,-0.9603,-0.9514,-0.969,-1.0062,-1.0099,-1.0099,-1.9038,0.0,-1.8686,-1.8452,0.0,-1.813,-1.7882,-1.7589,-1.775,-1.7538,-1.7167,-1.7312,-1.7297,-1.7167,-1.739,-1.7448,-1.7413,-1.7793,-1.7626,-1.7078,-1.6008,-1.5368,-1.4862,-1.3028,-1.2378,-1.2581,-1.2078,-1.1822,-1.1831,-1.1822,-1.1513,-1.1107,-1.1207,-1.1513,-1.2019,-1.2011,-1.1344,-0.9954,-1.0045,-1.0045,-0.9762,-0.9835,-0.9925,-1.0022,0.0,0.0,0.0,0.0,0.0,0.0,0.0,0.0,0.0,0.0,0.0,-1.0921,-1.1214,-1.1405,-1.1587,-1.1686,-1.1618,-1.15,-1.1581,-1.1684,-1.1612,-1.1315,-1.1126,-1.1216,-1.1232,-1.1265,-1.1362,-1.1451,-1.1492,-1.15,-1.1492,-1.15,-1.1492,-1.1492,-1.1533,-1.1606,-1.1557,-1.1573,-1.1752,-1.1703,-1.1671,-1.176,-1.1776,-1.1776,-1.1744,-1.1468,-1.1126,-1.0858,-1.0655,-1.0631,-1.0785,-1.0826,-1.081,-1.0834,-1.0834,-1.0794,-1.0704,-1.0688,-1.0688,-1.0688,-1.0688,-1.0586,-1.0366,-1.0147,-0.9926,-0.9706,-0.9485,-0.9507,-0.9921,-0.9824,-0.9824,-1.9184,-1.9155,-1.8833,-1.8555,-1.8277,-1.8013,-1.7721,-1.7428,0.0,0.0,0.0,-1.7443,-1.7472,-1.7443,-1.7808,-1.7955,-1.7925,-1.8306,-1.8438,-1.8394,-1.7438,-1.6948,-1.6847,-1.4595,-1.3674,-1.3857,-1.2713,-1.2172,-1.2143,-1.2346,-1.2231,-1.1841,-1.1954,-1.2398,-1.3267,-1.3446,-1.2601,-1.0706,-1.0484,-1.0467,-1.0543,-1.0569,-1.0561,-1.0523,-1.0548,-1.046,-1.0257,-1.029,-1.0306,-1.0314,-1.0477,-1.0574,-1.0582,-1.085,-1.1094,-1.1265,-1.1419,-1.1581,-1.176,-1.1776,-1.1792,-1.1817,-1.1849,-1.1857,-1.1825,-1.1654,-1.1614,-1.176,-1.1638,-1.1606,-1.176,-1.1776,-1.1776,-1.1776,-1.1776,-1.1768,-1.1776,-1.1776,-1.176,-1.1776,-1.176,-1.1776,-1.1776,-1.1768,-1.1776,-1.1776,-1.1776,-1.1776,-1.1752,-1.1565,-1.1346,-1.1183,-1.0923,-1.0802,-1.0964,-1.1013,-1.0964,-1.0915,-1.0964,-1.094,-1.0802,-1.0769,-1.0761,-1.0696,-1.0712,-1.0602,-1.0335,-1.0085,-0.9764,-0.9734,-0.9537,-0.9442,-0.9779,-0.9691,-0.9603,-1.8847,-1.8833,-1.8511,-1.835,-1.8306,-1.8247,-1.8057,-1.7765,-1.7794,-1.7633,-1.7369,-1.7925,-1.8013,-1.7779,-1.8379,-1.8496,-1.8277,-1.8862,-1.8994,0.0,-1.786,-1.7462,-1.7448,-1.6175,-1.5033,-1.4223,-1.3901,-1.327,-1.2365,-1.3077,-1.3477,-1.3307,-1.3849,-1.4162,-1.4019,-1.3965,-1.3742,-1.3289,-1.2556,-1.2457,-1.3088,-1.3278,-1.288,-1.1981,-1.2033,-1.1584,-1.0724,-1.0769,-1.0858,-1.0858,-1.1021,-1.111,-1.111,-1.1159,-1.1273,-1.1443,-1.1484,-1.1581,-1.176,-1.1776,-1.1841,-1.1987,-1.2142,-1.2166,-1.2004,-1.1833,-1.1752,-1.1776,-1.1744,-1.1744,-1.1776,-1.1776,-1.1776,-1.1776,-1.1776,-1.1776,-1.1776,-1.1776,-1.1776,-1.1776,-1.1776,-1.1776,-1.1776,-1.1776,-1.1776,-1.1776,-1.1776,-1.1776,-1.1727,-1.1476,-1.1273,-1.1208,-1.1062,-1.1021,-1.1167,-1.1191,-1.1232,-1.137,-1.1256,-1.1135,-1.0956,-1.0997,-1.0972,-1.0745,-1.0777,-1.0643,-1.0201,-1.0031,-0.977,-0.9572,-0.9526,-0.9593,-0.9939,-1.0046,-1.0029,-1.8525,-1.8482,-1.8174,-1.8145,-1.8306,-1.8306,-1.8218,-1.8086,-1.8086,-1.7896,-1.7633,-1.7911,-1.8057,-1.8116,-1.8584,-1.8716,-1.8584,-1.9052,-1.9199,-1.9081,-1.8679,-1.8541,-1.8422,-1.7358,-1.6511,-1.598,-1.5446,-1.4815,-1.4299,-1.4719,-1.4838,-1.4645,-1.5611,-1.551,-1.4724,-1.5407,-1.5678,-1.5464,-1.4008,-1.3435,-1.3735,-1.3843,-1.3435,-1.2383,-1.2484,-1.2045,-1.0954,-1.1013,-1.1102,-1.1102,-1.1183,-1.1224,-1.1224,-1.1313,-1.1411,-1.15,-1.1598,-1.1687,-1.1768,-1.1866,-1.2028,-1.2288,-1.2215,-1.2166,-1.2182,-1.202,-1.1874,-1.1784,-1.1776,-1.1776,-1.1776,-1.1776,-1.1776,-1.1776,-1.1776,-1.1776,-1.1776,-1.1776,-1.1776,-1.1776,-1.1776,-1.1776,-1.1776,-1.1776,-1.1776,-1.1776,-1.1776,-1.1776,-1.1768,-1.1549,-1.1411,-1.1484,-1.1378,-1.1354,-1.1484,-1.1524,-1.1516,-1.1516,-1.1427,-1.1305,-1.1126,-1.1062,-1.0883,-1.072,-1.0631,-1.0477,-1.0087,-0.9965,-0.9813,-0.9894,-0.9684,-0.9769,-1.0083,-1.0349,-1.046,-1.8189,-1.816,-1.7925,-1.7999,-1.8291,-1.8306,-1.8306,-1.8306,-1.8291,-1.8203,-1.8043,-1.8043,-1.8174,-1.8423,-1.876,-1.8891,-1.8935,-1.9155,-1.9272,-1.9272,-1.9272,-1.9316,-1.9284,-1.8534,-1.8034,-1.7769,-1.6902,-1.6368,-1.6124,-1.6356,-1.6453,-1.6522,-1.7216,-1.7105,-1.5862,-1.6881,-1.7353,-1.7092,-1.5742,-1.487,-1.4813,-1.4813,-1.4371,-1.3345,-1.3246,-1.2693,-1.1594,-1.1306,-1.1281,-1.1289,-1.1321,-1.1346,-1.1354,-1.1484,-1.1565,-1.1573,-1.1695,-1.1776,-1.1784,-1.1931,-1.215,-1.241,-1.2231,-1.2134,-1.2215,-1.2117,-1.1963,-1.1809,-1.1776,-1.1776,-1.1776,-1.1776,-1.1776,-1.1776,-1.1776,-1.1776,-1.1776,-1.1776,-1.1776,-1.1776,-1.1776,-1.1776,-1.1776,-1.1776,-1.1776,-1.1776,-1.1776,-1.1776,-1.176,-1.1646,-1.1638,-1.1687,-1.1622,-1.1541,-1.1695,-1.1744,-1.1695,-1.1573,-1.1565,-1.1476,-1.1305,-1.1045,-1.085,-1.0794,-1.0566,-1.0396,-1.0274,-1.0031,-0.9991,-1.0032,-0.9959,-0.9981,-1.0369,-1.0599,-1.0688,-1.7867,-1.7852,-1.7838,-1.7999,-1.8306,-1.8321,-1.8335,-1.8321,-1.8306,-1.8452,-1.8672,-1.8701,-1.8701,-1.8789,-1.9081,-1.9213,-1.9213,-1.9257,-1.9272,-1.9272,-1.9272,-1.9433,-1.9696,-1.9604,-1.9198,-1.8523,-1.8317,-1.7669,-1.6944,-1.7734,-1.8534,-1.9002,-1.9126,-1.8823,-1.8269,-1.8269,-1.838,-1.838,-1.8176,-1.7895,-1.7659,-1.7633,-1.7092,-1.5993,-1.5144,-1.4148,-1.2794,-1.1953,-1.1476,-1.1492,-1.163,-1.1719,-1.1719,-1.1736,-1.1752,-1.1744,-1.1768,-1.1776,-1.1792,-1.1931,-1.2052,-1.2077,-1.2207,-1.2207,-1.2085,-1.2044,-1.1955,-1.1817,-1.1776,-1.1776,-1.1776,-1.1776,-1.1776,-1.1776,-1.1776,-1.1776,-1.1776,-1.1776,-1.1776,-1.1776,-1.1776,-1.1776,-1.1776,-1.1776,-1.1776,-1.1776,-1.1776,-1.1776,-1.1776,-1.1752,-1.1727,-1.1736,-1.1622,-1.1533,-1.1573,-1.1679,-1.1744,-1.1736,-1.1744,-1.1646,-1.1484,-1.1386,-1.1321,-1.0875,-1.0826,-1.0639,-1.0461,-1.0289,-1.0168,-1.0095,-1.0193,-1.0345,-1.0615,-1.0672,-1.0688,-1.7808,-1.7823,-1.8028,-1.8291,-1.8599,-1.8789,-1.8877,-1.8877,-1.8877,-1.8964,-1.9067,-1.9067,-1.9067,-1.9081,-1.9213,-1.9272,-1.9272,-1.9272,-1.9272,-1.9301,-1.9477,-1.9638,-1.9769,-1.9959,-1.978,-1.9552,-1.9332,-1.8988,-1.8704,-1.8878,-1.9098,-1.9339,-1.9453,-1.9239,-1.9011,-1.9011,-1.9011,-1.8998,-1.8838,-1.8677,-1.8557,-1.8397,-1.741,-1.5624,-1.5172,-1.4039,-1.2328,-1.1802,-1.1663,-1.1671,-1.1736,-1.1776,-1.1776,-1.1776,-1.1776,-1.1776,-1.1776,-1.1817,-1.1922,-1.1996,-1.2125,-1.232,-1.2215,-1.215,-1.2182,-1.2004,-1.1849,-1.1792,-1.1776,-1.1776,-1.1776,-1.1776,-1.1776,-1.1776,-1.1776,-1.1776,-1.1776,-1.1776,-1.1776,-1.1776,-1.1776,-1.1776,-1.1776,-1.1776,-1.1776,-1.1776,-1.1776,-1.1776,-1.1776,-1.1776,-1.1776,-1.1768,-1.1703,-1.1671,-1.1671,-1.1719,-1.1768,-1.1776,-1.1776,-1.1711,-1.1541,-1.1289,-1.1094,-1.0858,-1.0704,-1.0542,-1.029,-1.0274,-1.0209,-1.0119,-1.0217,-1.0461,-1.0526,-1.0623,-1.068,-1.7955,-1.7999,-1.8306,-1.8628,-1.8935,-1.9169,-1.9272,-1.9272,-1.9272,-1.9272,-1.9272,-1.9272,-1.9272,-1.9272,-1.9272,-1.9272,-1.9286,-1.9374,-1.9403,-1.9447,-1.974,-1.993,-2.0047,-2.0252,-2.0457,-2.0618,-2.0439,-2.0372,-2.0287,-1.9965,-1.9712,-1.9712,-1.9515,-1.9475,-1.9372,-1.9372,-1.9372,-1.9345,-1.9145,-1.8924,-1.8542,-1.8372,-1.7303,-1.5671,-1.495,-1.3918,-1.2158,-1.1943,-1.1776,-1.1776,-1.1776,-1.1776,-1.1776,-1.1776,-1.1776,-1.1776,-1.1776,-1.1825,-1.1955,-1.1963,-1.2093,-1.2345,-1.2125,-1.206,-1.219,-1.1979,-1.1817,-1.1849,-1.1801,-1.1776,-1.1776,-1.1817,-1.1841,-1.1841,-1.1809,-1.1792,-1.1841,-1.1817,-1.1776,-1.1776,-1.1776,-1.1776,-1.1776,-1.1776,-1.1776,-1.1776,-1.1776,-1.1776,-1.1776,-1.1776,-1.1776,-1.1776,-1.1776,-1.1768,-1.1776,-1.1776,-1.1776,-1.1776,-1.1776,-1.1711,-1.1541,-1.1256,-1.107,-1.1013,-1.0607,-1.0428,-1.0517,-1.0444,-1.0363,-1.0396,-1.0469,-1.0558,-1.0639,-1.0704,-1.0729,-1.8277,-1.8335,-1.8628,-1.895,-1.9257,-1.9272,-1.9272,-1.9272,-1.9272,-1.9272,-1.9272,-1.9272,-1.9272,-1.9286,-1.9301,-1.9286,-1.933,-1.9608,-1.974,-1.9769,-2.0091,-2.0384,-2.0662,-2.0706,-2.1028,-2.1511,-2.1423,-2.1466,-2.1398,-2.0948,-2.0469,-2.0233,-1.987,-1.9604,-1.9502,-1.9372,-1.9372,-1.9359,-1.9332,-1.8855,-1.7781,-1.764,-1.7377,-1.6621,-1.4831,-1.3756,-1.3407,-1.2354,-1.1776,-1.1776,-1.1776,-1.1776,-1.1776,-1.1776,-1.1776,-1.1776,-1.1776,-1.1776,-1.1801,-1.1817,-1.1898,-1.2028,-1.1963,-1.1955,-1.2272,-1.2012,-1.1866,-1.1996,-1.1874,-1.1792,-1.1809,-1.1898,-1.1979,-1.1987,-1.1866,-1.1857,-1.1987,-1.1857,-1.1784,-1.1776,-1.1776,-1.1784,-1.1784,-1.1776,-1.1801,-1.1809,-1.1801,-1.1809,-1.1825,-1.1809,-1.1792,-1.1792,-1.1784,-1.1776,-1.1776,-1.1776,-1.1776,-1.1776,-1.176,-1.1711,-1.1589,-1.1459,-1.1338,-1.1208,-1.0956,-1.0834,-1.0875,-1.0858,-1.0794,-1.0769,-1.0729,-1.0777,-1.0802,-1.0899,-1.0883,-1.8745,-1.8935,-1.9052,-1.9169,-1.9272,-1.9272,-1.9272,-1.9272,-1.9272,-1.9272,-1.9272,-1.9272,-1.9272,-1.9286,-1.9506,-1.9579,-1.9623,-1.9916,-2.0062,-2.012,-2.0618,-2.0925,-2.1072,-2.1452,-2.1627,-2.1712,-2.1518,-2.1202,-2.0805,-2.0468,-2.0307,-2.0267,-1.9891,-1.9757,-1.9613,-1.9452,-1.9372,-1.9372,-1.9372,-1.9127,-1.8648,-1.7923,-1.7055,-1.6038,-1.4569,-1.3315,-1.2492,-1.201,-1.1776,-1.1776,-1.1776,-1.1776,-1.1776,-1.1776,-1.1776,-1.1776,-1.1776,-1.1776,-1.1784,-1.1882,-1.202,-1.2174,-1.2158,-1.2199,-1.2353,-1.2158,-1.1971,-1.1996,-1.1979,-1.1939,-1.1922,-1.1906,-1.1914,-1.1987,-1.189,-1.1857,-1.1947,-1.1882,-1.1776,-1.1776,-1.1776,-1.1817,-1.1914,-1.1939,-1.1987,-1.2093,-1.2109,-1.2101,-1.2093,-1.202,-1.1939,-1.1914,-1.1849,-1.1776,-1.1776,-1.1776,-1.1776,-1.1776,-1.1752,-1.1671,-1.1565,-1.1524,-1.1427,-1.1273,-1.1118,-1.1062,-1.1037,-1.1053,-1.1029,-1.1062,-1.1021,-1.0988,-1.0972,-1.1021,-1.0915,-1.9067,-1.9257,-1.9272,-1.9272,-1.9272,-1.9272,-1.9272,-1.9272,-1.9272,-1.933,-1.9418,-1.9433,-1.9491,-1.9652,-2.0033,-2.0237,-2.0252,-2.0457,-2.0603,-2.075,-2.1276,-2.1525,-2.1598,-2.1979,-2.2108,-2.1833,-2.1446,-2.1121,-2.0617,-2.0414,-2.0374,-2.0361,-2.008,-1.9893,-1.9786,-1.9599,-1.9479,-1.9399,-1.9372,-1.9243,-1.8765,-1.7935,-1.6632,-1.5095,-1.4143,-1.3075,-1.1897,-1.1776,-1.1776,-1.1776,-1.1776,-1.1776,-1.1776,-1.1776,-1.1801,-1.1849,-1.1857,-1.189,-1.1955,-1.206,-1.2199,-1.2361,-1.2337,-1.2377,-1.2515,-1.2288,-1.2117,-1.2052,-1.2028,-1.202,-1.1939,-1.1849,-1.189,-1.2109,-1.2052,-1.202,-1.2158,-1.1996,-1.1882,-1.1866,-1.1866,-1.1939,-1.2077,-1.2109,-1.2174,-1.2296,-1.2304,-1.2304,-1.228,-1.2207,-1.2085,-1.2036,-1.1939,-1.1849,-1.1801,-1.1784,-1.1784,-1.1784,-1.1776,-1.1679,-1.1606,-1.1573,-1.1508,-1.1346,-1.1256,-1.1208,-1.12,-1.1216,-1.1256,-1.1297,-1.1289,-1.1256,-1.1191,-1.1102,-1.0988,-1.9272,-1.9272,-1.9272,-1.9272,-1.9272,-1.9272,-1.9272,-1.9272,-1.9272,-1.9433,-1.9681,-1.9725,-1.9886,-2.0281,-2.0779,-2.1145,-2.1189,-2.1233,-2.1379,-2.1628,-2.1979,-2.214,-2.2154,-2.2242,-2.2161,-2.2025,-2.1686,-2.1573,-2.1393,-2.0913,-2.0668,-2.0628,-2.0374,-2.0134,-1.984,-1.9826,-1.9666,-1.9479,-1.9439,-1.8933,-1.7701,-1.7713,-1.6549,-1.4282,-1.3913,-1.3204,-1.1905,-1.1784,-1.1776,-1.1776,-1.1776,-1.1776,-1.1792,-1.1817,-1.1874,-1.2004,-1.2028,-1.2117,-1.2255,-1.2288,-1.2377,-1.2491,-1.2418,-1.2434,-1.254,-1.2402,-1.2215,-1.2093,-1.2036,-1.1979,-1.1866,-1.1857,-1.2004,-1.2418,-1.2296,-1.2288,-1.2393,-1.2239,-1.2036,-1.2036,-1.2036,-1.2117,-1.2247,-1.2304,-1.2337,-1.2361,-1.2377,-1.2377,-1.2385,-1.2345,-1.2231,-1.2117,-1.2052,-1.2012,-1.189,-1.1784,-1.1792,-1.1792,-1.1776,-1.1727,-1.1663,-1.1622,-1.1638,-1.1516,-1.1484,-1.1435,-1.1313,-1.1338,-1.1419,-1.1459,-1.1476,-1.1468,-1.137,-1.1256,-1.111,-1.9272,-1.9272,-1.9272,-1.9272,-1.9272,-1.9272,-1.9272,-1.9272,-1.9272,-1.9462,-1.9725,-1.9755,-2.0062,-2.0574,-2.1028,-2.1467,-2.1876,-2.2067,-2.214,-2.2111,-2.2345,-2.2491,-2.252,-2.2465,-2.2253,-2.1714,-2.1434,-2.1235,-2.1235,-2.1015,-2.0975,-2.0922,-2.0681,-2.0508,-2.0374,-2.0201,-1.9947,-1.9733,-1.9867,-1.9536,-1.8959,-1.8959,-1.7851,-1.5424,-1.5059,-1.4091,-1.2053,-1.1841,-1.1776,-1.1776,-1.1776,-1.1833,-1.1947,-1.2077,-1.2166,-1.2207,-1.2223,-1.2239,-1.2304,-1.2418,-1.2507,-1.2564,-1.2621,-1.2694,-1.2702,-1.2483,-1.2304,-1.2207,-1.2117,-1.2036,-1.2142,-1.2255,-1.228,-1.2207,-1.215,-1.2223,-1.2369,-1.2296,-1.2231,-1.2215,-1.2223,-1.2304,-1.2434,-1.2483,-1.2532,-1.2629,-1.2645,-1.2645,-1.2645,-1.254,-1.2483,-1.2402,-1.2312,-1.219,-1.2093,-1.1996,-1.1955,-1.1898,-1.1841,-1.1776,-1.1719,-1.1687,-1.1703,-1.1727,-1.1695,-1.1638,-1.1508,-1.1484,-1.1565,-1.1622,-1.1646,-1.1598,-1.1508,-1.1354,-1.1175,-1.9272,-1.9272,-1.9272,-1.936,-1.9447,-1.9462,-1.952,-1.9623,-1.9638,-1.9813,-2.0106,-2.0252,-2.0589,-2.1101,-2.154,-2.195,-2.2359,-2.2667,-2.271,-2.2564,-2.2696,-2.2798,-2.2704,-2.2505,-2.2188,-2.1765,-2.141,-2.1336,-2.143,-2.1336,-2.1283,-2.1229,-2.0989,-2.0775,-2.0681,-2.0494,-2.0254,-2.0027,-2.012,-2.0054,-1.98,-1.9867,-1.8734,-1.6387,-1.5903,-1.4577,-1.2366,-1.2028,-1.1906,-1.1817,-1.1833,-1.1922,-1.2036,-1.2199,-1.2328,-1.2393,-1.241,-1.2426,-1.2499,-1.2613,-1.267,-1.2686,-1.2775,-1.2791,-1.2735,-1.254,-1.2483,-1.2304,-1.2272,-1.2247,-1.2312,-1.2393,-1.2353,-1.2166,-1.2288,-1.2337,-1.241,-1.2402,-1.2402,-1.2402,-1.2402,-1.2491,-1.2613,-1.267,-1.271,-1.2816,-1.2832,-1.2832,-1.2816,-1.2735,-1.267,-1.2588,-1.2475,-1.2369,-1.2304,-1.2223,-1.2142,-1.2036,-1.1922,-1.1833,-1.1752,-1.1744,-1.176,-1.1857,-1.1866,-1.1857,-1.1752,-1.1695,-1.1719,-1.1768,-1.1784,-1.1671,-1.1541,-1.1237,-1.0954,-1.9286,-1.9301,-1.9301,-1.9506,-1.9769,-1.9784,-1.993,-2.0164,-2.0194,-2.0369,-2.072,-2.0955,-2.135,-2.1803,-2.2257,-2.2535,-2.2696,-2.2915,-2.3047,-2.3032,-2.3062,-2.3076,-2.2885,-2.2426,-2.2088,-2.2066,-2.1706,-2.171,-2.1857,-2.1683,-2.1577,-2.155,-2.1323,-2.1029,-2.0855,-2.0735,-2.0588,-2.0307,-2.0294,-2.0294,-2.0201,-2.0241,-1.901,-1.6527,-1.6237,-1.4998,-1.2809,-1.2272,-1.2125,-1.1882,-1.1996,-1.2093,-1.2109,-1.2239,-1.2442,-1.2572,-1.258,-1.2653,-1.2783,-1.2791,-1.2816,-1.2808,-1.2816,-1.2767,-1.2661,-1.2686,-1.2613,-1.2393,-1.245,-1.2475,-1.2369,-1.2393,-1.2377,-1.2385,-1.2548,-1.2645,-1.2596,-1.258,-1.258,-1.258,-1.2588,-1.2637,-1.2791,-1.2808,-1.2824,-1.2832,-1.2832,-1.2832,-1.2832,-1.2783,-1.2735,-1.267,-1.2605,-1.2564,-1.2499,-1.2385,-1.232,-1.2255,-1.2109,-1.1971,-1.1857,-1.1849,-1.1898,-1.1987,-1.2044,-1.2036,-1.2004,-1.1922,-1.1857,-1.1849,-1.1801,-1.1687,-1.1557,-1.1269,-1.0985,-1.9418,-1.9638,-1.9638,-1.9828,-2.0091,-2.012,-2.015,-2.0237,-2.0267,-2.0618,-2.1028,-2.1174,-2.1672,-2.2345,-2.2535,-2.274,-2.2945,-2.3062,-2.3106,-2.3106,-2.3106,-2.3015,-2.2666,-2.2326,-2.2107,-2.2105,-2.2002,-2.1911,-2.1977,-2.1924,-2.1857,-2.1871,-2.1737,-2.1563,-2.1363,-2.1269,-2.1042,-2.0668,-2.0775,-2.0641,-2.0212,-2.0345,-1.9162,-1.6757,-1.6366,-1.5002,-1.2842,-1.2369,-1.228,-1.2199,-1.2328,-1.2426,-1.2418,-1.2572,-1.2686,-1.2735,-1.2759,-1.2775,-1.2816,-1.2832,-1.2832,-1.2832,-1.2832,-1.2816,-1.2775,-1.2678,-1.2605,-1.2499,-1.2548,-1.2556,-1.2532,-1.2613,-1.2678,-1.2686,-1.2694,-1.2694,-1.2735,-1.2767,-1.2767,-1.2767,-1.2759,-1.2783,-1.2816,-1.2832,-1.2832,-1.2832,-1.2832,-1.2832,-1.2832,-1.2832,-1.2783,-1.28,-1.2759,-1.2743,-1.2694,-1.2572,-1.2491,-1.2467,-1.2337,-1.2158,-1.206,-1.1996,-1.2085,-1.2182,-1.2223,-1.2223,-1.2166,-1.2101,-1.2036,-1.1922,-1.1825,-1.1727,-1.1622,-1.1358,-1.1165,-1.952,-1.9594,-1.9842,-2.0062,-2.0252,-2.0384,-2.0589,-2.0823,-2.0867,-2.113,-2.1569,-2.1759,-2.2096,-2.2593,-2.2769,-2.2915,-2.3091,-2.3106,-2.3106,-2.3135,-2.3126,-2.3033,-2.2822,-2.2549,-2.2408,-2.2416,-2.2297,-2.2245,-2.2311,-2.2231,-2.2111,-2.1964,-2.1871,-2.1657,-2.1336,-2.1363,-2.1216,-2.0935,-2.1029,-2.0658,-1.976,-1.9875,-1.8415,-1.6371,-1.5747,-1.4619,-1.2905,-1.258,-1.2475,-1.2385,-1.2458,-1.2564,-1.258,-1.2735,-1.2832,-1.2832,-1.2832,-1.2832,-1.2832,-1.2832,-1.2832,-1.2832,-1.2832,-1.2832,-1.2816,-1.2735,-1.2678,-1.2678,-1.2743,-1.2783,-1.28,-1.2889,-1.2938,-1.2913,-1.2783,-1.2726,-1.2832,-1.2824,-1.2832,-1.2832,-1.2832,-1.2832,-1.2832,-1.2832,-1.2832,-1.2832,-1.2832,-1.2832,-1.2832,-1.2832,-1.2832,-1.2832,-1.2832,-1.2808,-1.2791,-1.2702,-1.2653,-1.2629,-1.2532,-1.2353,-1.2272,-1.219,-1.2288,-1.2377,-1.2402,-1.2393,-1.2328,-1.2231,-1.206,-1.1955,-1.1857,-1.1703,-1.1565,-1.1435,-1.1256,-1.9652,-1.9477,-2.0091,-2.0325,-2.0428,-2.0735,-2.1189,-2.1598,-2.1672,-2.1876,-2.2184,-2.2491,-2.2579,-2.2681,-2.2959,-2.3091,-2.3106,-2.3106,-2.3149,-2.3141,-2.3218,-2.3321,-2.3178,-2.2986,-2.2841,-2.2835,-2.2606,-2.2592,-2.2672,-2.2552,-2.2325,-2.2098,-2.183,-2.1496,-2.1323,-2.1216,-2.1149,-2.1082,-2.1082,-2.0563,-1.984,-1.9611,-1.8337,-1.6022,-1.5115,-1.4716,-1.3709,-1.3308,-1.2938,-1.2631,-1.2644,-1.2605,-1.2629,-1.2767,-1.2824,-1.2832,-1.2832,-1.2832,-1.2832,-1.2832,-1.2832,-1.2832,-1.2832,-1.2832,-1.2832,-1.2808,-1.2816,-1.2856,-1.3003,-1.3035,-1.3043,-1.3076,-1.3051,-1.3011,-1.2905,-1.2873,-1.284,-1.2832,-1.2832,-1.2832,-1.2832,-1.2832,-1.2832,-1.2832,-1.2832,-1.2832,-1.2832,-1.2832,-1.2832,-1.2832,-1.2832,-1.2832,-1.2832,-1.2832,-1.2832,-1.2816,-1.28,-1.2775,-1.2686,-1.2556,-1.2483,-1.245,-1.2523,-1.258,-1.2588,-1.2556,-1.2491,-1.2345,-1.2142,-1.1955,-1.1833,-1.1598,-1.1378,-1.1157,-1.1004,-2.0237,-2.0442,-2.0837,-2.0998,-2.1101,-2.1613,-2.1803,-2.173,-2.1979,-2.2242,-2.2491,-2.2608,-2.2769,-2.3003,-2.3062,-2.3106,-2.3106,-2.3135,-2.3237,-2.353,-2.3823,-2.3855,-2.3634,-2.3245,-2.3023,-2.2957,-2.2902,-2.2806,-2.2819,-2.2766,-2.2619,-2.2325,-2.2151,-2.1964,-2.151,-2.139,-2.1323,-2.1149,-2.1109,-2.0843,-2.0589,-2.0335,-1.9036,-1.6592,-1.5424,-1.5424,-1.5684,-1.5043,-1.4474,-1.4169,-1.3387,-1.2759,-1.2767,-1.2808,-1.2832,-1.2832,-1.2832,-1.2832,-1.2832,-1.2832,-1.2832,-1.2832,-1.2832,-1.2832,-1.2832,-1.2848,-1.2905,-1.2994,-1.3076,-1.3133,-1.3157,-1.3108,-1.3059,-1.3003,-1.2986,-1.2962,-1.2873,-1.2832,-1.2832,-1.2832,-1.2832,-1.2832,-1.2832,-1.2832,-1.2832,-1.2832,-1.2832,-1.2832,-1.2832,-1.2832,-1.2832,-1.2832,-1.2832,-1.2832,-1.2832,-1.2832,-1.2832,-1.2832,-1.2767,-1.2726,-1.2653,-1.2621,-1.2653,-1.271,-1.2775,-1.2718,-1.2588,-1.2418,-1.2199,-1.2004,-1.1809,-1.1606,-1.1411,-1.1109,-1.094,-2.0472,-2.0559,-2.1174,-2.135,-2.132,-2.1891,-2.2169,-2.2169,-2.2301,-2.2564,-2.2798,-2.2857,-2.2945,-2.3106,-2.3106,-2.3106,-2.3149,-2.3281,-2.3515,-2.3837,-2.4029,-2.4084,-2.3927,-2.3444,-2.3134,-2.3133,-2.2996,-2.2859,-2.2859,-2.2832,-2.2699,-2.2418,-2.2298,-2.1951,-2.1577,-2.143,-2.1256,-2.1136,-2.1109,-2.0843,-2.0208,-2.0068,-1.878,-1.6721,-1.5814,-1.5814,-1.4782,-1.5033,-1.452,-1.3875,-1.3227,-1.2832,-1.2832,-1.2832,-1.2832,-1.2832,-1.2832,-1.2832,-1.2832,-1.2832,-1.2832,-1.2832,-1.2832,-1.2832,-1.2865,-1.2897,-1.2986,-1.3108,-1.3246,-1.3376,-1.3449,-1.3287,-1.3181,-1.31,-1.3011,-1.2938,-1.2865,-1.2832,-1.2832,-1.2832,-1.2832,-1.2832,-1.2832,-1.2832,-1.2832,-1.2832,-1.2832,-1.2832,-1.2832,-1.2832,-1.2832,-1.2832,-1.2832,-1.2832,-1.2832,-1.2832,-1.2832,-1.2832,-1.2816,-1.28,-1.2767,-1.2743,-1.2735,-1.2783,-1.2824,-1.2726,-1.2596,-1.2426,-1.2247,-1.2044,-1.1841,-1.1654,-1.1476,-1.1173,-1.1118,-2.0633,-2.0457,-2.1393,-2.1584,-2.1423,-2.2037,-2.2447,-2.2579,-2.2681,-2.2842,-2.3062,-2.3106,-2.3076,-2.3106,-2.3106,-2.3106,-2.3193,-2.3442,-2.3706,-2.3898,-2.3954,-2.387,-2.384,-2.3502,-2.3229,-2.327,-2.2996,-2.2859,-2.2859,-2.2846,-2.2712,-2.2432,-2.2205,-2.1924,-2.159,-2.1336,-2.1189,-2.1122,-2.1109,-2.0716,-1.9814,-1.9559,-1.8396,-1.6711,-1.5944,-1.5684,-1.4651,-1.452,-1.439,-1.3227,-1.2964,-1.284,-1.2832,-1.2832,-1.2832,-1.2832,-1.2832,-1.2832,-1.2832,-1.2832,-1.2832,-1.2832,-1.2832,-1.2856,-1.2905,-1.3003,-1.3116,-1.3271,-1.3433,-1.3644,-1.3815,-1.3587,-1.3392,-1.3279,-1.3043,-1.2921,-1.2848,-1.2832,-1.2832,-1.2832,-1.2832,-1.2832,-1.2832,-1.2832,-1.2832,-1.284,-1.284,-1.2832,-1.2832,-1.284,-1.284,-1.284,-1.2832,-1.2832,-1.2832,-1.284,-1.284,-1.2848,-1.2848,-1.2832,-1.2832,-1.2816,-1.2791,-1.2808,-1.28,-1.271,-1.258,-1.2402,-1.2223,-1.2052,-1.1841,-1.1614,-1.1459,-1.1338,-1.1216,-2.1101,-2.1115,-2.1803,-2.1906,-2.1789,-2.2564,-2.2798,-2.2696,-2.2886,-2.3047,-2.3091,-2.3106,-2.3106,-2.3106,-2.3106,-2.3106,-2.3193,-2.3486,-2.3665,-2.371,-2.3762,-2.382,-2.3624,-2.3406,-2.327,-2.2996,-2.2873,-2.2859,-2.2859,-2.2846,-2.2726,-2.2472,-2.2352,-2.2084,-2.1724,-2.1483,-2.1195,-2.0922,-2.0869,-2.0589,-2.0462,-2.0208,-1.9419,-1.7485,-1.6333,-1.5684,-1.5814,-1.5163,-1.4782,-1.452,-1.3481,-1.2964,-1.2832,-1.2832,-1.2832,-1.2832,-1.2832,-1.2832,-1.2832,-1.2832,-1.2832,-1.2832,-1.2848,-1.2921,-1.3011,-1.3108,-1.3271,-1.3474,-1.3587,-1.3669,-1.3677,-1.362,-1.3441,-1.3271,-1.3189,-1.3116,-1.2913,-1.2832,-1.2832,-1.2832,-1.2832,-1.2832,-1.2832,-1.2832,-1.2832,-1.2856,-1.2881,-1.2856,-1.2832,-1.2848,-1.2856,-1.2848,-1.2832,-1.2832,-1.2832,-1.284,-1.284,-1.2865,-1.2865,-1.284,-1.2832,-1.2832,-1.2832,-1.2832,-1.2791,-1.2702,-1.2548,-1.2393,-1.2223,-1.206,-1.1809,-1.1573,-1.1581,-1.1581,-1.1403,-2.1306,-2.1511,-2.1993,-2.2184,-2.2286,-2.2828,-2.293,-2.2696,-2.2959,-2.3003,-2.2945,-2.3018,-2.3106,-2.3106,-2.3106,-2.3106,-2.3223,-2.3391,-2.3523,-2.3491,-2.3623,-2.3649,-2.3393,-2.327,-2.2996,-2.2859,-2.2859,-2.2859,-2.2859,-2.2859,-2.2766,-2.2659,-2.2512,-2.2271,-2.1977,-2.1683,-2.1123,-2.0554,-2.017,-2.0081,-2.0068,-1.9941,-1.9036,-1.7098,-1.6333,-1.5684,-1.4651,-1.5163,-1.452,-1.3875,-1.3227,-1.2832,-1.2832,-1.2832,-1.2832,-1.2832,-1.2832,-1.284,-1.284,-1.2832,-1.2832,-1.2848,-1.2913,-1.2994,-1.3124,-1.3271,-1.3482,-1.3685,-1.3774,-1.3774,-1.379,-1.3701,-1.3514,-1.3311,-1.3246,-1.3108,-1.2921,-1.2848,-1.2832,-1.284,-1.2848,-1.2848,-1.2832,-1.2832,-1.2832,-1.2865,-1.2921,-1.2913,-1.2873,-1.2913,-1.2962,-1.2873,-1.2865,-1.2889,-1.2889,-1.2889,-1.2938,-1.2954,-1.2905,-1.2873,-1.2856,-1.2873,-1.2848,-1.2832,-1.2767,-1.2775,-1.2605,-1.2467,-1.2272,-1.2109,-1.202,-1.1939,-1.189,-1.1809,-1.1654,-2.1364,-2.1628,-2.2023,-2.2286,-2.2491,-2.293,-2.2915,-2.2725,-2.2886,-2.2915,-2.2769,-2.2915,-2.3032,-2.3091,-2.3106,-2.312,-2.3054,-2.3379,-2.3377,-2.3271,-2.3361,-2.3393,-2.327,-2.3133,-2.2859,-2.2859,-2.2859,-2.2859,-2.2859,-2.2859,-2.2722,-2.2232,-2.2036,-2.1771,-2.1213,-2.0642,-2.001,-1.9434,-1.8877,-1.8606,-1.8536,-1.8267,-1.7227,-1.5163,-1.5684,-1.4912,-1.349,-1.3875,-1.3744,-1.3227,-1.2832,-1.2832,-1.2832,-1.2832,-1.2832,-1.2832,-1.2832,-1.2848,-1.2889,-1.2897,-1.2938,-1.3003,-1.3084,-1.3157,-1.3279,-1.3506,-1.3742,-1.3872,-1.3896,-1.388,-1.3855,-1.3782,-1.3595,-1.3392,-1.323,-1.3076,-1.2921,-1.2832,-1.2832,-1.284,-1.2856,-1.2873,-1.2873,-1.2848,-1.2856,-1.2954,-1.3003,-1.3076,-1.3059,-1.3116,-1.3108,-1.2962,-1.2913,-1.2954,-1.2962,-1.297,-1.3043,-1.3141,-1.3035,-1.2954,-1.2929,-1.2913,-1.2897,-1.2897,-1.3003,-1.2986,-1.2775,-1.2572,-1.2434,-1.2345,-1.232,-1.2247,-1.2125,-1.2077,-1.1996,-2.1233,-2.132,-2.192,-2.2037,-2.1979,-2.2725,-2.2901,-2.2623,-2.2652,-2.2828,-2.2915,-2.2813,-2.2857,-2.3047,-2.3106,-2.2981,-2.2918,-2.3178,-2.3116,-2.2849,-2.3078,-2.3229,-2.2996,-2.2859,-2.2722,-2.2585,-2.2722,-2.2859,-2.2585,-2.2585,-2.2022,-2.1158,-2.0845,-2.0197,-1.9164,-1.9004,-1.8112,-1.7771,-1.7532,-1.7315,-1.7012,-1.6073,-1.5424,-1.4651,-1.4006,-1.349,-1.2832,-1.3227,-1.2964,-1.2964,-1.2832,-1.2832,-1.2832,-1.2832,-1.2832,-1.2832,-1.2848,-1.2897,-1.3011,-1.3059,-1.3116,-1.3214,-1.3311,-1.3417,-1.3555,-1.3693,-1.3855,-1.3888,-1.3904,-1.3904,-1.3904,-1.388,-1.3693,-1.3522,-1.3368,-1.3165,-1.297,-1.2986,-1.297,-1.297,-1.3027,-1.2962,-1.2929,-1.2897,-1.2889,-1.2994,-1.31,-1.3181,-1.3222,-1.3254,-1.3262,-1.3116,-1.3051,-1.3084,-1.3141,-1.3133,-1.3181,-1.3311,-1.3197,-1.3076,-1.3068,-1.3059,-1.2986,-1.3019,-1.3149,-1.3149,-1.2905,-1.2735,-1.2621,-1.2596,-1.2613,-1.2475,-1.2296,-1.228,-1.2337,-2.132,-2.1511,-2.1789,-2.1935,-2.2023,-2.2432,-2.2403,-2.2184,-2.2301,-2.2447,-2.2579,-2.2637,-2.2798,-2.3062,-2.3106,-2.2856,-2.2706,-2.2964,-2.2874,-2.2545,-2.2673,-2.2835,-2.2969,-2.2859,-2.2585,-2.1747,-2.1471,-2.0756,-2.1044,-2.1747,-2.1885,-1.9785,-2.0063,-1.9877,-1.7919,-1.7951,-1.7433,-1.6848,-1.6191,-1.5517,-1.4959,-1.4782,-1.453,-1.3744,-1.3095,-1.2832,-1.2832,-1.2832,-1.2832,-1.2832,-1.2832,-1.2832,-1.2832,-1.2848,-1.2873,-1.2986,-1.2986,-1.3019,-1.3084,-1.3189,-1.3295,-1.3376,-1.3474,-1.3604,-1.3758,-1.3847,-1.3904,-1.3904,-1.3904,-1.3904,-1.3904,-1.3904,-1.3758,-1.3612,-1.3506,-1.3376,-1.3206,-1.3181,-1.3181,-1.3189,-1.3206,-1.3206,-1.3214,-1.3238,-1.3222,-1.3214,-1.3319,-1.3409,-1.3384,-1.3327,-1.3319,-1.3279,-1.3246,-1.3254,-1.3327,-1.336,-1.3376,-1.3441,-1.3368,-1.3271,-1.3254,-1.3222,-1.3165,-1.3222,-1.3376,-1.3279,-1.3043,-1.3011,-1.3011,-1.297,-1.2921,-1.2783,-1.267,-1.271,-1.2718,-2.135,-2.1584,-2.1657,-2.1789,-2.1964,-2.2111,-2.2008,-2.1759,-2.195,-2.2111,-2.2242,-2.2491,-2.2813,-2.3047,-2.3106,-2.2981,-2.2634,-2.2553,-2.2549,-2.2449,-2.2498,-2.2525,-2.2549,-2.2493,-2.1609,-2.0491,-2.0213,-1.9367,-1.9089,-1.9785,-2.0201,-1.7959,-1.853,-1.8239,-1.7498,-1.6698,-1.6034,-1.5376,-1.501,-1.4218,-1.3485,-1.3954,-1.3664,-1.3112,-1.2832,-1.2832,-1.2832,-1.2832,-1.2832,-1.2832,-1.2832,-1.2856,-1.2905,-1.2929,-1.3011,-1.3133,-1.3206,-1.3262,-1.3311,-1.3376,-1.3449,-1.353,-1.3604,-1.3758,-1.3855,-1.3904,-1.3904,-1.3904,-1.3904,-1.3904,-1.3904,-1.3904,-1.3798,-1.3701,-1.362,-1.3539,-1.3482,-1.3457,-1.3482,-1.3539,-1.3579,-1.3628,-1.3636,-1.3652,-1.3604,-1.3498,-1.353,-1.3636,-1.3604,-1.353,-1.3457,-1.3457,-1.3376,-1.3392,-1.3474,-1.3539,-1.3571,-1.3579,-1.3506,-1.3457,-1.3441,-1.3425,-1.3384,-1.3474,-1.3579,-1.3522,-1.336,-1.3392,-1.3417,-1.3262,-1.3141,-1.3149,-1.3108,-1.3108,-1.2994,-2.1218,-2.1262,-2.1569,-2.154,-2.135,-2.1935,-2.1979,-2.1657,-2.1701,-2.1906,-2.2213,-2.252,-2.2842,-2.3047,-2.3106,-2.2856,-2.262,-2.2567,-2.2181,-2.2155,-2.2243,-2.1975,-2.1739,-2.1196,-2.0629,-2.0074,-1.9089,-1.7689,-1.6987,-1.7679,-1.7549,-1.6574,-1.6987,-1.5726,-1.5017,-1.4832,-1.4587,-1.4089,-1.3955,-1.3763,-1.3284,-1.3311,-1.3128,-1.2997,-1.284,-1.2832,-1.284,-1.2856,-1.2897,-1.2897,-1.2913,-1.2962,-1.3059,-1.3076,-1.3165,-1.3327,-1.3449,-1.3522,-1.3604,-1.362,-1.3693,-1.3807,-1.388,-1.388,-1.3896,-1.3912,-1.3912,-1.3937,-1.3953,-1.3945,-1.3928,-1.3888,-1.3863,-1.3831,-1.3815,-1.3815,-1.3774,-1.3742,-1.3774,-1.3872,-1.3937,-1.3969,-1.4002,-1.401,-1.3945,-1.3839,-1.3847,-1.3945,-1.3953,-1.388,-1.3734,-1.3644,-1.3506,-1.3514,-1.3612,-1.366,-1.3701,-1.3717,-1.3685,-1.3652,-1.3628,-1.3604,-1.3579,-1.3595,-1.366,-1.3677,-1.3669,-1.3595,-1.3514,-1.3417,-1.336,-1.3368,-1.3206,-1.3043,-1.2962,-2.1203,-2.1218,-2.135,-2.132,-2.1233,-2.1467,-2.1511,-2.1408,-2.1393,-2.1701,-2.2213,-2.2681,-2.2988,-2.3091,-2.3106,-2.2731,-2.2244,-2.1303,-2.1093,-2.0551,-2.0062,-1.9792,-1.9562,-1.9485,-1.8809,-1.797,-1.7127,-1.6291,-1.5026,-1.5726,-1.5301,-1.5026,-1.5593,-1.5168,-1.4466,-1.3896,-1.3807,-1.3701,-1.3628,-1.3465,-1.3197,-1.3197,-1.3124,-1.2856,-1.297,-1.2986,-1.2994,-1.2994,-1.3059,-1.3124,-1.3141,-1.3325,-1.3374,-1.339,-1.3497,-1.3653,-1.3628,-1.375,-1.3888,-1.3863,-1.3839,-1.3896,-1.3985,-1.4026,-1.3953,-1.4002,-1.4058,-1.4075,-1.4211,-1.4355,-1.4075,-1.4075,-1.4058,-1.4018,-1.4026,-1.4058,-1.4091,-1.4075,-1.414,-1.4278,-1.4278,-1.4286,-1.4318,-1.4351,-1.427,-1.4188,-1.4221,-1.4237,-1.4229,-1.4196,-1.4034,-1.3937,-1.3823,-1.3717,-1.3807,-1.3831,-1.3831,-1.3831,-1.3839,-1.3798,-1.3758,-1.3798,-1.3782,-1.3774,-1.375,-1.3782,-1.3766,-1.3701,-1.3644,-1.3612,-1.3595,-1.3595,-1.336,-1.3035,-1.2929,-2.1203,-2.1203,-2.1203,-2.1203,-2.1203,-2.1203,-2.1203,-2.1203,-2.1218,-2.1584,-2.2213,-2.2652,-2.2959,-2.3047,-2.3106,-2.2856,-2.209,-2.1109,-2.0374,-1.9577,-1.8928,-1.809,-1.8046,-1.7823,-1.7268,-1.615,-1.5452,-1.4742,-1.4189,-1.3904,-1.4039,-1.4466,-1.475,-1.4466,-1.4181,-1.3896,-1.3839,-1.375,-1.3693,-1.3587,-1.3327,-1.3908,-1.4147,-1.3996,-1.4459,-1.437,-1.4244,-1.3983,-1.3764,-1.3704,-1.3754,-1.3796,-1.3976,-1.4018,-1.4241,-1.4081,-1.4215,-1.4474,-1.4153,-1.4107,-1.4026,-1.4034,-1.4156,-1.4131,-1.4083,-1.4148,-1.4245,-1.44,-1.4537,-1.4829,-1.4546,-1.4683,-1.4683,-1.465,-1.4261,-1.4302,-1.4448,-1.4497,-1.4586,-1.4684,-1.4651,-1.4611,-1.4619,-1.4635,-1.4546,-1.444,-1.4351,-1.4391,-1.4456,-1.4408,-1.431,-1.4237,-1.4188,-1.4099,-1.4026,-1.401,-1.3985,-1.3863,-1.3872,-1.388,-1.3872,-1.3904,-1.3904,-1.3855,-1.3847,-1.3888,-1.3863,-1.379,-1.3815,-1.3855,-1.375,-1.3579,-1.3401,-1.31,-1.2978,-2.1203,-2.1203,-2.1203,-2.1203,-2.1203,-2.1203,-2.1203,-2.1218,-2.1262,-2.1598,-2.2154,-2.2315,-2.2637,-2.3003,-2.2981,-2.2606,-2.1964,-2.0563,-1.9542,-1.9042,-1.7705,-1.7538,-1.722,-1.6578,-1.6009,-1.5735,-1.5026,-1.4181,-1.3904,-1.3904,-1.3904,-1.392,-1.4214,-1.4206,-1.3904,-1.3904,-1.3896,-1.3896,-1.388,-1.375,-1.3751,-1.4553,-1.4871,-1.4955,-1.5624,-1.5526,-1.4855,-1.4982,-1.4645,-1.3792,-1.5165,-1.5099,-1.4403,-1.6441,-1.6399,-1.475,-1.5748,-1.548,-1.4264,-1.4391,-1.4302,-1.4188,-1.427,-1.4286,-1.4229,-1.431,-1.472,-1.4868,-1.545,-1.5597,-1.5588,-1.5458,-1.5189,-1.4926,-1.4679,-1.4619,-1.4773,-1.4773,-1.4822,-1.4854,-1.4911,-1.4944,-1.4935,-1.4911,-1.4822,-1.47,-1.4529,-1.4529,-1.4619,-1.4594,-1.4489,-1.444,-1.4391,-1.4245,-1.4148,-1.4172,-1.4123,-1.3985,-1.3928,-1.3961,-1.3937,-1.392,-1.392,-1.3904,-1.3904,-1.3904,-1.3904,-1.3888,-1.3872,-1.3815,-1.3612,-1.3441,-1.3295,-1.3197,-1.31,-2.1203,-2.1203,-2.1203,-2.1203,-2.1203,-2.1203,-2.1203,-2.1247,-2.1452,-2.1774,-2.2169,-2.2374,-2.2696,-2.2754,-2.2215,-2.1713,-2.0803,-1.8384,-1.7358,-1.7082,-1.5837,-1.5366,-1.5162,-1.5202,-1.4742,-1.4608,-1.4047,-1.3904,-1.3904,-1.3904,-1.3904,-1.3912,-1.401,-1.401,-1.3937,-1.3904,-1.3896,-1.3896,-1.3888,-1.3823,-1.3677,-1.428,-1.4649,-1.4362,-1.5137,-1.5192,-1.4787,-1.533,-1.5172,-1.4514,-1.5934,-1.6754,-1.6187,-1.7876,-1.817,-1.7305,-1.8001,-1.729,-1.6141,-1.5509,-1.4562,-1.4547,-1.4351,-1.4383,-1.4237,-1.4473,-1.501,-1.565,-1.594,-1.594,-1.6238,-1.5479,-1.5236,-1.5134,-1.4895,-1.5,-1.5082,-1.496,-1.4919,-1.4927,-1.4968,-1.4968,-1.4968,-1.496,-1.4895,-1.4871,-1.4724,-1.4659,-1.4716,-1.47,-1.4627,-1.457,-1.4505,-1.4351,-1.4261,-1.4318,-1.4245,-1.4099,-1.4066,-1.4099,-1.4058,-1.3969,-1.3928,-1.3912,-1.3904,-1.3904,-1.3904,-1.3888,-1.3815,-1.3717,-1.3604,-1.353,-1.3474,-1.3384,-1.3295,-2.1203,-2.1203,-2.1203,-2.1203,-2.1203,-2.1203,-2.1203,-2.1247,-2.1452,-2.1759,-2.2154,-2.2403,-2.271,-2.2616,-2.209,-2.1069,-2.0043,-1.7742,-1.6014,-1.5701,-1.4113,-1.4069,-1.4131,-1.4115,-1.4591,-1.4324,-1.4181,-1.4047,-1.475,-1.4181,-1.3896,-1.3961,-1.4131,-1.4083,-1.4002,-1.3953,-1.3969,-1.3937,-1.3888,-1.3863,-1.394,-1.4364,-1.4771,-1.4771,-1.505,-1.5262,-1.4999,-1.5211,-1.547,-1.5561,-1.6547,-1.8063,-1.7844,-1.8993,-1.9515,-1.8982,-1.7554,-1.7223,-1.6805,-1.6292,-1.5886,-1.6342,-1.5266,-1.4521,-1.4588,-1.5244,-1.5656,-1.5993,-1.6153,-1.6197,-1.625,-1.5487,-1.57,-1.5588,-1.5147,-1.5244,-1.5244,-1.5122,-1.4992,-1.5,-1.4976,-1.4968,-1.4968,-1.4952,-1.4919,-1.4919,-1.4903,-1.4862,-1.4806,-1.4773,-1.4757,-1.4724,-1.4684,-1.457,-1.4497,-1.4497,-1.4391,-1.4213,-1.4205,-1.4229,-1.4099,-1.3993,-1.3953,-1.392,-1.3912,-1.3904,-1.3904,-1.3872,-1.3839,-1.3807,-1.3766,-1.3701,-1.366,-1.3555,-1.3433,-2.1203,-2.1203,-2.1203,-2.1203,-2.1203,-2.1203,-2.1203,-2.1203,-2.1218,-2.1584,-2.2154,-2.2184,-2.252,-2.2864,-2.2591,-2.1587,-2.0068,-1.8139,-1.6744,-1.5548,-1.4207,-1.4031,-1.4065,-1.4315,-1.5168,-1.531,-1.531,-1.531,-1.5867,-1.4608,-1.3904,-1.4112,-1.4479,-1.4575,-1.4491,-1.4932,-1.4635,-1.4247,-1.3945,-1.392,-1.4022,-1.4893,-1.5159,-1.5397,-1.6009,-1.6046,-1.5951,-1.5901,-1.5443,-1.5867,-1.7272,-1.7633,-1.8842,-2.1306,-1.9837,-1.8112,-1.5937,-1.6355,-1.7483,-1.734,-1.7732,-1.822,-1.6554,-1.5455,-1.5725,-1.6839,-1.7292,-1.732,-1.7483,-1.6662,-1.6138,-1.6355,-1.6573,-1.5945,-1.5301,-1.5342,-1.5358,-1.526,-1.5114,-1.5049,-1.5,-1.4976,-1.4968,-1.4952,-1.4968,-1.4984,-1.4984,-1.4992,-1.4927,-1.4846,-1.4846,-1.4887,-1.4846,-1.4814,-1.4757,-1.4667,-1.4578,-1.4416,-1.4335,-1.4326,-1.4172,-1.4026,-1.3961,-1.3928,-1.3912,-1.3904,-1.3904,-1.3904,-1.3896,-1.3863,-1.3839,-1.3815,-1.375,-1.3636,-1.3547,-2.1203,-2.1203,-2.1203,-2.1203,-2.1203,-2.1203,-2.1203,-2.1203,-2.1218,-2.1467,-2.1847,-2.2081,-2.2175,-2.2385,-2.1491,-2.0676,-1.9212,-1.7543,-1.6205,-1.5073,-1.4164,-1.4518,-1.4947,-1.5452,-1.6433,-1.7127,-1.7268,-1.6564,-1.5877,-1.475,-1.4063,-1.3945,-1.5223,-1.5623,-1.622,-1.701,-1.5858,-1.4745,-1.4466,-1.4129,-1.3977,-1.4576,-1.4845,-1.5114,-1.5425,-1.5443,-1.5307,-1.6004,-1.5553,-1.5423,-1.7684,-1.8515,-1.782,-1.9478,-1.9391,-1.9159,-1.7957,-1.7558,-1.8987,-1.8483,-1.8394,-1.949,-1.8232,-1.8201,-1.8439,-1.8795,-1.9007,-1.8368,-1.8048,-1.7355,-1.6494,-1.6406,-1.644,-1.5948,-1.5423,-1.535,-1.5342,-1.5195,-1.5065,-1.5074,-1.5025,-1.5049,-1.5033,-1.5,-1.5017,-1.5041,-1.5065,-1.5082,-1.5033,-1.4944,-1.4903,-1.4944,-1.4911,-1.4854,-1.4846,-1.4773,-1.4716,-1.4635,-1.4529,-1.4408,-1.4253,-1.4115,-1.3993,-1.3969,-1.401,-1.3961,-1.3904,-1.3912,-1.3961,-1.3912,-1.388,-1.3863,-1.3823,-1.3725,-1.3677,-2.1086,-2.1203,-2.1203,-2.1203,-2.1203,-2.1203,-2.0974,-2.05,-2.0385,-2.0438,-2.0274,-2.0934,-2.1362,-2.141,-2.1074,-2.0195,-1.8536,-1.7337,-1.5854,-1.4446,-1.4102,-1.4841,-1.553,-1.6433,-1.7409,-1.839,-1.8798,-1.811,-1.7168,-1.6053,-1.511,-1.6034,-1.673,-1.7097,-1.7729,-1.8435,-1.8081,-1.6711,-1.5561,-1.477,-1.4483,-1.4235,-1.4066,-1.4244,-1.4465,-1.4498,-1.4473,-1.5771,-1.5342,-1.5018,-1.7423,-1.816,-1.7416,-1.8391,-1.8854,-1.8439,-1.7381,-1.7511,-1.8563,-1.8445,-1.9083,-1.9761,-1.9655,-1.9668,-1.9388,-1.9378,-1.87,-1.7955,-1.7993,-1.7724,-1.7004,-1.6275,-1.5946,-1.5626,-1.5488,-1.535,-1.522,-1.5074,-1.5057,-1.5082,-1.5106,-1.5147,-1.513,-1.5098,-1.513,-1.5244,-1.5268,-1.5236,-1.5147,-1.4992,-1.4952,-1.4952,-1.4911,-1.4854,-1.4862,-1.4854,-1.4757,-1.4684,-1.4619,-1.4489,-1.4326,-1.4253,-1.4188,-1.4156,-1.4148,-1.4115,-1.4091,-1.4034,-1.4042,-1.3993,-1.3937,-1.3888,-1.388,-1.3855,-1.3831,-2.0641,-2.0931,-2.1089,-2.0974,-2.1089,-2.0974,-2.027,-1.9203,-1.9203,-1.8764,-1.8295,-1.9102,-1.9846,-2.0328,-2.0393,-1.9661,-1.8197,-1.6954,-1.5596,-1.3651,-1.4102,-1.5122,-1.6244,-1.6715,-1.867,-1.9646,-1.9657,-1.9122,-1.9256,-1.7888,-1.6875,-1.8656,-1.8402,-1.8505,-1.9501,-2.0331,-2.0128,-1.9144,-1.7969,-1.701,-1.5416,-1.4711,-1.4658,-1.4958,-1.5112,-1.51,-1.5108,-1.5052,-1.4892,-1.5547,-1.6089,-1.7121,-1.7186,-1.726,-1.7334,-1.7336,-1.6397,-1.7127,-1.7985,-1.8172,-1.9085,-1.9906,-2.0422,-2.0043,-1.9498,-1.9761,-1.9035,-1.7929,-1.778,-1.734,-1.6613,-1.6073,-1.5721,-1.5545,-1.5447,-1.5342,-1.5236,-1.5171,-1.522,-1.5236,-1.5268,-1.5301,-1.5333,-1.5309,-1.5333,-1.5463,-1.5455,-1.539,-1.5285,-1.5114,-1.5025,-1.4992,-1.4927,-1.4903,-1.4919,-1.4887,-1.4765,-1.4692,-1.481,-1.4464,-1.4237,-1.4278,-1.4408,-1.4343,-1.4278,-1.4343,-1.4343,-1.4229,-1.4123,-1.4091,-1.4026,-1.3928,-1.3904,-1.3904,-1.3904,-1.9166,-1.9353,-1.9699,-1.9795,-1.9795,-1.9795,-1.9087,-1.791,-1.7793,-1.7726,-1.7624,-1.8131,-1.8766,-1.9653,-1.9096,-1.8512,-1.8314,-1.6602,-1.5462,-1.5137,-1.5072,-1.611,-1.7788,-1.867,-2.0352,-2.1183,-2.1069,-1.9901,-1.9521,-1.8331,-1.7779,-1.9315,-1.9643,-2.0669,-2.1301,-2.2141,-2.2325,-2.1424,-2.0874,-1.9668,-1.829,-1.8361,-1.8556,-1.8326,-1.8239,-1.8071,-1.783,-1.7341,-1.7084,-1.695,-1.5863,-1.5776,-1.5802,-1.5844,-1.6005,-1.6065,-1.5988,-1.6707,-1.7584,-1.8086,-1.8882,-1.9504,-1.9834,-1.9274,-1.9055,-1.983,-1.9492,-1.835,-1.7394,-1.6799,-1.6317,-1.5745,-1.5504,-1.5463,-1.5423,-1.5342,-1.5268,-1.5325,-1.5382,-1.5415,-1.5439,-1.548,-1.5512,-1.5536,-1.5569,-1.5561,-1.5528,-1.5472,-1.5423,-1.5293,-1.5147,-1.5082,-1.4984,-1.4952,-1.5122,-1.5387,-1.5564,-1.5479,-1.5578,-1.5032,-1.4463,-1.5018,-1.5458,-1.472,-1.4416,-1.4646,-1.4629,-1.4286,-1.4205,-1.4196,-1.4091,-1.3977,-1.3912,-1.3904,-1.3904,-1.8189,-1.7917,-1.8186,-1.8737,-1.9074,-1.8739,-1.8377,-1.8144,-1.7677,-1.7325,-1.7409,-1.8094,-1.8728,-1.9305,-1.8404,-1.7871,-1.7939,-1.6155,-1.5788,-1.57,-1.6353,-1.7673,-1.9044,-2.034,-2.1321,-2.2173,-2.219,-2.1352,-2.0367,-1.9971,-2.0005,-2.1171,-2.1983,-2.2263,-2.3037,-2.393,-2.393,-2.3197,-2.3214,-2.2633,-2.1167,-2.0809,-2.0014,-1.9778,-1.9832,-1.9962,-1.9714,-1.8897,-1.8345,-1.747,-1.6199,-1.5499,-1.5548,-1.5614,-1.5737,-1.5885,-1.5991,-1.6261,-1.7138,-1.7656,-1.7983,-1.8416,-1.8397,-1.7341,-1.7199,-1.7654,-1.7815,-1.6673,-1.6664,-1.6054,-1.6054,-1.5675,-1.5569,-1.5512,-1.5488,-1.5431,-1.5455,-1.5512,-1.5569,-1.561,-1.565,-1.5699,-1.5715,-1.5691,-1.574,-1.5837,-1.5764,-1.5658,-1.5593,-1.548,-1.5325,-1.5195,-1.5106,-1.5616,-1.6339,-1.6608,-1.6688,-1.6596,-1.6496,-1.6814,-1.693,-1.6774,-1.6655,-1.5904,-1.5402,-1.5294,-1.5227,-1.4613,-1.4351,-1.4335,-1.4188,-1.4018,-1.3969,-1.3945,-1.3945,-1.7148,-1.667,-1.6936,-1.7995,-1.9061,-1.8144,-1.826,-1.8971,-1.8144,-1.756,-1.7657,-1.8974,-1.9434,-1.9161,-1.877,-1.8035,-1.7336,-1.6552,-1.6211,-1.6556,-1.6867,-1.8539,-2.0016,-2.1183,-2.1747,-2.2164,-2.2357,-2.246,-2.2294,-2.1728,-2.1897,-2.3572,-2.3555,-2.3129,-2.4179,-2.4623,-2.4288,-2.4301,-2.438,-2.4595,-2.3502,-2.2295,-2.136,-2.0748,-2.062,-2.0469,-2.0524,-2.019,-1.9706,-1.8086,-1.6625,-1.5797,-1.5561,-1.5642,-1.5731,-1.5853,-1.5943,-1.6008,-1.6205,-1.6369,-1.6369,-1.6196,-1.604,-1.5959,-1.5975,-1.5917,-1.5917,-1.5934,-1.5926,-1.5909,-1.5756,-1.5723,-1.5618,-1.5577,-1.5553,-1.5585,-1.565,-1.5707,-1.5756,-1.5796,-1.5837,-1.5886,-1.5837,-1.5813,-1.5886,-1.5991,-1.5999,-1.5918,-1.5804,-1.5658,-1.5504,-1.5382,-1.5277,-1.6087,-1.7033,-1.7407,-1.736,-1.812,-1.817,-1.9054,-1.9319,-1.8474,-1.7793,-1.7312,-1.694,-1.6268,-1.5464,-1.4741,-1.4627,-1.4481,-1.4326,-1.418,-1.414,-1.4107,-1.405,-1.5021,-1.5321,-1.6582,-1.7995,-1.9061,-1.8971,-1.9087,-1.9203,-1.9087,-1.8855,-1.9232,-2.0264,-2.0456,-1.89,-1.7782,-1.7636,-1.863,-1.7478,-1.7662,-1.8116,-1.8742,-2.0024,-2.1121,-2.1885,-2.1747,-2.1773,-2.1885,-2.1877,-2.264,-2.2543,-2.2892,-2.4248,-2.4395,-2.4179,-2.4327,-2.4636,-2.4636,-2.4676,-2.4836,-2.4957,-2.5211,-2.4389,-2.4383,-2.4096,-2.4173,-2.4018,-2.3705,-2.2858,-2.134,-1.9523,-1.715,-1.6073,-1.5699,-1.578,-1.5853,-1.5926,-1.6024,-1.6032,-1.6048,-1.6048,-1.6048,-1.6032,-1.5999,-1.5894,-1.5772,-1.5699,-1.5723,-1.5942,-1.5772,-1.5731,-1.5715,-1.5675,-1.5601,-1.5634,-1.5642,-1.578,-1.5886,-1.5918,-1.5943,-1.5951,-1.5951,-1.5902,-1.5804,-1.5813,-1.5878,-1.5967,-1.6008,-1.5926,-1.5861,-1.5764,-1.5666,-1.5569,-1.5455,-1.6425,-1.7381,-1.7836,-1.8045,-1.9082,-2.0043,-2.059,-2.0579,-1.9669,-1.9051,-1.8459,-1.7693,-1.6843,-1.6033,-1.4927,-1.4765,-1.4603,-1.4481,-1.4375,-1.4318,-1.427,-1.4213]},{"header":{"parameterUnit":"m.s-1","parameterCategory":1,"la1":31.0,"la2":29.5877,"lo1":-88.7671,"lo2":-86.6584,"dy":0.0162,"dx":0.0185,"nx":115,"ny":88,"refTime":"2023-02-27T06:00:00:Z","depth":0,"parameterNumber":3,"parameterNumberName":"V-component_of_WINDS"},"data":[0.0,0.0,0.0,0.0,0.0,0.0,0.0,0.0,0.0,0.0,0.0,0.0,0.0,0.0,0.0,0.0,0.0,0.0,0.0,0.0,0.0,0.0,0.0,0.0,0.0,0.0,0.0,0.0,0.0,0.0,0.0,0.0,0.0,0.0,0.0,0.0,0.0,0.0,0.0,0.0,0.0,0.0,0.0,0.0,0.0,0.0,0.0,0.0,0.0,0.0,0.0,0.0,0.0,0.0,0.0,0.0,0.0,0.0,0.0,0.0,0.0,0.0,0.0,0.0,0.0,0.0,0.0,0.0,0.0,0.0,0.0,0.0,0.0,0.0,0.0,0.0,0.0,0.0,0.0,0.0,0.0,0.0,0.0,0.0,0.0,0.0,0.0,0.0,0.0,0.0,0.0,0.0,0.0,0.0,0.0,0.0,0.0,0.0,0.0,0.0,0.0,0.0,0.0,0.0,0.0,0.0,0.0,0.0,0.0,0.0,0.0,0.0,0.0,0.0,0.0,0.0,0.0,0.0,0.0,0.0,0.0,0.0,0.0,0.0,0.0,0.0,0.0,0.0,0.0,0.0,0.0,0.0,0.0,0.0,0.0,0.0,0.0,0.0,0.0,0.0,0.0,0.0,0.0,0.0,0.0,0.0,0.0,0.0,0.0,0.0,0.0,0.0,0.0,0.0,0.0,0.0,0.0,0.0,0.0,0.0,0.0,0.0,0.0,0.0,0.0,0.0,0.0,0.0,0.0,0.0,0.0,0.0,0.0,0.0,0.0,0.0,0.0,0.0,0.0,0.0,0.0,0.0,0.0,0.0,0.0,0.0,0.0,0.0,0.0,0.0,0.0,0.0,0.0,0.0,0.0,0.0,0.0,0.0,0.0,0.0,0.0,0.0,0.0,0.0,0.0,0.0,0.0,0.0,0.0,0.0,0.0,0.0,0.0,0.0,0.0,0.0,0.0,0.0,0.0,0.0,0.0,0.0,0.0,0.0,0.0,0.0,0.0,0.0,0.0,0.0,0.0,0.0,0.0,0.0,0.0,0.0,0.0,0.0,0.0,0.0,0.0,0.0,0.0,0.0,0.0,0.0,0.0,0.0,0.0,0.0,0.0,0.0,0.0,0.0,0.0,0.0,0.0,0.0,0.0,0.0,0.0,0.0,0.0,0.0,0.0,0.0,0.0,0.0,0.0,0.0,0.0,0.0,0.0,0.0,0.0,0.0,0.0,0.0,0.0,0.0,0.0,0.0,0.0,0.0,0.0,0.0,0.0,0.0,0.0,0.0,0.0,0.0,0.0,0.0,0.0,0.0,0.0,0.0,0.0,0.0,0.0,0.0,0.0,0.0,0.0,0.0,0.0,0.0,0.0,0.0,0.0,0.0,0.0,0.0,0.0,0.0,0.0,0.0,0.0,0.0,0.0,0.0,0.0,0.0,0.0,0.0,0.0,0.0,0.0,0.0,0.0,0.0,0.0,0.0,0.0,0.0,0.0,0.0,0.0,0.0,0.0,0.0,0.0,0.0,0.0,0.0,0.0,0.0,0.0,0.0,0.0,0.0,0.0,0.0,0.0,0.0,0.0,0.0,0.0,0.0,0.0,0.0,0.0,0.0,0.0,0.0,0.0,0.0,0.0,0.0,0.0,0.0,0.0,0.0,0.0,0.0,0.0,0.0,0.0,0.0,0.0,0.0,0.0,0.0,0.0,0.0,0.0,0.0,0.0,0.0,0.0,0.0,0.0,0.0,0.0,0.0,0.0,0.0,0.0,0.0,0.0,0.0,0.0,0.0,0.0,0.0,0.0,0.0,0.0,0.0,0.0,0.0,0.0,0.0,0.0,0.0,0.0,0.0,0.0,0.0,0.0,0.0,0.0,0.0,0.0,0.0,0.0,0.0,0.0,0.0,0.0,0.0,0.0,0.0,0.0,0.0,0.0,0.0,0.0,0.0,0.0,0.0,0.0,0.0,0.0,0.0,0.0,0.0,0.0,0.0,0.0,0.0,0.0,0.0,0.0,0.0,0.0,0.0,0.0,0.0,0.0,0.0,0.0,0.0,0.0,0.0,0.0,0.0,0.0,0.0,0.0,0.0,0.0,0.0,0.0,0.0,0.0,0.0,0.0,0.0,0.0,0.0,0.0,0.0,0.0,0.0,0.0,0.0,0.0,0.0,0.0,0.0,0.0,0.0,0.0,0.0,0.0,0.0,0.0,0.0,0.0,0.0,0.0,0.0,0.0,0.0,0.0,0.0,0.0,0.0,0.0,0.0,0.0,0.0,0.0,0.0,0.0,0.0,0.0,0.0,0.0,0.0,0.0,0.0,0.0,0.0,0.0,0.0,0.0,0.0,0.0,0.0,0.0,0.0,0.0,0.0,0.0,0.0,0.0,0.0,0.0,0.0,0.0,0.0,0.0,0.0,0.0,0.0,0.0,0.0,0.0,0.0,0.0,0.0,0.0,0.0,0.0,0.0,0.0,0.0,0.0,0.0,0.0,0.0,0.0,0.0,0.0,0.0,0.0,0.0,0.0,0.0,0.0,0.0,0.0,0.0,0.0,0.0,0.0,0.0,0.0,0.0,0.0,0.0,0.0,0.0,0.0,0.0,0.0,0.0,0.0,0.0,0.0,0.0,0.0,0.0,0.0,0.0,0.0,0.0,0.0,0.0,0.0,0.0,0.0,0.0,0.0,0.0,0.0,0.0,0.0,0.0,0.0,0.0,0.0,0.0,0.0,0.0,0.0,0.0,0.0,0.0,0.0,0.0,0.0,0.0,0.0,0.0,0.0,0.0,0.0,0.0,0.0,0.0,0.0,0.0,0.0,0.0,0.0,0.0,0.0,0.0,0.0,0.0,0.0,0.0,0.0,0.0,0.0,0.0,0.0,0.0,0.0,0.0,0.0,0.0,0.0,0.0,0.0,0.0,0.0,0.0,0.0,0.0,0.0,0.0,0.0,0.0,0.0,0.0,0.0,0.0,0.0,0.0,0.0,0.0,0.0,0.0,0.0,0.0,0.0,0.0,0.0,0.0,0.0,0.0,0.0,0.0,0.0,0.0,0.0,0.0,0.0,0.0,0.0,0.0,0.0,0.0,0.0,0.0,0.0,0.0,0.0,0.0,0.0,0.0,0.0,0.0,0.0,0.0,0.0,0.0,0.0,0.0,0.0,0.0,0.0,0.0,0.0,0.0,0.0,0.0,0.0,0.0,0.0,0.0,0.0,0.0,0.0,0.0,0.0,0.0,0.0,0.0,0.0,0.0,0.0,0.0,0.0,0.0,0.0,0.0,0.0,0.0,0.0,0.0,0.0,0.0,0.0,0.0,0.0,0.0,0.0,0.0,0.0,0.0,0.0,0.0,0.0,0.0,0.0,0.0,0.0,0.0,0.0,0.0,0.0,0.0,0.0,0.0,0.0,0.0,0.0,0.0,0.0,0.0,0.0,0.0,0.0,0.0,0.0,0.0,0.0,0.0,0.0,0.0,0.0,0.0,0.0,0.0,0.0,0.0,0.0,0.0,0.0,0.0,0.0,0.0,0.0,0.0,0.0,0.0,0.0,0.0,0.0,0.0,0.0,0.0,0.0,0.0,0.0,0.0,0.0,0.0,0.0,0.0,0.0,0.0,0.0,0.0,0.0,0.0,0.0,0.0,0.0,0.0,0.0,0.0,0.0,0.0,0.0,0.0,0.0,0.0,0.0,0.0,0.0,0.0,0.0,0.0,0.0,0.0,0.0,0.0,0.0,0.0,0.0,0.0,0.0,0.0,0.0,0.0,0.0,0.0,0.0,0.0,0.0,0.0,0.0,0.0,0.0,0.0,0.0,0.0,0.0,0.0,0.0,0.0,0.0,0.0,0.0,0.0,0.0,0.0,0.0,0.0,0.0,0.0,0.0,0.0,0.0,0.0,0.0,0.0,0.0,0.0,0.0,0.0,0.0,0.0,0.0,0.0,0.0,0.0,0.0,0.0,0.0,0.0,0.0,0.0,0.0,0.0,0.0,0.0,0.0,0.0,0.0,0.0,0.0,0.0,0.0,0.0,0.0,0.0,0.0,0.0,0.0,0.0,0.0,0.0,0.0,0.0,0.0,0.0,0.0,0.0,0.0,0.0,0.0,0.0,0.0,0.0,0.0,0.0,0.0,0.0,0.0,0.0,0.0,0.0,0.0,0.0,0.0,0.0,0.0,0.0,0.0,0.0,0.0,0.0,0.0,0.0,0.0,0.0,0.0,0.0,0.0,0.0,0.0,0.0,0.0,0.0,0.0,0.0,0.0,0.0,-2.1352,0.0,0.0,0.0,0.0,0.0,0.0,0.0,0.0,0.0,0.0,0.0,0.0,0.0,0.0,0.0,0.0,0.0,0.0,0.0,0.0,0.0,0.0,0.0,0.0,0.0,0.0,0.0,0.0,0.0,0.0,0.0,0.0,0.0,0.0,0.0,0.0,0.0,0.0,0.0,0.0,0.0,0.0,0.0,0.0,0.0,0.0,0.0,0.0,0.0,0.0,0.0,0.0,0.0,0.0,0.0,0.0,0.0,0.0,0.0,0.0,0.0,0.0,0.0,0.0,0.0,0.0,0.0,0.0,0.0,0.0,0.0,0.0,0.0,0.0,0.0,0.0,0.0,0.0,0.0,0.0,0.0,0.0,0.0,0.0,0.0,0.0,0.0,0.0,0.0,0.0,0.0,0.0,0.0,0.0,0.0,0.0,0.0,0.0,0.0,0.0,0.0,0.0,0.0,0.0,0.0,0.0,0.0,0.0,0.0,0.0,-2.1045,-2.0639,-2.125,-2.1566,-2.1575,0.0,0.0,0.0,0.0,0.0,0.0,0.0,0.0,0.0,0.0,0.0,0.0,0.0,0.0,0.0,0.0,0.0,0.0,0.0,0.0,0.0,0.0,0.0,0.0,0.0,0.0,0.0,0.0,0.0,0.0,0.0,0.0,0.0,0.0,0.0,0.0,0.0,0.0,0.0,0.0,0.0,0.0,0.0,0.0,0.0,0.0,0.0,0.0,0.0,0.0,0.0,0.0,0.0,0.0,0.0,0.0,0.0,0.0,0.0,0.0,0.0,0.0,0.0,0.0,0.0,0.0,0.0,0.0,0.0,0.0,0.0,0.0,0.0,0.0,0.0,0.0,0.0,0.0,0.0,0.0,0.0,0.0,0.0,0.0,0.0,0.0,0.0,0.0,0.0,0.0,0.0,0.0,0.0,0.0,0.0,0.0,0.0,0.0,0.0,0.0,0.0,0.0,0.0,0.0,0.0,0.0,0.0,0.0,0.0,0.0,0.0,0.0,-2.1572,-2.1867,-2.1892,0.0,0.0,0.0,0.0,0.0,0.0,0.0,0.0,0.0,0.0,0.0,0.0,0.0,0.0,0.0,0.0,0.0,0.0,0.0,0.0,0.0,0.0,0.0,0.0,0.0,0.0,0.0,0.0,0.0,0.0,0.0,0.0,0.0,0.0,0.0,0.0,0.0,0.0,0.0,0.0,0.0,0.0,0.0,0.0,0.0,0.0,0.0,0.0,0.0,0.0,0.0,0.0,0.0,0.0,0.0,0.0,0.0,0.0,0.0,0.0,0.0,0.0,0.0,0.0,0.0,0.0,0.0,0.0,0.0,0.0,0.0,0.0,0.0,0.0,0.0,0.0,0.0,0.0,0.0,0.0,0.0,0.0,0.0,0.0,0.0,0.0,0.0,0.0,0.0,0.0,0.0,0.0,0.0,0.0,0.0,0.0,0.0,0.0,0.0,0.0,0.0,0.0,0.0,0.0,0.0,0.0,0.0,0.0,0.0,0.0,-2.2737,-2.2591,-2.2583,0.0,-2.2704,0.0,0.0,0.0,0.0,0.0,0.0,0.0,0.0,0.0,0.0,0.0,0.0,0.0,0.0,0.0,0.0,0.0,0.0,0.0,0.0,0.0,0.0,0.0,0.0,0.0,0.0,0.0,0.0,0.0,0.0,0.0,0.0,0.0,0.0,0.0,0.0,0.0,0.0,0.0,0.0,0.0,0.0,0.0,0.0,0.0,0.0,0.0,0.0,0.0,0.0,0.0,0.0,0.0,0.0,0.0,0.0,0.0,0.0,0.0,0.0,0.0,0.0,0.0,0.0,0.0,0.0,0.0,0.0,0.0,0.0,0.0,0.0,0.0,0.0,0.0,0.0,0.0,0.0,0.0,0.0,0.0,0.0,0.0,0.0,0.0,0.0,0.0,0.0,0.0,0.0,0.0,0.0,0.0,0.0,0.0,0.0,0.0,0.0,0.0,0.0,0.0,0.0,0.0,0.0,0.0,0.0,0.0,0.0,0.0,0.0,-2.2876,-2.285,-2.2747,-2.2781,0.0,0.0,0.0,0.0,0.0,0.0,0.0,0.0,0.0,0.0,0.0,0.0,0.0,0.0,0.0,0.0,0.0,0.0,0.0,0.0,0.0,0.0,0.0,0.0,0.0,0.0,0.0,0.0,0.0,0.0,0.0,0.0,0.0,0.0,0.0,0.0,0.0,0.0,0.0,0.0,0.0,0.0,0.0,0.0,0.0,0.0,0.0,0.0,0.0,0.0,0.0,0.0,0.0,0.0,0.0,0.0,0.0,0.0,0.0,0.0,0.0,0.0,0.0,0.0,0.0,0.0,0.0,0.0,0.0,0.0,0.0,0.0,0.0,0.0,0.0,0.0,0.0,0.0,0.0,0.0,0.0,0.0,0.0,0.0,0.0,0.0,0.0,0.0,0.0,0.0,0.0,0.0,0.0,0.0,0.0,0.0,0.0,0.0,0.0,0.0,0.0,0.0,0.0,0.0,0.0,0.0,0.0,0.0,0.0,0.0,-2.3003,-2.2911,-2.2859,-2.2747,-2.2773,-2.2876,0.0,0.0,0.0,0.0,0.0,0.0,0.0,0.0,0.0,0.0,0.0,0.0,0.0,0.0,0.0,0.0,0.0,0.0,0.0,0.0,0.0,0.0,0.0,0.0,0.0,0.0,0.0,0.0,0.0,0.0,0.0,0.0,0.0,0.0,0.0,0.0,0.0,0.0,0.0,0.0,0.0,0.0,0.0,0.0,0.0,0.0,0.0,0.0,0.0,0.0,0.0,0.0,0.0,0.0,0.0,0.0,0.0,0.0,0.0,0.0,0.0,0.0,0.0,0.0,0.0,0.0,0.0,0.0,0.0,0.0,0.0,0.0,0.0,0.0,0.0,0.0,0.0,0.0,0.0,0.0,0.0,0.0,0.0,0.0,0.0,0.0,0.0,0.0,0.0,0.0,0.0,0.0,0.0,0.0,0.0,0.0,0.0,0.0,0.0,0.0,0.0,0.0,0.0,0.0,0.0,0.0,0.0,0.0,-2.3175,-2.3003,-2.2825,-2.2694,-2.2747,-2.2825,0.0,0.0,0.0,0.0,0.0,0.0,0.0,0.0,0.0,0.0,0.0,0.0,0.0,0.0,0.0,0.0,0.0,0.0,0.0,0.0,0.0,0.0,0.0,0.0,0.0,0.0,0.0,0.0,0.0,0.0,0.0,0.0,0.0,0.0,0.0,0.0,0.0,0.0,0.0,0.0,0.0,0.0,0.0,0.0,0.0,0.0,0.0,0.0,0.0,0.0,0.0,0.0,0.0,0.0,0.0,0.0,0.0,0.0,0.0,0.0,0.0,0.0,0.0,0.0,0.0,0.0,0.0,0.0,0.0,0.0,0.0,0.0,0.0,0.0,0.0,0.0,0.0,0.0,0.0,0.0,0.0,0.0,0.0,0.0,0.0,0.0,0.0,0.0,0.0,0.0,0.0,0.0,0.0,0.0,0.0,0.0,0.0,0.0,0.0,0.0,0.0,0.0,0.0,0.0,0.0,0.0,0.0,0.0,0.0,-2.3175,-2.2987,-2.2773,-2.2729,-2.2729,-2.2773,0.0,0.0,0.0,0.0,0.0,0.0,0.0,0.0,0.0,0.0,0.0,0.0,0.0,0.0,0.0,0.0,0.0,0.0,0.0,0.0,0.0,0.0,0.0,0.0,0.0,0.0,0.0,0.0,0.0,0.0,0.0,0.0,0.0,0.0,0.0,0.0,0.0,0.0,0.0,0.0,0.0,0.0,0.0,0.0,0.0,0.0,0.0,0.0,0.0,0.0,0.0,0.0,0.0,0.0,0.0,0.0,0.0,0.0,0.0,0.0,0.0,0.0,0.0,0.0,0.0,0.0,0.0,0.0,0.0,0.0,0.0,0.0,0.0,0.0,0.0,0.0,0.0,0.0,0.0,0.0,0.0,0.0,0.0,0.0,0.0,0.0,0.0,0.0,0.0,0.0,0.0,0.0,0.0,0.0,0.0,0.0,0.0,0.0,0.0,0.0,0.0,0.0,0.0,0.0,0.0,0.0,0.0,0.0,0.0,-2.3102,0.0,-2.2721,0.0,-2.2668,-2.2721,0.0,0.0,0.0,0.0,0.0,0.0,0.0,0.0,0.0,0.0,0.0,0.0,0.0,0.0,0.0,0.0,0.0,0.0,0.0,0.0,0.0,0.0,0.0,0.0,0.0,0.0,0.0,0.0,0.0,0.0,0.0,0.0,0.0,0.0,0.0,0.0,0.0,0.0,0.0,0.0,0.0,0.0,0.0,0.0,0.0,0.0,0.0,0.0,0.0,0.0,0.0,0.0,0.0,0.0,0.0,0.0,0.0,0.0,0.0,0.0,0.0,0.0,0.0,0.0,0.0,0.0,0.0,0.0,0.0,0.0,0.0,0.0,0.0,0.0,0.0,0.0,0.0,0.0,0.0,0.0,0.0,0.0,0.0,0.0,0.0,0.0,0.0,0.0,0.0,0.0,0.0,0.0,0.0,0.0,0.0,0.0,0.0,0.0,0.0,0.0,0.0,0.0,0.0,0.0,0.0,0.0,0.0,0.0,-2.3186,-2.2902,-2.2773,-2.2694,-2.2703,-2.2649,-2.2703,0.0,0.0,0.0,0.0,0.0,0.0,0.0,0.0,0.0,0.0,0.0,0.0,0.0,0.0,0.0,0.0,0.0,0.0,0.0,0.0,0.0,0.0,0.0,0.0,0.0,0.0,0.0,0.0,0.0,0.0,0.0,0.0,0.0,0.0,0.0,0.0,0.0,0.0,0.0,0.0,0.0,0.0,0.0,0.0,0.0,0.0,0.0,0.0,0.0,0.0,0.0,0.0,0.0,0.0,0.0,0.0,0.0,0.0,0.0,0.0,0.0,0.0,0.0,0.0,0.0,0.0,0.0,0.0,0.0,0.0,0.0,0.0,0.0,0.0,0.0,0.0,0.0,0.0,0.0,0.0,0.0,0.0,0.0,0.0,0.0,0.0,0.0,0.0,0.0,0.0,0.0,0.0,0.0,0.0,0.0,0.0,0.0,0.0,0.0,0.0,0.0,0.0,0.0,0.0,0.0,0.0,0.0,0.0,0.0,-2.2936,-2.2781,-2.2694,-2.2703,-2.2668,-2.3023,0.0,0.0,0.0,0.0,0.0,0.0,0.0,0.0,0.0,0.0,0.0,0.0,0.0,0.0,0.0,0.0,0.0,0.0,0.0,0.0,0.0,0.0,0.0,0.0,0.0,0.0,0.0,0.0,0.0,0.0,0.0,0.0,0.0,0.0,0.0,0.0,0.0,0.0,0.0,0.0,0.0,0.0,0.0,0.0,0.0,0.0,0.0,0.0,0.0,0.0,0.0,0.0,0.0,0.0,0.0,0.0,0.0,0.0,0.0,0.0,0.0,0.0,0.0,0.0,0.0,0.0,0.0,0.0,0.0,0.0,0.0,0.0,0.0,0.0,0.0,0.0,0.0,0.0,0.0,0.0,0.0,0.0,0.0,0.0,0.0,0.0,0.0,0.0,0.0,0.0,0.0,0.0,0.0,0.0,0.0,0.0,0.0,0.0,0.0,0.0,0.0,0.0,0.0,0.0,0.0,0.0,0.0,0.0,0.0,-2.4135,-2.3695,-2.3337,-2.3089,-2.3302,-2.3653,-2.4077,0.0,0.0,0.0,0.0,0.0,0.0,0.0,0.0,0.0,0.0,0.0,0.0,0.0,0.0,0.0,0.0,0.0,0.0,0.0,0.0,0.0,0.0,0.0,0.0,0.0,0.0,0.0,0.0,0.0,0.0,0.0,0.0,0.0,0.0,0.0,0.0,0.0,0.0,0.0,0.0,0.0,0.0,0.0,0.0,0.0,0.0,0.0,0.0,0.0,0.0,0.0,0.0,0.0,0.0,0.0,0.0,0.0,0.0,0.0,0.0,0.0,0.0,0.0,0.0,0.0,0.0,0.0,0.0,0.0,0.0,0.0,0.0,0.0,0.0,0.0,0.0,0.0,0.0,0.0,0.0,0.0,0.0,0.0,0.0,0.0,0.0,0.0,0.0,0.0,0.0,0.0,0.0,0.0,0.0,0.0,0.0,0.0,0.0,0.0,0.0,0.0,0.0,0.0,0.0,0.0,0.0,0.0,0.0,-2.6234,-2.5403,-2.4594,-2.3796,-2.4423,-2.4574,0.0,0.0,0.0,0.0,0.0,0.0,0.0,0.0,0.0,0.0,0.0,0.0,0.0,0.0,0.0,0.0,0.0,0.0,0.0,0.0,0.0,0.0,0.0,0.0,0.0,0.0,0.0,0.0,0.0,0.0,0.0,0.0,0.0,0.0,0.0,0.0,0.0,0.0,0.0,0.0,0.0,0.0,0.0,0.0,0.0,0.0,0.0,0.0,0.0,0.0,0.0,0.0,0.0,0.0,0.0,0.0,0.0,0.0,0.0,0.0,0.0,0.0,0.0,0.0,0.0,0.0,0.0,0.0,0.0,0.0,0.0,0.0,0.0,0.0,0.0,0.0,0.0,0.0,0.0,0.0,0.0,0.0,0.0,0.0,0.0,0.0,0.0,0.0,0.0,0.0,0.0,0.0,0.0,0.0,0.0,0.0,0.0,0.0,0.0,0.0,0.0,0.0,0.0,0.0,0.0,0.0,0.0,0.0,0.0,-2.6971,-2.7571,-2.679,-2.4564,-2.53,-2.5454,0.0,0.0,0.0,0.0,0.0,0.0,0.0,0.0,0.0,0.0,0.0,0.0,0.0,0.0,0.0,0.0,0.0,0.0,0.0,0.0,0.0,0.0,0.0,0.0,0.0,0.0,0.0,0.0,0.0,0.0,0.0,0.0,0.0,0.0,0.0,0.0,0.0,0.0,0.0,0.0,0.0,0.0,0.0,0.0,0.0,0.0,0.0,0.0,0.0,0.0,0.0,0.0,0.0,0.0,0.0,0.0,0.0,0.0,0.0,0.0,0.0,0.0,0.0,0.0,0.0,0.0,0.0,0.0,0.0,0.0,0.0,0.0,0.0,0.0,0.0,0.0,0.0,0.0,0.0,0.0,0.0,0.0,0.0,0.0,0.0,0.0,0.0,0.0,0.0,0.0,0.0,0.0,0.0,0.0,0.0,0.0,0.0,0.0,0.0,0.0,0.0,0.0,0.0,0.0,0.0,0.0,0.0,0.0,-2.8198,-2.8628,-2.9208,-2.8556,-2.652,-2.6815,-2.6557,0.0,0.0,0.0,0.0,0.0,0.0,0.0,0.0,0.0,0.0,0.0,0.0,0.0,0.0,0.0,0.0,0.0,0.0,0.0,0.0,0.0,0.0,0.0,0.0,0.0,0.0,0.0,0.0,0.0,0.0,0.0,0.0,0.0,0.0,0.0,0.0,0.0,0.0,0.0,0.0,0.0,0.0,0.0,0.0,0.0,0.0,0.0,0.0,0.0,0.0,0.0,0.0,0.0,0.0,0.0,0.0,0.0,0.0,0.0,0.0,0.0,0.0,0.0,0.0,0.0,0.0,0.0,0.0,0.0,0.0,0.0,0.0,0.0,0.0,0.0,0.0,0.0,0.0,0.0,0.0,0.0,0.0,0.0,0.0,0.0,0.0,0.0,0.0,0.0,0.0,0.0,0.0,0.0,0.0,0.0,0.0,0.0,0.0,0.0,0.0,0.0,0.0,0.0,0.0,0.0,0.0,0.0,0.0,-2.9338,-3.0525,-3.0407,-2.9986,-2.9238,-2.8665,-2.7732,0.0,0.0,0.0,0.0,0.0,0.0,0.0,0.0,0.0,0.0,0.0,0.0,0.0,0.0,0.0,0.0,0.0,0.0,0.0,0.0,0.0,0.0,0.0,0.0,0.0,0.0,0.0,0.0,0.0,0.0,0.0,0.0,0.0,0.0,0.0,0.0,0.0,0.0,0.0,0.0,0.0,0.0,0.0,0.0,0.0,0.0,0.0,0.0,0.0,0.0,0.0,0.0,0.0,0.0,0.0,0.0,0.0,0.0,0.0,0.0,0.0,0.0,0.0,0.0,0.0,0.0,0.0,0.0,0.0,0.0,0.0,0.0,0.0,0.0,0.0,0.0,0.0,0.0,0.0,0.0,0.0,0.0,0.0,0.0,0.0,0.0,0.0,0.0,0.0,0.0,0.0,0.0,0.0,0.0,0.0,0.0,0.0,0.0,0.0,0.0,0.0,0.0,0.0,0.0,0.0,0.0,0.0,0.0,-2.9465,-3.0258,-3.1322,-3.1498,-3.0765,-2.973,-2.8558,0.0,0.0,0.0,0.0,0.0,0.0,0.0,0.0,0.0,0.0,0.0,0.0,0.0,0.0,0.0,0.0,0.0,0.0,0.0,0.0,0.0,0.0,0.0,0.0,0.0,0.0,0.0,0.0,0.0,0.0,0.0,0.0,0.0,0.0,0.0,0.0,0.0,0.0,0.0,0.0,0.0,0.0,0.0,0.0,0.0,0.0,0.0,0.0,-3.3913,0.0,0.0,0.0,0.0,0.0,0.0,0.0,0.0,0.0,0.0,0.0,0.0,0.0,0.0,0.0,0.0,0.0,0.0,0.0,0.0,0.0,0.0,0.0,0.0,0.0,0.0,0.0,0.0,0.0,0.0,0.0,0.0,0.0,0.0,0.0,0.0,0.0,0.0,0.0,0.0,0.0,0.0,0.0,0.0,0.0,0.0,0.0,0.0,0.0,0.0,0.0,0.0,0.0,0.0,0.0,0.0,0.0,0.0,0.0,-3.0112,-3.08,-3.1769,-3.2124,-3.1702,-3.0517,-2.933,0.0,0.0,0.0,0.0,0.0,0.0,0.0,0.0,0.0,0.0,0.0,0.0,0.0,0.0,0.0,0.0,0.0,0.0,0.0,0.0,0.0,0.0,0.0,0.0,0.0,0.0,0.0,0.0,0.0,0.0,0.0,0.0,0.0,0.0,0.0,0.0,0.0,0.0,0.0,0.0,0.0,0.0,0.0,0.0,0.0,0.0,0.0,0.0,0.0,0.0,0.0,0.0,0.0,0.0,0.0,0.0,0.0,0.0,0.0,0.0,0.0,0.0,0.0,0.0,0.0,0.0,0.0,0.0,0.0,0.0,0.0,0.0,0.0,0.0,0.0,0.0,0.0,0.0,0.0,0.0,0.0,0.0,0.0,0.0,0.0,0.0,0.0,0.0,0.0,0.0,0.0,0.0,0.0,0.0,0.0,0.0,0.0,0.0,0.0,0.0,0.0,0.0,0.0,0.0,0.0,0.0,0.0,-3.0119,-3.0695,-3.132,-3.2077,-3.24,-3.2258,-3.1009,-3.0066,-2.9483,0.0,0.0,0.0,0.0,0.0,0.0,0.0,0.0,0.0,0.0,0.0,0.0,0.0,0.0,0.0,0.0,0.0,0.0,0.0,0.0,0.0,0.0,0.0,0.0,0.0,0.0,0.0,0.0,0.0,0.0,0.0,0.0,0.0,0.0,0.0,0.0,0.0,0.0,-3.5553,-3.5539,0.0,0.0,0.0,0.0,0.0,0.0,0.0,0.0,-3.5182,0.0,0.0,0.0,0.0,0.0,0.0,0.0,0.0,0.0,0.0,0.0,0.0,0.0,0.0,0.0,0.0,0.0,0.0,0.0,0.0,0.0,0.0,0.0,0.0,0.0,0.0,0.0,0.0,0.0,0.0,0.0,0.0,0.0,0.0,0.0,0.0,0.0,0.0,0.0,0.0,0.0,0.0,0.0,0.0,0.0,0.0,0.0,0.0,0.0,0.0,0.0,0.0,0.0,0.0,0.0,0.0,-2.8804,-2.9538,-3.0306,-3.1073,-3.2487,-3.2919,-3.2234,-3.1361,-3.0812,-3.0667,0.0,0.0,0.0,0.0,0.0,0.0,0.0,0.0,0.0,0.0,0.0,0.0,0.0,0.0,0.0,0.0,0.0,0.0,0.0,0.0,0.0,0.0,0.0,0.0,0.0,0.0,0.0,0.0,0.0,0.0,0.0,0.0,0.0,0.0,0.0,0.0,0.0,0.0,0.0,-3.5199,-3.4824,0.0,0.0,0.0,0.0,0.0,0.0,0.0,0.0,-3.6003,0.0,0.0,0.0,0.0,0.0,0.0,0.0,0.0,0.0,0.0,0.0,0.0,0.0,0.0,0.0,0.0,0.0,0.0,0.0,0.0,0.0,0.0,0.0,0.0,0.0,0.0,0.0,0.0,0.0,0.0,0.0,0.0,0.0,0.0,0.0,0.0,0.0,0.0,0.0,0.0,0.0,0.0,0.0,0.0,0.0,0.0,0.0,0.0,0.0,0.0,0.0,0.0,0.0,0.0,0.0,-2.9279,-3.0051,-3.0604,-3.1003,-3.256,-3.3212,-3.2814,-3.2053,-3.1618,0.0,0.0,0.0,0.0,0.0,0.0,0.0,0.0,0.0,0.0,0.0,0.0,0.0,0.0,0.0,0.0,0.0,0.0,0.0,0.0,0.0,0.0,0.0,0.0,0.0,0.0,0.0,0.0,0.0,0.0,0.0,0.0,0.0,0.0,0.0,0.0,0.0,0.0,0.0,0.0,-3.5724,-3.5132,-3.5177,0.0,0.0,0.0,0.0,0.0,0.0,-3.6998,-3.685,0.0,0.0,0.0,0.0,0.0,0.0,0.0,0.0,0.0,0.0,0.0,0.0,0.0,0.0,0.0,0.0,0.0,0.0,0.0,0.0,0.0,0.0,0.0,0.0,0.0,0.0,0.0,0.0,0.0,0.0,0.0,0.0,0.0,0.0,0.0,0.0,0.0,0.0,0.0,0.0,0.0,0.0,0.0,0.0,0.0,0.0,0.0,0.0,0.0,0.0,0.0,0.0,0.0,0.0,0.0,-3.0104,-3.0704,-3.1075,-3.1292,-3.2669,-3.3321,-3.3176,-3.2524,-3.2198,0.0,0.0,0.0,0.0,0.0,0.0,0.0,0.0,0.0,0.0,0.0,0.0,0.0,0.0,0.0,0.0,0.0,0.0,0.0,0.0,0.0,0.0,0.0,0.0,0.0,0.0,0.0,0.0,0.0,0.0,0.0,0.0,0.0,0.0,0.0,0.0,0.0,0.0,0.0,0.0,0.0,-3.5899,-3.5895,-3.636,0.0,0.0,0.0,0.0,-3.962,-3.8921,0.0,0.0,0.0,0.0,0.0,0.0,0.0,0.0,0.0,0.0,0.0,0.0,0.0,0.0,0.0,0.0,0.0,0.0,0.0,0.0,0.0,0.0,0.0,0.0,0.0,0.0,0.0,0.0,0.0,0.0,0.0,0.0,0.0,0.0,0.0,0.0,0.0,0.0,0.0,0.0,0.0,0.0,0.0,0.0,0.0,0.0,0.0,0.0,0.0,0.0,0.0,0.0,0.0,0.0,0.0,0.0,-3.0812,-3.093,-3.1329,-3.2053,-3.2958,-3.3067,-3.2379,-3.2234,-3.2226,0.0,0.0,0.0,0.0,0.0,0.0,0.0,0.0,0.0,0.0,0.0,0.0,0.0,0.0,0.0,0.0,0.0,0.0,0.0,0.0,0.0,0.0,0.0,0.0,0.0,0.0,0.0,0.0,0.0,0.0,0.0,0.0,0.0,0.0,0.0,0.0,0.0,0.0,0.0,0.0,0.0,-3.6733,-3.6696,-3.6656,-3.6832,0.0,0.0,0.0,-3.9952,-4.2161,0.0,0.0,0.0,0.0,0.0,0.0,0.0,0.0,0.0,0.0,0.0,0.0,0.0,0.0,0.0,0.0,0.0,0.0,0.0,0.0,0.0,0.0,0.0,0.0,0.0,0.0,0.0,0.0,0.0,0.0,0.0,0.0,0.0,0.0,0.0,0.0,0.0,0.0,0.0,0.0,0.0,0.0,0.0,0.0,0.0,0.0,0.0,0.0,0.0,0.0,0.0,0.0,0.0,0.0,0.0,-2.9562,-3.1011,-3.0994,-3.142,-3.2301,-3.3045,-3.3299,-3.2993,-3.2993,-3.2993,0.0,0.0,0.0,0.0,0.0,0.0,0.0,0.0,0.0,0.0,0.0,0.0,0.0,0.0,0.0,0.0,0.0,0.0,0.0,0.0,0.0,0.0,0.0,0.0,0.0,0.0,0.0,0.0,0.0,0.0,0.0,0.0,0.0,0.0,0.0,0.0,0.0,0.0,0.0,0.0,0.0,0.0,-3.6816,-3.735,0.0,0.0,0.0,-3.9768,-4.1103,0.0,0.0,0.0,0.0,0.0,0.0,0.0,0.0,0.0,0.0,0.0,0.0,0.0,0.0,0.0,0.0,0.0,0.0,0.0,0.0,0.0,0.0,0.0,0.0,0.0,0.0,0.0,0.0,0.0,0.0,0.0,0.0,0.0,0.0,0.0,0.0,0.0,0.0,0.0,0.0,0.0,0.0,0.0,0.0,0.0,0.0,0.0,0.0,0.0,0.0,0.0,0.0,0.0,0.0,0.0,0.0,0.0,-3.1356,-3.1157,-3.1583,-3.2675,-3.3239,-3.353,-3.3587,-3.3587,0.0,0.0,0.0,0.0,0.0,0.0,0.0,0.0,0.0,0.0,0.0,0.0,0.0,0.0,0.0,0.0,0.0,0.0,0.0,0.0,0.0,0.0,0.0,0.0,0.0,0.0,0.0,-3.5042,0.0,0.0,0.0,0.0,0.0,0.0,0.0,0.0,0.0,0.0,0.0,0.0,0.0,0.0,-3.8915,-3.7646,-3.8538,-3.9412,0.0,0.0,-4.0515,-4.2029,-4.1992,-4.2095,0.0,0.0,0.0,0.0,0.0,0.0,0.0,0.0,0.0,0.0,0.0,0.0,0.0,0.0,0.0,0.0,0.0,0.0,0.0,0.0,0.0,0.0,0.0,0.0,0.0,0.0,0.0,0.0,0.0,0.0,0.0,0.0,0.0,0.0,0.0,0.0,0.0,0.0,0.0,0.0,0.0,0.0,0.0,0.0,0.0,0.0,0.0,0.0,0.0,0.0,0.0,0.0,0.0,0.0,0.0,-3.2174,-3.1555,-3.1955,-3.3441,-3.3587,-3.3623,-3.3587,-3.3587,-3.3615,0.0,0.0,0.0,0.0,0.0,0.0,0.0,0.0,0.0,0.0,0.0,0.0,0.0,0.0,0.0,0.0,0.0,0.0,0.0,0.0,0.0,0.0,0.0,0.0,0.0,0.0,0.0,0.0,0.0,0.0,0.0,0.0,0.0,0.0,0.0,0.0,0.0,0.0,0.0,0.0,0.0,-4.0148,-3.9919,-4.0473,-4.1222,0.0,0.0,-4.2983,-4.2396,-4.4709,-4.5735,-4.3198,0.0,0.0,0.0,0.0,0.0,0.0,0.0,0.0,0.0,0.0,0.0,0.0,0.0,0.0,0.0,0.0,0.0,0.0,0.0,0.0,0.0,0.0,0.0,0.0,0.0,0.0,0.0,0.0,0.0,0.0,0.0,0.0,0.0,0.0,0.0,0.0,0.0,0.0,0.0,0.0,0.0,0.0,0.0,0.0,0.0,0.0,0.0,0.0,0.0,0.0,0.0,0.0,0.0,-3.1114,-3.2481,-3.2145,-3.251,-3.3689,-3.4174,-3.4174,-3.3726,-3.4202,-3.4238,0.0,0.0,0.0,0.0,0.0,0.0,0.0,0.0,0.0,0.0,0.0,0.0,0.0,0.0,0.0,0.0,0.0,0.0,0.0,0.0,0.0,0.0,0.0,0.0,0.0,0.0,0.0,0.0,-3.7258,-3.7184,-3.7735,0.0,0.0,0.0,0.0,0.0,0.0,0.0,0.0,0.0,0.0,-4.0911,-4.0154,-4.0662,0.0,0.0,-4.2543,-4.2871,-4.3088,-4.4223,-4.4912,-4.4463,-4.499,0.0,0.0,0.0,0.0,0.0,0.0,0.0,0.0,0.0,0.0,0.0,0.0,0.0,0.0,0.0,0.0,0.0,0.0,0.0,0.0,0.0,0.0,0.0,0.0,0.0,0.0,0.0,0.0,0.0,0.0,0.0,0.0,0.0,0.0,0.0,0.0,0.0,0.0,0.0,0.0,0.0,0.0,0.0,0.0,0.0,0.0,0.0,0.0,0.0,0.0,0.0,0.0,-3.1948,-3.2978,-3.2883,-3.3369,-3.4504,-3.5036,-3.5072,-3.4578,-3.5092,-3.5238,0.0,0.0,0.0,0.0,0.0,0.0,0.0,0.0,0.0,0.0,0.0,0.0,0.0,0.0,0.0,0.0,0.0,0.0,0.0,0.0,0.0,0.0,0.0,0.0,0.0,0.0,0.0,0.0,-3.8477,-3.8421,-3.8743,0.0,0.0,0.0,0.0,0.0,0.0,0.0,0.0,0.0,0.0,-4.2184,-4.1111,-4.1767,-4.259,-4.3078,-4.341,-4.359,-4.3697,-4.4202,-4.4846,-4.5424,0.0,0.0,0.0,0.0,0.0,0.0,0.0,0.0,0.0,0.0,0.0,0.0,0.0,0.0,0.0,0.0,0.0,0.0,0.0,0.0,0.0,0.0,0.0,0.0,0.0,0.0,0.0,0.0,0.0,0.0,0.0,0.0,0.0,0.0,0.0,0.0,0.0,0.0,0.0,0.0,0.0,0.0,0.0,0.0,0.0,0.0,0.0,0.0,0.0,0.0,0.0,0.0,0.0,0.0,-3.3839,-3.3797,-3.4578,-3.6156,-3.6266,-3.6266,-3.6229,-3.6266,-3.6633,-3.736,0.0,0.0,0.0,0.0,0.0,0.0,0.0,0.0,0.0,0.0,0.0,0.0,0.0,0.0,0.0,0.0,0.0,0.0,0.0,0.0,0.0,0.0,0.0,0.0,0.0,0.0,-3.8925,-3.9502,-3.9696,0.0,0.0,0.0,0.0,0.0,0.0,0.0,0.0,0.0,0.0,-4.3139,-4.4218,-4.3184,-4.4333,-4.5146,-4.5101,-4.5807,-4.5839,-4.4315,-4.5456,-4.6358,0.0,0.0,0.0,0.0,0.0,0.0,0.0,0.0,0.0,0.0,0.0,0.0,0.0,0.0,0.0,0.0,0.0,0.0,0.0,0.0,0.0,0.0,0.0,0.0,0.0,0.0,0.0,0.0,-3.0686,0.0,0.0,0.0,0.0,0.0,0.0,0.0,0.0,0.0,0.0,0.0,-3.3073,-3.4431,0.0,0.0,0.0,0.0,0.0,0.0,0.0,0.0,0.0,0.0,0.0,0.0,-3.4544,-3.5514,-3.4963,-3.5422,-3.7037,-3.7074,-3.7074,-3.7074,-3.7074,-3.7477,-3.8248,0.0,0.0,0.0,0.0,0.0,0.0,0.0,0.0,0.0,0.0,0.0,0.0,0.0,0.0,0.0,0.0,0.0,0.0,0.0,0.0,0.0,0.0,0.0,0.0,0.0,-4.1689,0.0,0.0,0.0,0.0,0.0,0.0,0.0,0.0,0.0,0.0,0.0,-4.4645,-4.3642,-4.465,-4.5084,-4.4046,-4.4782,-4.5462,0.0,0.0,0.0,0.0,0.0,0.0,0.0,0.0,0.0,0.0,0.0,0.0,0.0,0.0,-4.8669,-4.7058,-4.6982,-4.7386,-4.7957,0.0,0.0,0.0,0.0,0.0,0.0,0.0,0.0,0.0,0.0,0.0,0.0,0.0,0.0,0.0,0.0,-3.1727,0.0,0.0,0.0,0.0,0.0,0.0,0.0,0.0,-3.376,-3.4541,-3.5128,-3.6193,-3.6589,0.0,-3.6332,-3.5947,0.0,0.0,0.0,0.0,0.0,0.0,0.0,0.0,-3.6693,-3.7701,-3.6793,-3.711,-3.8652,-3.8762,-3.8762,-3.8762,-3.8726,-3.8982,-3.9533,-4.0228,-4.1378,0.0,0.0,0.0,0.0,0.0,0.0,0.0,0.0,0.0,0.0,0.0,0.0,0.0,0.0,0.0,0.0,0.0,0.0,0.0,0.0,0.0,0.0,0.0,-4.2797,0.0,0.0,0.0,0.0,0.0,0.0,0.0,0.0,0.0,-4.558,-4.6031,-4.6121,-4.5407,-4.5988,-4.6138,-4.5077,0.0,0.0,0.0,0.0,0.0,0.0,0.0,-5.0023,-5.1367,-5.1868,-5.2129,-5.2208,-5.1294,-5.038,-4.9809,0.0,0.0,-4.7967,-4.8157,-4.8653,-4.9286,-4.9401,-4.9553,-5.0087,-5.0163,-5.0139,0.0,0.0,0.0,0.0,0.0,0.0,0.0,0.0,-3.0368,-3.1323,0.0,-3.2321,0.0,0.0,0.0,0.0,0.0,0.0,0.0,0.0,-3.5128,-3.6009,-3.7477,-3.7624,-3.8058,-3.8854,-3.8854,-3.8508,-3.7681,-3.5329,0.0,0.0,0.0,0.0,0.0,0.0,-3.8665,-4.0118,-3.9209,-3.9496,-4.1038,-4.1042,-4.1075,-4.1075,-4.1075,-4.1075,-4.1107,-4.1512,-4.1782,-4.1903,-4.2246,0.0,0.0,0.0,0.0,0.0,0.0,0.0,0.0,0.0,0.0,0.0,0.0,0.0,0.0,0.0,0.0,0.0,0.0,0.0,0.0,-4.4364,0.0,0.0,0.0,0.0,0.0,0.0,0.0,0.0,0.0,0.0,-4.6554,-4.7781,-4.83,-4.6663,0.0,0.0,0.0,0.0,-4.7441,-4.7257,-4.8626,-4.9683,-4.9797,-4.991,-5.0589,-5.2303,0.0,0.0,-5.1561,-5.0139,-4.9086,-4.9058,-4.912,-4.9296,-4.9997,-5.0035,-5.0174,-5.0298,-5.0321,-5.0359,-5.0397,-5.0527,-5.0488,-3.131,0.0,0.0,0.0,0.0,-3.126,-3.2195,-3.2779,-3.2831,-3.3817,-3.5414,-3.4927,0.0,0.0,0.0,0.0,0.0,0.0,-3.5825,-3.7135,-3.7485,-3.8212,-3.9203,-3.979,-4.0194,-4.0446,-4.0446,-4.0336,-4.0037,-3.844,-3.7172,-3.6345,0.0,0.0,0.0,0.0,-3.9784,-4.1109,-4.0325,-4.0517,-4.1919,-4.1405,-4.1079,-4.1111,-4.1292,-4.1378,-4.1415,-4.2258,-4.3144,-4.3815,-4.4497,0.0,0.0,0.0,0.0,0.0,0.0,0.0,0.0,0.0,0.0,0.0,0.0,0.0,0.0,0.0,0.0,0.0,0.0,0.0,-4.6976,-4.6663,-4.6282,0.0,0.0,0.0,0.0,0.0,0.0,0.0,0.0,0.0,-4.7472,-4.8319,-4.8609,0.0,0.0,-4.7586,-4.7224,-4.7376,-4.7781,-4.8389,0.0,0.0,0.0,-5.1825,-5.2422,-5.4139,-5.3836,-5.3162,-5.2551,-5.1534,-5.0656,-5.0068,-4.9916,-5.003,-5.0183,-5.0259,-5.0488,-5.1047,-5.1238,-5.1429,-5.1926,-5.2079,-5.2079,-3.4062,-3.2729,-3.207,-3.1716,-3.1726,-3.3114,-3.3897,-3.4266,-3.4596,-3.5523,-3.6796,-3.6273,-3.6296,-3.6714,-3.6445,0.0,0.0,0.0,-3.7352,-3.8748,-3.915,-3.9878,-4.0855,-4.1332,-4.1985,-4.2738,-4.2738,-4.2765,-4.2885,-4.2184,-4.0985,-3.9439,0.0,0.0,-4.1116,-4.0828,-4.1367,-4.2745,-4.1941,-4.1957,-4.3082,-4.2637,-4.2409,-4.2409,-4.2284,-4.2184,-4.2184,-4.2934,-4.3643,-4.4247,-4.5155,-4.5862,0.0,0.0,0.0,0.0,0.0,0.0,0.0,0.0,0.0,0.0,0.0,-4.5859,0.0,0.0,0.0,0.0,-4.7615,-4.7686,-4.7732,-4.7381,0.0,0.0,0.0,0.0,0.0,0.0,0.0,-4.7566,-4.8691,-4.9005,-4.7899,-4.8518,-4.877,-4.7823,-4.7709,-4.7686,-4.7615,0.0,-4.8348,-4.8905,-4.92,-5.0012,-5.1853,-5.1891,-5.226,-5.3951,-5.3887,-5.3454,-5.2881,-5.1888,-5.0932,-5.0436,-5.0283,-5.0283,-5.0283,-5.0283,-5.0588,-5.1429,-5.1888,-5.2346,-5.3148,-5.3569,-5.3836,-3.7341,-3.7192,-3.5126,-3.4202,-3.4228,-3.5044,-3.5439,-3.5588,-3.6067,-3.6833,-3.7704,-3.7026,-3.7202,-3.7968,-3.724,0.0,0.0,-3.824,-3.8934,-4.0142,-4.0407,-4.1193,-4.2426,-4.2463,-4.3435,-4.5201,-4.5207,-4.5431,-4.5726,-4.5741,-4.5066,-4.3655,-4.1198,-4.1184,-4.344,-4.2748,-4.3089,-4.4568,-4.3751,-4.3632,-4.4299,-4.4355,-4.4383,-4.4383,-4.3697,-4.331,-4.3348,-4.3591,-4.3734,-4.3771,-4.4668,-4.5192,-4.523,0.0,0.0,0.0,0.0,0.0,0.0,0.0,0.0,0.0,0.0,0.0,0.0,0.0,0.0,0.0,-4.7724,0.0,-4.7892,-4.722,0.0,0.0,0.0,-4.7006,-4.7715,-4.8514,-4.868,-4.7881,0.0,0.0,0.0,0.0,-4.8846,-4.8014,-4.7785,-4.7686,-4.76,-4.8334,-4.8867,-4.8781,-4.9403,-5.0203,-5.1104,-5.0964,-5.1242,-5.269,-5.2766,-5.269,-5.2575,-5.1429,-5.0397,-5.0321,-5.0283,-5.0283,-5.0283,-5.0283,-5.055,-5.1429,-5.2231,-5.3034,-5.3836,-5.4562,-5.5059,-4.06,-4.0492,-3.9367,-3.7874,-3.6448,-3.8538,-3.9345,-3.9286,-3.9601,-4.0211,-4.0969,-3.9896,-3.9602,-3.9832,-3.91,-3.92,-3.9922,-3.976,-4.0626,-4.2209,-4.2188,-4.2739,-4.3834,-4.3834,-4.4386,-4.535,-4.5363,-4.573,-4.6307,-4.5406,-4.5078,-4.5281,-4.308,-4.2541,-4.3696,-4.3574,-4.3885,-4.4764,-4.4525,-4.441,-4.4383,-4.4421,-4.4383,-4.4383,-4.441,-4.4436,-4.4399,-4.4699,-4.4908,-4.4908,-4.512,-4.5235,-4.5192,-4.597,0.0,0.0,0.0,0.0,0.0,0.0,0.0,0.0,0.0,-4.8327,-4.8466,0.0,-4.848,0.0,-4.8327,-4.877,-4.8793,-4.9129,0.0,0.0,-4.9377,-4.9289,-4.948,-4.9758,-4.982,-4.9591,-4.9983,-5.0145,-4.9725,-4.9901,-4.9939,-4.9686,-4.8579,-4.7777,-4.7793,-4.7907,-4.8082,-4.8174,-4.8365,-4.89,-5.035,-5.1558,-5.227,-5.2728,-5.2308,-5.1888,-5.1888,-5.1009,-5.0283,-5.0283,-5.0283,-5.0283,-5.0283,-5.0283,-5.065,-5.1476,-5.2279,-5.3072,-5.3913,-5.4256,-5.4409,-4.3317,-4.3281,-4.281,-4.1687,-4.0237,-4.0959,-4.1178,-4.1071,-4.1577,-4.1866,-4.1902,-4.0956,-4.0651,-4.0754,-4.0259,-4.0518,-4.1311,-4.126,-4.1903,-4.3087,-4.3274,-4.3625,-4.4042,-4.4221,-4.5002,-4.6252,-4.6252,-4.6694,-4.7523,-4.6895,-4.6405,-4.6152,-4.4881,-4.4319,-4.4311,-4.4021,-4.4417,-4.5494,-4.5162,-4.491,-4.4814,-4.4814,-4.4789,-4.4814,-4.4934,-4.5042,-4.5004,-4.5175,-4.5277,-4.5316,-4.5621,-4.5791,-4.5808,-4.6549,-4.7304,0.0,0.0,0.0,0.0,0.0,0.0,0.0,0.0,0.0,0.0,0.0,-5.0397,0.0,-4.9534,0.0,-4.9633,-5.003,-5.0388,-5.077,-5.0798,-5.0887,-5.1231,-5.1356,-5.1228,-5.0846,-5.1176,-5.1276,-5.0932,-5.1162,-5.1429,-5.1429,-5.0627,-4.9901,-4.9557,-4.9519,-4.948,-4.948,-4.9175,-4.9022,-4.9748,-5.0856,-5.1697,-5.1697,-5.1658,-5.162,-5.1582,-5.0894,-5.0283,-5.0283,-5.0283,-5.0321,-5.0344,-5.0329,-5.0543,-5.1047,-5.1813,-5.2594,-5.3413,-5.3604,-5.3604,-4.5454,-4.5454,-4.5345,-4.491,-4.415,-4.2774,-4.2122,-4.2085,-4.2737,-4.2592,-4.1832,-4.1361,-4.1277,-4.1461,-4.1311,-4.1711,-4.2492,-4.2746,-4.3054,-4.3468,-4.4178,-4.437,-4.4156,-4.452,-4.5622,-4.7208,-4.7311,-4.7719,-4.8542,-4.8542,-4.7743,-4.6282,-4.6321,-4.6069,-4.5337,-4.4706,-4.5017,-4.623,-4.5665,-4.535,-4.5316,-4.5392,-4.543,-4.5468,-4.5545,-4.5621,-4.5621,-4.5621,-4.5621,-4.5621,-4.6309,-4.6653,-4.6691,-4.7312,-4.8395,0.0,-5.0062,0.0,0.0,0.0,0.0,0.0,0.0,0.0,0.0,-5.2131,-5.2193,-5.1505,-5.0856,-5.0474,-5.0474,-5.055,-5.0932,-5.1658,-5.1735,-5.204,-5.269,-5.2805,-5.2575,-5.2002,-5.2461,-5.2575,-5.227,-5.2652,-5.2957,-5.311,-5.3072,-5.2766,-5.2193,-5.1697,-5.1353,-5.1353,-5.0665,-4.9748,-4.9519,-4.9939,-5.0436,-5.0588,-5.1009,-5.1429,-5.1391,-5.0779,-5.0283,-5.0283,-5.0283,-5.0344,-5.039,-5.039,-5.0435,-5.0577,-5.1114,-5.1842,-5.2609,-5.2816,-5.2839,-4.6287,-4.6214,-4.5562,-4.5236,-4.5055,-4.4729,-4.4258,-4.3679,-4.3788,-4.3464,-4.2886,-4.3395,-4.3324,-4.2814,-4.3397,-4.3433,-4.3032,-4.4382,-4.4858,-4.4522,-4.5653,-4.6233,-4.6382,-4.6728,-4.71,-4.7429,-4.7378,-4.715,-4.6708,-4.6708,-4.6239,-4.5299,-4.5984,-4.6578,0.0,0.0,0.0,0.0,-4.5916,-4.59,-4.5354,-4.5927,-4.6271,-4.6309,-4.6959,0.0,-4.7341,-4.7341,-4.7341,-4.7341,-4.7494,0.0,0.0,0.0,0.0,0.0,0.0,0.0,0.0,0.0,0.0,0.0,-5.3276,-5.3009,-5.1637,-5.1037,-5.0703,-5.0588,-5.1047,-5.1353,-5.1353,-5.1964,-5.2384,-5.2537,-5.2575,-5.2652,-5.2766,-5.2805,-5.2957,-5.3569,-5.3148,-5.3301,-5.4371,-5.4218,-5.4104,-5.4715,-5.4906,-5.4868,-5.4639,-5.2919,-5.12,-4.9862,-4.9633,-4.9595,-5.0015,-5.0206,-5.0627,-5.1085,-5.0818,-5.0627,-5.0588,-5.0474,-5.0283,-5.0283,-5.0283,-5.0306,-5.039,-5.039,-5.0435,-5.0581,-5.0717,-5.1041,-5.1765,-5.1957,-5.1957,-4.712,0.0,-4.625,-4.5671,0.0,-4.4874,-4.4258,-4.3534,-4.3932,-4.3681,-4.303,-4.3393,-4.3356,-4.303,-4.3866,-4.4011,-4.3647,-4.4883,-4.5326,-4.5076,-4.584,-4.6264,-4.6429,-4.6977,-4.7435,-4.7786,-4.7996,-4.7858,-4.7453,-4.7416,-4.7049,-4.6263,-4.6681,-4.7049,-4.7326,-4.7731,-4.7251,-4.5846,-4.6266,-4.6266,-4.5927,-4.6271,-4.6691,-4.715,0.0,0.0,0.0,0.0,0.0,0.0,0.0,0.0,0.0,0.0,0.0,-5.0832,-5.1648,-5.2526,-5.3366,-5.3824,-5.4078,-5.4104,-5.4486,-5.4384,-5.348,-5.2665,-5.2346,-5.2766,-5.2843,-5.2996,-5.3454,-5.3874,-5.4065,-5.4104,-5.4065,-5.4104,-5.4065,-5.4065,-5.4256,-5.46,-5.4371,-5.4448,-5.5288,-5.5059,-5.4906,-5.5326,-5.5403,-5.5403,-5.525,-5.3951,-5.2346,-5.1085,-5.013,-5.0015,-5.0741,-5.0932,-5.0856,-5.0971,-5.0971,-5.0779,-5.0359,-5.0283,-5.0283,-5.0283,-5.0283,-5.0344,-5.039,-5.0435,-5.0478,-5.0521,-5.0563,-5.0678,-5.1037,-5.1135,-5.1135,-4.7482,-4.7409,-4.6613,-4.5924,-4.5236,-4.4584,-4.386,-4.3136,0.0,0.0,0.0,-4.3172,-4.3244,-4.3172,-4.4077,-4.444,-4.4367,-4.5309,-4.5635,-4.5526,-4.6026,-4.625,-4.6287,-4.7005,-4.7687,-4.8326,-4.872,-4.8818,-4.8704,-4.8613,-4.8159,-4.7491,-4.7503,-4.7511,-4.7437,-4.8077,-4.7861,-4.6839,-4.6809,-4.6733,-4.6595,-4.671,-4.7152,-4.7961,-4.8075,-4.8174,-4.8258,-4.8411,-4.8487,-4.8525,-4.9289,-4.9748,-4.9786,-5.1047,-5.2193,-5.2996,-5.3722,-5.4486,-5.5326,-5.5403,-5.5479,-5.5594,-5.5747,-5.5785,-5.5632,-5.483,-5.4639,-5.5326,-5.4753,-5.46,-5.5326,-5.5403,-5.5403,-5.5403,-5.5403,-5.5365,-5.5403,-5.5403,-5.5326,-5.5403,-5.5326,-5.5403,-5.5403,-5.5365,-5.5403,-5.5403,-5.5403,-5.5403,-5.5288,-5.4409,-5.3378,-5.2614,-5.1391,-5.0818,-5.1582,-5.1811,-5.1582,-5.1353,-5.1582,-5.1467,-5.0818,-5.0665,-5.0627,-5.0321,-5.0397,-5.0421,-5.0237,-5.0128,-5.0232,-5.0078,-5.0235,-5.0333,-5.0308,-5.0445,-5.0581,-4.6649,-4.6613,-4.5816,-4.5417,-4.5309,-4.5164,-4.4693,-4.3969,-4.4041,-4.3643,-4.2991,-4.4367,-4.4584,-4.4005,-4.549,-4.578,-4.5236,-4.6685,-4.7011,0.0,-4.7453,-4.7976,-4.7939,-4.8342,-4.8791,-4.9196,-4.9288,-4.9097,-4.8689,-4.8381,-4.7784,-4.7183,-4.7515,-4.8197,-4.8889,-4.9107,-4.8724,-4.7918,-4.8115,-4.7737,-4.6798,-4.7475,-4.807,-4.8503,-4.9174,-4.9683,-4.9916,-5.0665,-5.1085,-5.1085,-5.1849,-5.227,-5.227,-5.2499,-5.3034,-5.3836,-5.4027,-5.4486,-5.5326,-5.5403,-5.5708,-5.6396,-5.7122,-5.7237,-5.6473,-5.567,-5.5288,-5.5403,-5.525,-5.525,-5.5403,-5.5403,-5.5403,-5.5403,-5.5403,-5.5403,-5.5403,-5.5403,-5.5403,-5.5403,-5.5403,-5.5403,-5.5403,-5.5403,-5.5403,-5.5403,-5.5403,-5.5403,-5.5174,-5.3989,-5.3034,-5.2728,-5.204,-5.1849,-5.2537,-5.2652,-5.2843,-5.3492,-5.2957,-5.2384,-5.1544,-5.1735,-5.162,-5.055,-5.0703,-5.0612,-4.9586,-4.9302,-4.9116,-4.8677,-4.9005,-4.935,-4.9401,-4.9937,-5.0418,-4.5852,-4.5743,-4.4983,-4.491,-4.5309,-4.5309,-4.5091,-4.4765,-4.4765,-4.4295,-4.3643,-4.4331,-4.4693,-4.4838,-4.5997,-4.6323,-4.5997,-4.7156,-4.7518,-4.7228,-4.7725,-4.7988,-4.7992,-4.8345,-4.8641,-4.8818,-4.899,-4.9225,-4.9459,-4.9295,-4.93,-4.9439,-4.9511,-4.9952,-5.0515,-5.0393,-5.0104,-4.9803,-4.8852,-4.8039,-4.7507,-4.7883,-4.8445,-4.9208,-5.0069,-5.0658,-5.0985,-5.1811,-5.2231,-5.2231,-5.2614,-5.2805,-5.2805,-5.3225,-5.3683,-5.4104,-5.4562,-5.4982,-5.5365,-5.5823,-5.6587,-5.781,-5.7466,-5.7237,-5.7313,-5.6549,-5.5861,-5.5441,-5.5403,-5.5403,-5.5403,-5.5403,-5.5403,-5.5403,-5.5403,-5.5403,-5.5403,-5.5403,-5.5403,-5.5403,-5.5403,-5.5403,-5.5403,-5.5403,-5.5403,-5.5403,-5.5403,-5.5403,-5.5365,-5.4333,-5.3683,-5.4027,-5.3531,-5.3416,-5.4027,-5.4218,-5.418,-5.418,-5.376,-5.3187,-5.2346,-5.204,-5.12,-5.0436,-5.0015,-4.9289,-4.8493,-4.8439,-4.8231,-4.8094,-4.8137,-4.8558,-4.9013,-4.9755,-5.0291,-4.5019,-4.4947,-4.4367,-4.4548,-4.5273,-4.5309,-4.5309,-4.5309,-4.5273,-4.5055,-4.4657,-4.4657,-4.4983,-4.5599,-4.6432,-4.6757,-4.6866,-4.7409,-4.7699,-4.7699,-4.7699,-4.7808,-4.8031,-4.8283,-4.8556,-4.882,-4.9086,-4.9637,-5.0373,-5.0339,-5.0636,-5.123,-5.1083,-5.112,-5.1479,-5.1195,-5.1119,-5.1083,-4.9551,-4.8637,-4.845,-4.845,-4.8909,-4.9805,-5.0761,-5.1385,-5.1764,-5.2627,-5.3072,-5.311,-5.3263,-5.3378,-5.3416,-5.4027,-5.4409,-5.4448,-5.5021,-5.5403,-5.5441,-5.6129,-5.716,-5.8383,-5.7542,-5.7084,-5.7466,-5.7008,-5.6282,-5.5556,-5.5403,-5.5403,-5.5403,-5.5403,-5.5403,-5.5403,-5.5403,-5.5403,-5.5403,-5.5403,-5.5403,-5.5403,-5.5403,-5.5403,-5.5403,-5.5403,-5.5403,-5.5403,-5.5403,-5.5403,-5.5326,-5.4791,-5.4753,-5.4982,-5.4677,-5.4295,-5.5021,-5.525,-5.5021,-5.4448,-5.4409,-5.3989,-5.3187,-5.1964,-5.1047,-5.0779,-4.971,-4.8907,-4.8334,-4.8226,-4.8034,-4.7707,-4.7881,-4.8515,-4.9312,-4.9862,-5.0283,-4.4222,-4.4186,-4.415,-4.4548,-4.5309,-4.5345,-4.5381,-4.5345,-4.5309,-4.5671,-4.6214,-4.6287,-4.6287,-4.6504,-4.7228,-4.7554,-4.7554,-4.7663,-4.7699,-4.7699,-4.7699,-4.8098,-4.8749,-4.8829,-4.9367,-5.0208,-5.0325,-5.0597,-5.1009,-5.0782,-5.0578,-5.0488,-5.0483,-5.068,-5.0882,-5.0882,-5.0842,-5.0842,-5.0625,-5.0186,-4.9524,-4.945,-4.964,-4.9963,-5.1124,-5.1895,-5.2285,-5.3365,-5.3989,-5.4065,-5.4715,-5.5135,-5.5135,-5.5212,-5.5288,-5.525,-5.5365,-5.5403,-5.5479,-5.6129,-5.6702,-5.6816,-5.7428,-5.7428,-5.6855,-5.6664,-5.6243,-5.5594,-5.5403,-5.5403,-5.5403,-5.5403,-5.5403,-5.5403,-5.5403,-5.5403,-5.5403,-5.5403,-5.5403,-5.5403,-5.5403,-5.5403,-5.5403,-5.5403,-5.5403,-5.5403,-5.5403,-5.5403,-5.5403,-5.5288,-5.5174,-5.5212,-5.4677,-5.4256,-5.4448,-5.4944,-5.525,-5.5212,-5.525,-5.4791,-5.4027,-5.3569,-5.3263,-5.1162,-5.0932,-5.0054,-4.9213,-4.893,-4.8356,-4.7494,-4.7952,-4.9197,-4.9939,-5.0206,-5.0283,-4.4077,-4.4114,-4.4621,-4.5273,-4.6033,-4.6504,-4.6721,-4.6721,-4.6721,-4.6939,-4.7192,-4.7192,-4.7192,-4.7228,-4.7554,-4.7699,-4.7699,-4.7699,-4.7699,-4.7772,-4.8206,-4.8605,-4.8931,-4.9401,-4.9894,-5.0277,-5.0362,-5.0785,-5.1389,-5.1867,-5.2119,-5.2071,-5.2029,-5.215,-5.2234,-5.2234,-5.2234,-5.2197,-5.1756,-5.1316,-5.0986,-5.0545,-5.0563,-5.1102,-5.2053,-5.2855,-5.34,-5.4358,-5.4868,-5.4906,-5.5212,-5.5403,-5.5403,-5.5403,-5.5403,-5.5403,-5.5403,-5.5594,-5.6091,-5.6434,-5.7046,-5.7963,-5.7466,-5.716,-5.7313,-5.6473,-5.5747,-5.5479,-5.5403,-5.5403,-5.5403,-5.5403,-5.5403,-5.5403,-5.5403,-5.5403,-5.5403,-5.5403,-5.5403,-5.5403,-5.5403,-5.5403,-5.5403,-5.5403,-5.5403,-5.5403,-5.5403,-5.5403,-5.5403,-5.5403,-5.5403,-5.5365,-5.5059,-5.4906,-5.4906,-5.5135,-5.5365,-5.5403,-5.5403,-5.5097,-5.4295,-5.311,-5.2193,-5.1085,-5.0359,-4.9595,-4.8411,-4.8334,-4.8028,-4.7608,-4.8067,-4.9213,-4.9519,-4.9977,-5.0245,-4.444,-4.4548,-4.5309,-4.6106,-4.6866,-4.7446,-4.7699,-4.7699,-4.7699,-4.7699,-4.7699,-4.7699,-4.7699,-4.7699,-4.7699,-4.7699,-4.7735,-4.7953,-4.8025,-4.8134,-4.8858,-4.9329,-4.9619,-5.0126,-5.0633,-5.1031,-5.123,-5.1718,-5.2506,-5.3047,-5.3433,-5.3433,-5.3256,-5.3146,-5.3225,-5.3225,-5.3225,-5.3151,-5.2601,-5.2348,-5.2361,-5.1882,-5.1713,-5.2068,-5.301,-5.3815,-5.428,-5.5007,-5.5403,-5.5403,-5.5403,-5.5403,-5.5403,-5.5403,-5.5403,-5.5403,-5.5403,-5.5632,-5.6243,-5.6282,-5.6893,-5.8077,-5.7046,-5.674,-5.7351,-5.6358,-5.5594,-5.5747,-5.5517,-5.5403,-5.5403,-5.5594,-5.5708,-5.5708,-5.5556,-5.5479,-5.5708,-5.5594,-5.5403,-5.5403,-5.5403,-5.5403,-5.5403,-5.5403,-5.5403,-5.5403,-5.5403,-5.5403,-5.5403,-5.5403,-5.5403,-5.5403,-5.5403,-5.5365,-5.5403,-5.5403,-5.5403,-5.5403,-5.5403,-5.5097,-5.4295,-5.2957,-5.2079,-5.1811,-4.9901,-4.906,-4.948,-4.9137,-4.8754,-4.8907,-4.9251,-4.9671,-5.0054,-5.0359,-5.0474,-4.5236,-4.5381,-4.6106,-4.6902,-4.7663,-4.7699,-4.7699,-4.7699,-4.7699,-4.7699,-4.7699,-4.7699,-4.7699,-4.7735,-4.7772,-4.7735,-4.7844,-4.8532,-4.8858,-4.8931,-4.9727,-5.0452,-5.114,-5.1249,-5.2045,-5.3241,-5.336,-5.3806,-5.4672,-5.4219,-5.4026,-5.4115,-5.35,-5.314,-5.3219,-5.3225,-5.3225,-5.3188,-5.3115,-5.3244,-5.353,-5.3495,-5.3088,-5.2715,-5.3935,-5.4663,-5.479,-5.5157,-5.5403,-5.5403,-5.5403,-5.5403,-5.5403,-5.5403,-5.5403,-5.5403,-5.5403,-5.5403,-5.5517,-5.5594,-5.5976,-5.6587,-5.6282,-5.6243,-5.7734,-5.6511,-5.5823,-5.6434,-5.5861,-5.5479,-5.5556,-5.5976,-5.6358,-5.6396,-5.5823,-5.5785,-5.6396,-5.5785,-5.5441,-5.5403,-5.5403,-5.5441,-5.5441,-5.5403,-5.5517,-5.5556,-5.5517,-5.5556,-5.5632,-5.5556,-5.5479,-5.5479,-5.5441,-5.5403,-5.5403,-5.5403,-5.5403,-5.5403,-5.5326,-5.5097,-5.4524,-5.3913,-5.3339,-5.2728,-5.1544,-5.0971,-5.1162,-5.1085,-5.0779,-5.0665,-5.0474,-5.0703,-5.0818,-5.1276,-5.12,-4.6395,-4.6866,-4.7156,-4.7446,-4.7699,-4.7699,-4.7699,-4.7699,-4.7699,-4.7699,-4.7699,-4.7699,-4.7699,-4.7735,-4.8279,-4.846,-4.8568,-4.9293,-4.9655,-4.98,-5.1031,-5.1792,-5.2154,-5.3096,-5.3867,-5.4422,-5.4626,-5.4875,-5.5277,-5.5111,-5.5045,-5.4935,-5.4283,-5.3916,-5.3885,-5.3445,-5.3225,-5.3225,-5.3225,-5.3272,-5.34,-5.3565,-5.3684,-5.3711,-5.4371,-5.4933,-5.5206,-5.5313,-5.5403,-5.5403,-5.5403,-5.5403,-5.5403,-5.5403,-5.5403,-5.5403,-5.5403,-5.5403,-5.5441,-5.5899,-5.6549,-5.7275,-5.7199,-5.739,-5.8116,-5.7199,-5.632,-5.6434,-5.6358,-5.6167,-5.6091,-5.6014,-5.6052,-5.6396,-5.5938,-5.5785,-5.6205,-5.5899,-5.5403,-5.5403,-5.5403,-5.5594,-5.6052,-5.6167,-5.6396,-5.6893,-5.6969,-5.6931,-5.6893,-5.6549,-5.6167,-5.6052,-5.5747,-5.5403,-5.5403,-5.5403,-5.5403,-5.5403,-5.5288,-5.4906,-5.4409,-5.4218,-5.376,-5.3034,-5.2308,-5.204,-5.1926,-5.2002,-5.1888,-5.204,-5.1849,-5.1697,-5.162,-5.1849,-5.1353,-4.7192,-4.7663,-4.7699,-4.7699,-4.7699,-4.7699,-4.7699,-4.7699,-4.7699,-4.7844,-4.8061,-4.8098,-4.8242,-4.8641,-4.9582,-5.009,-5.0126,-5.0633,-5.0995,-5.1357,-5.2661,-5.3277,-5.3458,-5.4399,-5.5064,-5.5425,-5.5869,-5.6118,-5.6263,-5.6088,-5.5978,-5.5941,-5.517,-5.4656,-5.4363,-5.3849,-5.3518,-5.3298,-5.3225,-5.323,-5.3359,-5.3602,-5.398,-5.443,-5.4685,-5.499,-5.5377,-5.5403,-5.5403,-5.5403,-5.5403,-5.5403,-5.5403,-5.5403,-5.5517,-5.5747,-5.5785,-5.5938,-5.6243,-5.674,-5.739,-5.8154,-5.8039,-5.823,-5.888,-5.781,-5.7008,-5.6702,-5.6587,-5.6549,-5.6167,-5.5747,-5.5938,-5.6969,-5.6702,-5.6549,-5.7199,-5.6434,-5.5899,-5.5823,-5.5823,-5.6167,-5.6816,-5.6969,-5.7275,-5.7848,-5.7886,-5.7886,-5.7772,-5.7428,-5.6855,-5.6625,-5.6167,-5.5747,-5.5517,-5.5441,-5.5441,-5.5441,-5.5403,-5.4944,-5.46,-5.4448,-5.4142,-5.3378,-5.2957,-5.2728,-5.269,-5.2766,-5.2957,-5.3148,-5.311,-5.2957,-5.2652,-5.2231,-5.1697,-4.7699,-4.7699,-4.7699,-4.7699,-4.7699,-4.7699,-4.7699,-4.7699,-4.7699,-4.8098,-4.8713,-4.8822,-4.922,-5.0198,-5.143,-5.2335,-5.2444,-5.2552,-5.2915,-5.353,-5.4399,-5.4798,-5.4834,-5.5051,-5.5547,-5.6273,-5.724,-5.77,-5.7601,-5.707,-5.6785,-5.6675,-5.5978,-5.5317,-5.4509,-5.4473,-5.4032,-5.3518,-5.3408,-5.3465,-5.368,-5.3717,-5.4128,-5.473,-5.4784,-5.5,-5.5415,-5.5441,-5.5403,-5.5403,-5.5403,-5.5403,-5.5479,-5.5594,-5.5861,-5.6473,-5.6587,-5.7008,-5.7657,-5.781,-5.823,-5.8765,-5.8421,-5.8498,-5.8994,-5.8345,-5.7466,-5.6893,-5.6625,-5.6358,-5.5823,-5.5785,-5.6473,-5.8421,-5.7848,-5.781,-5.8307,-5.7581,-5.6625,-5.6625,-5.6625,-5.7008,-5.7619,-5.7886,-5.8039,-5.8154,-5.823,-5.823,-5.8268,-5.8077,-5.7542,-5.7008,-5.6702,-5.6511,-5.5938,-5.5441,-5.5479,-5.5479,-5.5403,-5.5174,-5.4868,-5.4677,-5.4753,-5.418,-5.4027,-5.3798,-5.3225,-5.3339,-5.3722,-5.3913,-5.3989,-5.3951,-5.3492,-5.2957,-5.227,-4.7699,-4.7699,-4.7699,-4.7699,-4.7699,-4.7699,-4.7699,-4.7699,-4.7699,-4.817,-4.8822,-4.8894,-4.9655,-5.0923,-5.2045,-5.3132,-5.4146,-5.4617,-5.4798,-5.4725,-5.5305,-5.5667,-5.574,-5.6309,-5.6855,-5.7313,-5.7711,-5.795,-5.795,-5.774,-5.7629,-5.7483,-5.6822,-5.6345,-5.5978,-5.55,-5.4803,-5.4216,-5.4583,-5.4412,-5.3539,-5.3912,-5.4535,-5.5149,-5.4764,-5.4981,-5.6103,-5.5708,-5.5403,-5.5403,-5.5403,-5.567,-5.6205,-5.6816,-5.7237,-5.7428,-5.7504,-5.7581,-5.7886,-5.8421,-5.8842,-5.9109,-5.9376,-5.972,-5.9759,-5.8727,-5.7886,-5.7428,-5.7008,-5.6625,-5.7122,-5.7657,-5.7772,-5.7428,-5.716,-5.7504,-5.8192,-5.7848,-5.7542,-5.7466,-5.7504,-5.7886,-5.8498,-5.8727,-5.8956,-5.9415,-5.9491,-5.9491,-5.9491,-5.8994,-5.8727,-5.8345,-5.7925,-5.7351,-5.6893,-5.6434,-5.6243,-5.5976,-5.5708,-5.5403,-5.5135,-5.4982,-5.5059,-5.5174,-5.5021,-5.4753,-5.4142,-5.4027,-5.4409,-5.4677,-5.4791,-5.4562,-5.4142,-5.3416,-5.2575,-4.7699,-4.7699,-4.7699,-4.7916,-4.8134,-4.817,-4.8315,-4.8568,-4.8605,-4.9039,-4.9764,-5.0126,-5.0959,-5.2226,-5.3313,-5.4327,-5.5341,-5.6102,-5.621,-5.5848,-5.6174,-5.6428,-5.655,-5.7133,-5.7802,-5.8213,-5.8427,-5.8621,-5.8877,-5.8621,-5.8474,-5.8327,-5.7666,-5.7079,-5.6822,-5.6308,-5.5647,-5.5023,-5.528,-5.5097,-5.4399,-5.4583,-5.5188,-5.5767,-5.546,-5.5864,-5.6954,-5.6587,-5.6014,-5.5594,-5.567,-5.6091,-5.6625,-5.739,-5.8001,-5.8307,-5.8383,-5.8459,-5.8803,-5.9338,-5.9606,-5.9682,-6.0102,-6.0179,-5.9911,-5.8994,-5.8727,-5.7886,-5.7734,-5.7619,-5.7925,-5.8307,-5.8116,-5.7237,-5.781,-5.8039,-5.8383,-5.8345,-5.8345,-5.8345,-5.8345,-5.8765,-5.9338,-5.9606,-5.9797,-6.0293,-6.037,-6.037,-6.0293,-5.9911,-5.9606,-5.9224,-5.8689,-5.8192,-5.7886,-5.7504,-5.7122,-5.6625,-5.6091,-5.567,-5.5288,-5.525,-5.5326,-5.5785,-5.5823,-5.5785,-5.5288,-5.5021,-5.5135,-5.5365,-5.5441,-5.4906,-5.4295,-5.3441,-5.2662,-4.7735,-4.7772,-4.7772,-4.8279,-4.8931,-4.8967,-4.9329,-4.9908,-4.9981,-5.0416,-5.1285,-5.1864,-5.2842,-5.3965,-5.5088,-5.5776,-5.6174,-5.6717,-5.7043,-5.7007,-5.708,-5.7116,-5.7361,-5.7668,-5.83,-5.9018,-5.9234,-5.9648,-6.0052,-5.9575,-5.9281,-5.9208,-5.8584,-5.7776,-5.7299,-5.6969,-5.6565,-5.5794,-5.5757,-5.5757,-5.55,-5.5611,-5.6002,-5.6703,-5.6624,-5.6965,-5.7777,-5.7734,-5.7046,-5.5899,-5.6434,-5.6893,-5.6969,-5.7581,-5.8536,-5.9147,-5.9185,-5.9529,-6.0141,-6.0179,-6.0293,-6.0255,-6.0293,-6.0064,-5.9568,-5.9682,-5.9338,-5.8307,-5.8574,-5.8689,-5.8192,-5.8307,-5.823,-5.8268,-5.9033,-5.9491,-5.9262,-5.9185,-5.9185,-5.9185,-5.9224,-5.9453,-6.0179,-6.0255,-6.0332,-6.037,-6.037,-6.037,-6.037,-6.0141,-5.9911,-5.9606,-5.93,-5.9109,-5.8803,-5.8268,-5.7963,-5.7657,-5.6969,-5.632,-5.5785,-5.5747,-5.5976,-5.6396,-5.6664,-5.6625,-5.6473,-5.6091,-5.5785,-5.5747,-5.5517,-5.4982,-5.4371,-5.3593,-5.2815,-4.8061,-4.8605,-4.8605,-4.9075,-4.9727,-4.98,-4.9872,-5.009,-5.0162,-5.1031,-5.2045,-5.2408,-5.3639,-5.5305,-5.5776,-5.6283,-5.679,-5.708,-5.7188,-5.7188,-5.7188,-5.7688,-5.8287,-5.8543,-5.9127,-5.992,-6.0041,-6.0199,-6.0382,-6.0236,-6.0052,-6.0089,-5.9722,-5.9245,-5.8694,-5.8437,-5.7813,-5.6785,-5.7079,-5.6712,-5.5912,-5.6279,-5.6858,-5.749,-5.7075,-5.7489,-5.853,-5.8192,-5.7772,-5.739,-5.8001,-5.8459,-5.8421,-5.9147,-5.9682,-5.9911,-6.0026,-6.0102,-6.0293,-6.037,-6.037,-6.037,-6.037,-6.0293,-6.0102,-5.9644,-5.93,-5.8803,-5.9033,-5.9071,-5.8956,-5.9338,-5.9644,-5.9682,-5.972,-5.972,-5.9911,-6.0064,-6.0064,-6.0064,-6.0026,-6.0141,-6.0293,-6.037,-6.037,-6.037,-6.037,-6.037,-6.037,-6.037,-6.0141,-6.0217,-6.0026,-5.995,-5.972,-5.9147,-5.8765,-5.8651,-5.8039,-5.7199,-5.674,-5.6434,-5.6855,-5.7313,-5.7504,-5.7504,-5.7237,-5.6931,-5.6625,-5.6091,-5.5632,-5.5174,-5.4677,-5.4014,-5.3097,-4.8315,-4.8496,-4.9112,-4.9655,-5.0126,-5.0452,-5.0959,-5.1538,-5.1647,-5.2299,-5.3385,-5.3856,-5.4689,-5.5921,-5.6355,-5.6717,-5.7152,-5.7188,-5.7188,-5.7261,-5.7601,-5.8101,-5.8687,-5.9127,-5.9932,-6.0762,-6.0848,-6.1117,-6.13,-6.108,-6.075,-6.0346,-6.0089,-5.9501,-5.8621,-5.8694,-5.829,-5.7519,-5.7776,-5.7537,-5.6983,-5.7316,-5.7965,-5.8535,-5.8261,-5.8635,-5.9435,-5.9185,-5.8689,-5.8268,-5.8612,-5.9109,-5.9185,-5.9911,-6.037,-6.037,-6.037,-6.037,-6.037,-6.037,-6.037,-6.037,-6.037,-6.037,-6.0293,-5.9911,-5.9644,-5.9644,-5.995,-6.0141,-6.0217,-6.0637,-6.0867,-6.0752,-6.0141,-5.9873,-6.037,-6.0332,-6.037,-6.037,-6.037,-6.037,-6.037,-6.037,-6.037,-6.037,-6.037,-6.037,-6.037,-6.037,-6.037,-6.037,-6.037,-6.0255,-6.0179,-5.9759,-5.9529,-5.9415,-5.8956,-5.8116,-5.7734,-5.7351,-5.781,-5.823,-5.8345,-5.8307,-5.8001,-5.7542,-5.674,-5.6243,-5.5785,-5.5059,-5.4409,-5.3798,-5.2957,-4.8641,-4.8206,-4.9727,-5.0307,-5.056,-5.1321,-5.2444,-5.3458,-5.3639,-5.4146,-5.4907,-5.5667,-5.5884,-5.6138,-5.6826,-5.7152,-5.7188,-5.7188,-5.7297,-5.7637,-5.8196,-5.8827,-5.9219,-5.988,-6.0688,-6.1482,-6.1691,-6.2071,-6.2291,-6.1961,-6.1337,-6.0713,-5.9979,-5.9061,-5.8584,-5.829,-5.8107,-5.7923,-5.7923,-5.8068,-5.803,-5.819,-5.8604,-5.9279,-5.9517,-5.9576,-5.9977,-6.0027,-5.9588,-5.8176,-5.8852,-5.93,-5.9415,-6.0064,-6.0332,-6.037,-6.037,-6.037,-6.037,-6.037,-6.037,-6.037,-6.037,-6.037,-6.037,-6.0255,-6.0293,-6.0485,-6.1172,-6.1325,-6.1363,-6.1516,-6.1402,-6.1211,-6.0714,-6.0561,-6.0408,-6.037,-6.037,-6.037,-6.037,-6.037,-6.037,-6.037,-6.037,-6.037,-6.037,-6.037,-6.037,-6.037,-6.037,-6.037,-6.037,-6.037,-6.037,-6.0293,-6.0217,-6.0102,-5.9682,-5.9071,-5.8727,-5.8574,-5.8918,-5.9185,-5.9224,-5.9071,-5.8765,-5.8077,-5.7122,-5.6243,-5.567,-5.4562,-5.3531,-5.3058,-5.2332,-5.009,-5.0597,-5.1574,-5.1973,-5.2226,-5.3494,-5.3965,-5.3784,-5.4399,-5.5051,-5.5667,-5.5957,-5.6355,-5.6935,-5.708,-5.7188,-5.7188,-5.7261,-5.7514,-5.8239,-5.8963,-5.9792,-6.0383,-6.0952,-6.1579,-6.2228,-6.2498,-6.2658,-6.2695,-6.2548,-6.2144,-6.1337,-6.086,-6.0346,-5.9098,-5.8767,-5.8584,-5.8107,-5.7997,-5.8051,-5.8142,-5.8231,-5.8586,-5.9325,-5.9639,-5.9639,-5.9571,-5.9777,-5.9716,-5.9589,-5.9769,-6.0026,-6.0064,-6.0255,-6.037,-6.037,-6.037,-6.037,-6.037,-6.037,-6.037,-6.037,-6.037,-6.037,-6.037,-6.0446,-6.0714,-6.1134,-6.1516,-6.1784,-6.1898,-6.1669,-6.144,-6.1172,-6.1096,-6.0981,-6.0561,-6.037,-6.037,-6.037,-6.037,-6.037,-6.037,-6.037,-6.037,-6.037,-6.037,-6.037,-6.037,-6.037,-6.037,-6.037,-6.037,-6.037,-6.037,-6.037,-6.037,-6.037,-6.0064,-5.9873,-5.9529,-5.9376,-5.9529,-5.9797,-6.0102,-5.9835,-5.9224,-5.8421,-5.739,-5.6473,-5.5556,-5.46,-5.3683,-5.2829,-5.2026,-5.0669,-5.0886,-5.2408,-5.2842,-5.277,-5.4182,-5.487,-5.487,-5.5196,-5.5848,-5.6428,-5.6573,-5.679,-5.7188,-5.7188,-5.7188,-5.7297,-5.7623,-5.8202,-5.8999,-5.9849,-6.0752,-6.1527,-6.188,-6.2288,-6.2705,-6.2755,-6.2805,-6.2805,-6.2732,-6.2365,-6.1594,-6.1263,-6.0309,-5.9281,-5.8877,-5.84,-5.807,-5.7997,-5.8051,-5.8275,-5.8282,-5.8669,-5.9289,-5.9537,-5.9537,-5.9842,-5.9739,-5.9906,-6.0099,-6.0285,-6.037,-6.037,-6.037,-6.037,-6.037,-6.037,-6.037,-6.037,-6.037,-6.037,-6.037,-6.037,-6.037,-6.0523,-6.0676,-6.1096,-6.1669,-6.2319,-6.293,-6.3274,-6.251,-6.2013,-6.1631,-6.1211,-6.0867,-6.0523,-6.037,-6.037,-6.037,-6.037,-6.037,-6.037,-6.037,-6.037,-6.037,-6.037,-6.037,-6.037,-6.037,-6.037,-6.037,-6.037,-6.037,-6.037,-6.037,-6.037,-6.037,-6.0293,-6.0217,-6.0064,-5.995,-5.9911,-6.0141,-6.0332,-5.9873,-5.9262,-5.8459,-5.7619,-5.6664,-5.5708,-5.483,-5.3989,-5.3135,-5.2308,-5.1067,-5.0633,-5.2951,-5.3422,-5.3023,-5.4544,-5.5558,-5.5884,-5.6138,-5.6536,-5.708,-5.7188,-5.7116,-5.7188,-5.7188,-5.7188,-5.7406,-5.8021,-5.8673,-5.9522,-6.0425,-6.1381,-6.2105,-6.2442,-6.2544,-6.2654,-6.2755,-6.2805,-6.2805,-6.2768,-6.2401,-6.163,-6.1006,-6.0236,-5.9318,-5.8621,-5.8217,-5.8033,-5.7997,-5.8097,-5.8369,-5.8455,-5.8791,-5.9251,-5.9502,-5.9571,-5.9874,-5.9906,-5.9937,-6.0285,-6.0342,-6.0408,-6.037,-6.037,-6.037,-6.037,-6.037,-6.037,-6.037,-6.037,-6.037,-6.037,-6.037,-6.0485,-6.0714,-6.1172,-6.1707,-6.2433,-6.3197,-6.4191,-6.4993,-6.3923,-6.3006,-6.2471,-6.1363,-6.079,-6.0446,-6.037,-6.037,-6.037,-6.037,-6.037,-6.037,-6.037,-6.037,-6.0408,-6.0408,-6.037,-6.037,-6.0408,-6.0408,-6.0408,-6.037,-6.037,-6.037,-6.0408,-6.0408,-6.0446,-6.0446,-6.037,-6.037,-6.0293,-6.0179,-6.0255,-6.0217,-5.9797,-5.9185,-5.8345,-5.7504,-5.6702,-5.5708,-5.4639,-5.3913,-5.3339,-5.2766,-5.2226,-5.2263,-5.3965,-5.4218,-5.3929,-5.5848,-5.6428,-5.6174,-5.6645,-5.7043,-5.7152,-5.7188,-5.7188,-5.7188,-5.7188,-5.7188,-5.7406,-5.813,-5.8942,-5.9808,-6.0711,-6.1652,-6.2354,-6.2603,-6.2654,-6.2755,-6.2842,-6.2805,-6.2805,-6.2768,-6.2438,-6.1741,-6.141,-6.0676,-5.9685,-5.9024,-5.863,-5.8272,-5.8125,-5.8142,-5.8186,-5.8275,-5.8461,-5.9027,-5.9397,-5.9571,-5.9537,-5.9706,-5.9842,-5.9906,-6.0188,-6.0342,-6.037,-6.037,-6.037,-6.037,-6.037,-6.037,-6.037,-6.037,-6.037,-6.037,-6.0446,-6.079,-6.1211,-6.1669,-6.2433,-6.3388,-6.3923,-6.4305,-6.4344,-6.4076,-6.3236,-6.2433,-6.2051,-6.1707,-6.0752,-6.037,-6.037,-6.037,-6.037,-6.037,-6.037,-6.037,-6.037,-6.0485,-6.0599,-6.0485,-6.037,-6.0446,-6.0485,-6.0446,-6.037,-6.037,-6.037,-6.0408,-6.0408,-6.0523,-6.0523,-6.0408,-6.037,-6.037,-6.037,-6.037,-6.0179,-5.9759,-5.9033,-5.8307,-5.7504,-5.674,-5.5556,-5.4448,-5.4486,-5.4486,-5.3645,-5.2733,-5.3241,-5.4436,-5.4907,-5.516,-5.65,-5.6754,-5.6174,-5.6826,-5.6935,-5.679,-5.6971,-5.7188,-5.7188,-5.7188,-5.7188,-5.7478,-5.8631,-5.9335,-6.002,-6.1142,-6.2011,-6.2567,-6.2654,-6.2755,-6.2805,-6.2805,-6.2805,-6.2805,-6.2805,-6.2548,-6.2254,-6.1851,-6.119,-6.0382,-5.9575,-5.9237,-5.8858,-5.8578,-5.8319,-5.8282,-5.8326,-5.8586,-5.914,-5.9397,-5.9571,-5.9874,-5.9706,-5.9906,-6.0099,-6.0285,-6.037,-6.037,-6.037,-6.037,-6.037,-6.037,-6.0408,-6.0408,-6.037,-6.037,-6.0446,-6.0752,-6.1134,-6.1745,-6.2433,-6.3427,-6.4382,-6.4802,-6.4802,-6.4879,-6.4458,-6.3579,-6.2624,-6.2319,-6.1669,-6.079,-6.0446,-6.037,-6.0408,-6.0446,-6.0446,-6.037,-6.037,-6.037,-6.0523,-6.079,-6.0752,-6.0561,-6.0752,-6.0981,-6.0561,-6.0523,-6.0637,-6.0637,-6.0637,-6.0867,-6.0943,-6.0714,-6.0561,-6.0485,-6.0561,-6.0446,-6.037,-6.0064,-6.0102,-5.93,-5.8651,-5.7734,-5.6969,-5.6549,-5.6167,-5.5938,-5.5556,-5.483,-5.2878,-5.353,-5.4508,-5.516,-5.5667,-5.6754,-5.6717,-5.6247,-5.6645,-5.6717,-5.6355,-5.6717,-5.7007,-5.7152,-5.7188,-5.7224,-5.742,-5.8972,-5.9729,-6.0231,-6.166,-6.2567,-6.2654,-6.2705,-6.2805,-6.2805,-6.2805,-6.2805,-6.2805,-6.2805,-6.2855,-6.2781,-6.2229,-6.1908,-6.1606,-6.0811,-6.024,-5.9812,-5.9417,-5.9011,-5.8788,-5.8831,-5.9103,-5.9706,-5.9571,-5.9809,-6.0226,-6.0099,-6.0129,-6.0285,-6.037,-6.037,-6.037,-6.037,-6.037,-6.037,-6.037,-6.0446,-6.0637,-6.0676,-6.0867,-6.1172,-6.1554,-6.1898,-6.2471,-6.3541,-6.4649,-6.5261,-6.5375,-6.5299,-6.5184,-6.484,-6.3962,-6.3006,-6.2242,-6.1516,-6.079,-6.037,-6.037,-6.0408,-6.0485,-6.0561,-6.0561,-6.0446,-6.0485,-6.0943,-6.1172,-6.1516,-6.144,-6.1707,-6.1669,-6.0981,-6.0752,-6.0943,-6.0981,-6.1019,-6.1363,-6.1822,-6.1325,-6.0943,-6.0828,-6.0752,-6.0676,-6.0676,-6.1172,-6.1096,-6.0102,-5.9147,-5.8498,-5.8077,-5.7963,-5.7619,-5.7046,-5.6816,-5.6434,-5.2552,-5.277,-5.4255,-5.4544,-5.4399,-5.6247,-5.6681,-5.5993,-5.6066,-5.65,-5.6717,-5.6464,-5.6573,-5.7043,-5.7188,-5.7239,-5.781,-5.8842,-5.983,-6.0309,-6.1725,-6.2544,-6.2755,-6.2805,-6.2855,-6.2904,-6.2855,-6.2805,-6.2904,-6.2904,-6.3062,-6.3234,-6.3214,-6.3096,-6.2683,-6.216,-6.2141,-6.1467,-6.0641,-5.9891,-5.9328,-5.9467,-5.9639,-5.9874,-6.0068,-6.0226,-6.037,-6.0285,-6.0342,-6.0342,-6.037,-6.037,-6.037,-6.037,-6.037,-6.037,-6.0446,-6.0676,-6.1211,-6.144,-6.1707,-6.2166,-6.2624,-6.3121,-6.377,-6.442,-6.5184,-6.5337,-6.5413,-6.5413,-6.5413,-6.5299,-6.442,-6.3618,-6.2892,-6.1936,-6.1019,-6.1096,-6.1019,-6.1019,-6.1287,-6.0981,-6.0828,-6.0676,-6.0637,-6.1134,-6.1631,-6.2013,-6.2204,-6.2357,-6.2395,-6.1707,-6.1402,-6.1554,-6.1822,-6.1784,-6.2013,-6.2624,-6.2089,-6.1516,-6.1478,-6.144,-6.1096,-6.1249,-6.186,-6.186,-6.0714,-5.9911,-5.9376,-5.9262,-5.9338,-5.8689,-5.7848,-5.7772,-5.8039,-5.277,-5.3241,-5.3929,-5.4291,-5.4508,-5.5522,-5.545,-5.4907,-5.5196,-5.5558,-5.5884,-5.6029,-5.6428,-5.708,-5.7188,-5.7289,-5.7642,-5.8674,-5.9589,-6.0298,-6.1459,-6.2315,-6.2682,-6.2805,-6.2904,-6.3158,-6.3252,-6.3408,-6.3354,-6.3158,-6.311,-6.3718,-6.3631,-6.3525,-6.3537,-6.3122,-6.2862,-6.2333,-6.1498,-6.0543,-5.9999,-5.9842,-5.9944,-6.0129,-6.0313,-6.037,-6.037,-6.037,-6.037,-6.037,-6.037,-6.037,-6.037,-6.0446,-6.0561,-6.1096,-6.1096,-6.1249,-6.1554,-6.2051,-6.2548,-6.293,-6.3388,-6.4,-6.4726,-6.5146,-6.5413,-6.5413,-6.5413,-6.5413,-6.5413,-6.5413,-6.4726,-6.4038,-6.3541,-6.293,-6.2128,-6.2013,-6.2013,-6.2051,-6.2128,-6.2128,-6.2166,-6.228,-6.2204,-6.2166,-6.2662,-6.3083,-6.2968,-6.2701,-6.2662,-6.2471,-6.2319,-6.2357,-6.2701,-6.2853,-6.293,-6.3236,-6.2892,-6.2433,-6.2357,-6.2204,-6.1936,-6.2204,-6.293,-6.2471,-6.1363,-6.1211,-6.1211,-6.1019,-6.079,-6.0141,-5.9606,-5.9797,-5.9835,-5.2842,-5.3422,-5.3603,-5.3929,-5.4363,-5.4725,-5.4472,-5.3856,-5.4327,-5.4725,-5.5051,-5.5667,-5.6464,-5.7043,-5.7188,-5.7239,-5.746,-5.8373,-5.9127,-6.0042,-6.0982,-6.1887,-6.2377,-6.2647,-6.3205,-6.3535,-6.3624,-6.3846,-6.393,-6.3718,-6.3587,-6.4215,-6.4094,-6.4136,-6.4181,-6.399,-6.3716,-6.3436,-6.252,-6.1583,-6.0828,-6.0441,-6.0387,-6.039,-6.037,-6.037,-6.037,-6.037,-6.037,-6.037,-6.037,-6.0485,-6.0714,-6.0828,-6.1211,-6.1784,-6.2128,-6.2395,-6.2624,-6.293,-6.3274,-6.3656,-6.4,-6.4726,-6.5184,-6.5413,-6.5413,-6.5413,-6.5413,-6.5413,-6.5413,-6.5413,-6.4917,-6.4458,-6.4076,-6.3694,-6.3427,-6.3312,-6.3427,-6.3694,-6.3885,-6.4114,-6.4153,-6.4229,-6.4,-6.3503,-6.3656,-6.4153,-6.4,-6.3656,-6.3312,-6.3312,-6.293,-6.3006,-6.3388,-6.3694,-6.3847,-6.3885,-6.3541,-6.3312,-6.3236,-6.3159,-6.2968,-6.3388,-6.3885,-6.3618,-6.2853,-6.3006,-6.3121,-6.2395,-6.1822,-6.186,-6.1669,-6.1669,-6.1134,-5.2516,-5.2625,-5.3385,-5.3313,-5.2842,-5.4291,-5.4399,-5.3603,-5.3711,-5.4218,-5.4979,-5.574,-5.6536,-5.7043,-5.7188,-5.7289,-5.7424,-5.8409,-5.8933,-5.9651,-6.0701,-6.1629,-6.2251,-6.2891,-6.349,-6.3668,-6.393,-6.4331,-6.452,-6.4293,-6.4369,-6.4668,-6.452,-6.4879,-6.5047,-6.4889,-6.4464,-6.4215,-6.3604,-6.2727,-6.1831,-6.1306,-6.1106,-6.0495,-6.0408,-6.037,-6.0408,-6.0485,-6.0676,-6.0676,-6.0752,-6.0981,-6.144,-6.1516,-6.1936,-6.2701,-6.3274,-6.3618,-6.4,-6.4076,-6.442,-6.4955,-6.5299,-6.5299,-6.5375,-6.5452,-6.5452,-6.5566,-6.5643,-6.5605,-6.5528,-6.5337,-6.5222,-6.507,-6.4993,-6.4993,-6.4802,-6.4649,-6.4802,-6.5261,-6.5566,-6.5719,-6.5872,-6.591,-6.5605,-6.5108,-6.5146,-6.5605,-6.5643,-6.5299,-6.4611,-6.4191,-6.3541,-6.3579,-6.4038,-6.4267,-6.4458,-6.4535,-6.4382,-6.4229,-6.4114,-6.4,-6.3885,-6.3962,-6.4267,-6.4344,-6.4305,-6.3962,-6.3579,-6.3121,-6.2853,-6.2892,-6.2128,-6.1363,-6.0981,-5.248,-5.2516,-5.2842,-5.277,-5.2552,-5.3132,-5.3241,-5.2987,-5.2951,-5.3711,-5.4979,-5.6138,-5.6899,-5.7152,-5.7188,-5.7338,-5.7571,-5.8134,-5.875,-5.9686,-6.084,-6.1831,-6.2519,-6.3238,-6.4012,-6.4253,-6.4483,-6.4739,-6.5085,-6.4879,-6.4981,-6.5085,-6.4951,-6.5052,-6.5252,-6.5375,-6.4955,-6.4458,-6.4114,-6.335,-6.2089,-6.2089,-6.1745,-6.0485,-6.1019,-6.1096,-6.1134,-6.1134,-6.144,-6.1745,-6.1822,-6.2022,-6.2251,-6.2328,-6.2824,-6.355,-6.4114,-6.4688,-6.5337,-6.5222,-6.5108,-6.5375,-6.5796,-6.5987,-6.5643,-6.5872,-6.6139,-6.6216,-6.6147,-6.6116,-6.6216,-6.6216,-6.6139,-6.5948,-6.5987,-6.6139,-6.6292,-6.6216,-6.6522,-6.7171,-6.7171,-6.7209,-6.7362,-6.7515,-6.7133,-6.6751,-6.6904,-6.698,-6.6942,-6.6789,-6.6025,-6.5566,-6.5031,-6.4535,-6.4955,-6.507,-6.507,-6.507,-6.5108,-6.4917,-6.4726,-6.4917,-6.484,-6.4802,-6.4688,-6.484,-6.4764,-6.4458,-6.4191,-6.4038,-6.3962,-6.3962,-6.2853,-6.1325,-6.0828,-5.248,-5.248,-5.248,-5.248,-5.248,-5.248,-5.248,-5.248,-5.2516,-5.3422,-5.4979,-5.6066,-5.6826,-5.7043,-5.7188,-5.7289,-5.7546,-5.7997,-5.8755,-5.9807,-6.0957,-6.2066,-6.2932,-6.3726,-6.4445,-6.4775,-6.4985,-6.515,-6.5352,-6.5413,-6.5345,-6.5252,-6.5188,-6.5252,-6.5314,-6.5375,-6.5108,-6.4688,-6.442,-6.3923,-6.2701,-6.2734,-6.2521,-6.1233,-6.1406,-6.1628,-6.1697,-6.1797,-6.2086,-6.2459,-6.2688,-6.2879,-6.304,-6.323,-6.3581,-6.4176,-6.4787,-6.529,-6.5879,-6.6369,-6.5987,-6.6025,-6.6598,-6.6483,-6.6254,-6.656,-6.7018,-6.7025,-6.6955,-6.6891,-6.6994,-6.6924,-6.6924,-6.6771,-6.7095,-6.7286,-6.7973,-6.8203,-6.8623,-6.9082,-6.8929,-6.8738,-6.8776,-6.8852,-6.8432,-6.7935,-6.7515,-6.7706,-6.8012,-6.7782,-6.7324,-6.698,-6.6751,-6.633,-6.5987,-6.591,-6.5796,-6.5222,-6.5261,-6.5299,-6.5261,-6.5413,-6.5413,-6.5184,-6.5146,-6.5337,-6.5222,-6.4879,-6.4993,-6.5184,-6.4688,-6.3885,-6.3045,-6.1631,-6.1058,-5.248,-5.248,-5.248,-5.248,-5.248,-5.248,-5.248,-5.2516,-5.2625,-5.3458,-5.4834,-5.5233,-5.6029,-5.6935,-5.7239,-5.7388,-5.7594,-5.8068,-5.8831,-5.9938,-6.1242,-6.2183,-6.3163,-6.4102,-6.481,-6.4917,-6.5085,-6.5314,-6.5413,-6.5413,-6.5413,-6.549,-6.5467,-6.5429,-6.5413,-6.5413,-6.5375,-6.5375,-6.5299,-6.4688,-6.4008,-6.367,-6.3155,-6.2292,-6.2088,-6.2273,-6.2477,-6.2406,-6.2807,-6.352,-6.3166,-6.3503,-6.4305,-6.3572,-6.3986,-6.5188,-6.5597,-6.5741,-6.5696,-6.6987,-6.7286,-6.6751,-6.7133,-6.7209,-6.6942,-6.7324,-6.7795,-6.7763,-6.7593,-6.7559,-6.7521,-6.7631,-6.7812,-6.803,-6.8324,-6.8776,-6.9502,-6.9502,-6.9731,-6.9884,-7.0151,-7.0304,-7.0266,-7.0151,-6.9731,-6.9158,-6.8356,-6.8356,-6.8776,-6.8661,-6.8165,-6.7935,-6.7706,-6.7018,-6.656,-6.6674,-6.6445,-6.5796,-6.5528,-6.5681,-6.5566,-6.549,-6.549,-6.5413,-6.5413,-6.5413,-6.5413,-6.5337,-6.5261,-6.4993,-6.4038,-6.3236,-6.2548,-6.2089,-6.1631,-5.248,-5.248,-5.248,-5.248,-5.248,-5.248,-5.248,-5.2589,-5.3096,-5.3892,-5.487,-5.5377,-5.6174,-5.7035,-5.7498,-5.769,-5.7941,-5.8753,-5.9553,-6.0567,-6.1792,-6.2796,-6.3769,-6.4562,-6.515,-6.522,-6.5383,-6.5413,-6.5413,-6.5413,-6.5413,-6.5452,-6.591,-6.591,-6.5566,-6.5413,-6.5375,-6.5375,-6.5337,-6.5031,-6.4344,-6.4413,-6.4089,-6.2833,-6.3052,-6.328,-6.3416,-6.3247,-6.3807,-6.48,-6.4506,-6.4783,-6.553,-6.5009,-6.4968,-6.5729,-6.6027,-6.6258,-6.723,-6.8541,-6.8508,-6.7713,-6.7515,-6.7668,-6.698,-6.8088,-6.8412,-6.8468,-6.8361,-6.8361,-6.8291,-6.9108,-6.9442,-6.9704,-7.0075,-7.0572,-7.0954,-7.0381,-7.019,-7.0228,-7.0419,-7.0419,-7.0419,-7.0381,-7.0075,-6.996,-6.9273,-6.8967,-6.9234,-6.9158,-6.8814,-6.8547,-6.8241,-6.7515,-6.7095,-6.7362,-6.7018,-6.633,-6.6178,-6.633,-6.6139,-6.5719,-6.5528,-6.5452,-6.5413,-6.5413,-6.5413,-6.5337,-6.4993,-6.4535,-6.4,-6.3656,-6.3388,-6.2968,-6.2548,-5.248,-5.248,-5.248,-5.248,-5.248,-5.248,-5.248,-5.2589,-5.3096,-5.3856,-5.4834,-5.545,-5.621,-5.7048,-5.7546,-5.7886,-5.8208,-5.895,-6.0292,-6.1262,-6.2368,-6.3459,-6.4405,-6.5009,-6.5144,-6.5283,-6.5314,-6.5383,-6.5188,-6.5314,-6.5375,-6.5681,-6.6483,-6.6254,-6.5872,-6.5643,-6.5719,-6.5566,-6.5337,-6.5222,-6.4886,-6.4794,-6.4622,-6.3981,-6.3916,-6.4187,-6.4329,-6.46,-6.5061,-6.6083,-6.6367,-6.6254,-6.6596,-6.6237,-6.5881,-6.6199,-6.6673,-6.7203,-6.8677,-6.8519,-6.8133,-6.7423,-6.8155,-6.8317,-6.7904,-6.876,-6.9188,-6.9271,-6.9274,-6.9465,-6.9693,-7.0586,-7.0819,-7.1044,-7.1259,-7.1718,-7.1718,-7.1145,-7.0533,-7.0572,-7.0457,-7.0419,-7.0419,-7.0342,-7.019,-7.019,-7.0113,-6.9922,-6.9655,-6.9502,-6.9425,-6.9273,-6.9082,-6.8547,-6.8203,-6.8203,-6.7706,-6.6865,-6.6827,-6.6942,-6.633,-6.5834,-6.5643,-6.549,-6.5452,-6.5413,-6.5413,-6.5261,-6.5108,-6.4955,-6.4764,-6.4458,-6.4267,-6.377,-6.3197,-5.248,-5.248,-5.248,-5.248,-5.248,-5.248,-5.248,-5.248,-5.2516,-5.3422,-5.4834,-5.4907,-5.574,-5.6949,-5.7351,-5.7737,-5.8282,-5.887,-6.0377,-6.1785,-6.2788,-6.3947,-6.478,-6.5245,-6.5052,-6.5019,-6.5019,-6.5019,-6.4845,-6.522,-6.5413,-6.5689,-6.6688,-6.6428,-6.6046,-6.5988,-6.6014,-6.5619,-6.5605,-6.549,-6.5268,-6.5155,-6.5014,-6.4757,-6.481,-6.4961,-6.5186,-6.56,-6.6231,-6.6733,-6.6787,-6.6975,-6.6808,-6.6063,-6.6437,-6.7009,-6.768,-6.8785,-6.9474,-6.8906,-6.8564,-6.8598,-6.9621,-6.9713,-6.9493,-6.9473,-7.0005,-7.0119,-7.0119,-7.076,-7.1322,-7.1553,-7.1784,-7.1925,-7.1985,-7.2176,-7.2253,-7.1794,-7.1107,-7.0801,-7.0572,-7.0457,-7.0419,-7.0342,-7.0419,-7.0495,-7.0495,-7.0533,-7.0228,-6.9846,-6.9846,-7.0037,-6.9846,-6.9693,-6.9425,-6.9005,-6.8585,-6.7821,-6.7439,-6.74,-6.6674,-6.5987,-6.5681,-6.5528,-6.5452,-6.5413,-6.5413,-6.5413,-6.5375,-6.5222,-6.5108,-6.4993,-6.4688,-6.4153,-6.3732,-5.248,-5.248,-5.248,-5.248,-5.248,-5.248,-5.248,-5.248,-5.2516,-5.3132,-5.4074,-5.4653,-5.5583,-5.6467,-5.7481,-5.7986,-5.8693,-5.9702,-6.1009,-6.2184,-6.3238,-6.4159,-6.4742,-6.4985,-6.4704,-6.4483,-6.4445,-6.463,-6.4882,-6.5188,-6.5459,-6.5605,-6.6602,-6.6349,-6.6286,-6.637,-6.6053,-6.583,-6.5932,-6.5765,-6.5757,-6.5747,-6.5607,-6.5465,-6.6155,-6.6231,-6.6303,-6.666,-6.7368,-6.816,-6.777,-6.7912,-6.8905,-6.7926,-6.7626,-6.8504,-6.9434,-7.0422,-7.086,-7.0831,-7.0491,-7.0277,-7.1138,-7.038,-7.0035,-7.0143,-7.0935,-7.1023,-7.1064,-7.1598,-7.2162,-7.2503,-7.2655,-7.2685,-7.2559,-7.2215,-7.2176,-7.1489,-7.0877,-7.0916,-7.0686,-7.0801,-7.0724,-7.0572,-7.0648,-7.0763,-7.0877,-7.0954,-7.0724,-7.0304,-7.0113,-7.0304,-7.0151,-6.9884,-6.9846,-6.9502,-6.9234,-6.8852,-6.8356,-6.7782,-6.7056,-6.6407,-6.5834,-6.5719,-6.591,-6.5681,-6.5413,-6.5452,-6.5681,-6.5452,-6.5299,-6.5222,-6.5031,-6.4573,-6.4344,-5.219,-5.248,-5.248,-5.248,-5.248,-5.248,-5.2572,-5.2717,-5.2761,-5.3243,-5.4224,-5.4894,-5.565,-5.651,-5.751,-5.8238,-5.8788,-5.9966,-6.1303,-6.2573,-6.3612,-6.4285,-6.4685,-6.4704,-6.4407,-6.4134,-6.3975,-6.4214,-6.4634,-6.5603,-6.6107,-6.5527,-6.6482,-6.6711,-6.6748,-6.7043,-6.6896,-6.6406,-6.6083,-6.5944,-6.6008,-6.6261,-6.6178,-6.63,-6.7331,-6.7483,-6.7369,-6.7639,-6.8498,-6.9169,-6.8603,-6.8977,-6.9854,-6.924,-6.9155,-7.0035,-7.1029,-7.156,-7.1779,-7.1971,-7.1845,-7.1864,-7.2095,-7.1525,-7.1115,-7.1078,-7.1663,-7.2014,-7.2166,-7.2433,-7.2926,-7.3413,-7.3445,-7.3514,-7.2864,-7.2215,-7.1603,-7.0916,-7.0839,-7.0954,-7.1068,-7.1259,-7.1183,-7.103,-7.1183,-7.1718,-7.1833,-7.168,-7.1259,-7.0533,-7.0342,-7.0342,-7.0151,-6.9884,-6.9922,-6.9884,-6.9425,-6.9082,-6.8776,-6.8165,-6.74,-6.7056,-6.6751,-6.6598,-6.656,-6.6407,-6.6292,-6.6025,-6.6063,-6.5834,-6.5566,-6.5337,-6.5299,-6.5184,-6.507,-5.1737,-5.2463,-5.2526,-5.2572,-5.2526,-5.2572,-5.2806,-5.312,-5.312,-5.3732,-5.4677,-5.5475,-5.6043,-5.6617,-5.7589,-5.8338,-5.9057,-6.0116,-6.141,-6.2871,-6.3612,-6.422,-6.455,-6.4631,-6.4053,-6.3761,-6.3798,-6.4042,-6.4491,-6.5613,-6.6445,-6.5602,-6.7497,-6.7874,-6.6903,-6.7554,-6.7411,-6.6762,-6.6481,-6.637,-6.6117,-6.6357,-6.6809,-6.6783,-6.7469,-6.8112,-6.815,-6.8602,-6.9317,-6.9413,-6.969,-6.9967,-7.0232,-7.0536,-7.084,-7.1523,-7.2465,-7.2737,-7.2811,-7.2886,-7.2491,-7.2391,-7.241,-7.2272,-7.2138,-7.1864,-7.2302,-7.2584,-7.2661,-7.2928,-7.3417,-7.3257,-7.3174,-7.3132,-7.2673,-7.2176,-7.168,-7.1374,-7.1603,-7.168,-7.1833,-7.1985,-7.2138,-7.2024,-7.2138,-7.275,-7.2711,-7.2406,-7.1909,-7.1107,-7.0686,-7.0533,-7.0228,-7.0113,-7.019,-7.0037,-6.9464,-6.912,-6.8935,-6.805,-6.698,-6.7171,-6.7782,-6.7477,-6.7171,-6.7477,-6.7477,-6.6942,-6.6445,-6.6292,-6.5987,-6.5528,-6.5413,-6.5413,-6.5413,-5.1261,-5.2108,-5.2688,-5.2944,-5.2944,-5.2944,-5.3162,-5.3528,-5.3567,-5.3754,-5.424,-5.5389,-5.6084,-5.6276,-5.7909,-5.8713,-5.898,-6.0376,-6.1444,-6.2449,-6.3389,-6.402,-6.4142,-6.4053,-6.358,-6.3308,-6.3428,-6.4091,-6.486,-6.6099,-6.6937,-6.6266,-6.7391,-6.7083,-6.7049,-6.764,-6.7209,-6.6928,-6.7224,-6.6936,-6.6515,-6.7347,-6.8063,-6.7801,-6.8067,-6.8637,-6.8943,-6.955,-6.9815,-6.9928,-7.0823,-7.1163,-7.1277,-7.1468,-7.2192,-7.3219,-7.3636,-7.3836,-7.3954,-7.3913,-7.3673,-7.343,-7.3382,-7.3208,-7.3023,-7.2736,-7.2746,-7.2922,-7.3156,-7.3495,-7.3603,-7.3289,-7.2941,-7.275,-7.2559,-7.2176,-7.1833,-7.21,-7.2367,-7.252,-7.2635,-7.2826,-7.2979,-7.3093,-7.3246,-7.3208,-7.3055,-7.2788,-7.2559,-7.1947,-7.1259,-7.0954,-7.0495,-7.0342,-7.0386,-7.0129,-6.9489,-6.9108,-6.8845,-6.7807,-6.6612,-6.7049,-6.7631,-6.7795,-6.7821,-6.8171,-6.8095,-6.7209,-6.6827,-6.6789,-6.6292,-6.5757,-6.5452,-6.5413,-6.5413,-5.0662,-5.1669,-5.2444,-5.2913,-5.3125,-5.3285,-5.337,-5.345,-5.3606,-5.372,-5.3981,-5.5278,-5.5973,-5.6066,-5.7928,-5.8912,-5.9136,-6.0821,-6.1603,-6.2391,-6.3232,-6.3727,-6.378,-6.3543,-6.3262,-6.3051,-6.3541,-6.4281,-6.5091,-6.6357,-6.6999,-6.6639,-6.6664,-6.7024,-6.7382,-6.7111,-6.7111,-6.7368,-6.7899,-6.7642,-6.7133,-6.8062,-6.8666,-6.8409,-6.8597,-6.9047,-6.9321,-6.9913,-7.0302,-7.0726,-7.1588,-7.2143,-7.2372,-7.2677,-7.325,-7.3938,-7.4434,-7.4895,-7.498,-7.498,-7.4903,-7.4556,-7.448,-7.4372,-7.3763,-7.3535,-7.3497,-7.3684,-7.3646,-7.3941,-7.3941,-7.3743,-7.3246,-7.2979,-7.2864,-7.2597,-7.2711,-7.2979,-7.3246,-7.3437,-7.3628,-7.3858,-7.3934,-7.3819,-7.4049,-7.4507,-7.4163,-7.3667,-7.3361,-7.2826,-7.21,-7.1489,-7.1068,-7.0438,-7.0073,-6.9849,-6.9509,-6.9129,-6.8711,-6.8071,-6.7277,-6.7276,-6.7426,-6.8209,-6.8765,-6.8989,-6.8684,-6.8018,-6.7515,-6.7439,-6.6751,-6.5948,-6.5719,-6.5605,-6.5605,-5.0157,-5.1305,-5.2122,-5.2634,-5.3088,-5.345,-5.341,-5.3203,-5.345,-5.3644,-5.3941,-5.5106,-5.5649,-5.6446,-5.7769,-5.8534,-5.9478,-6.0714,-6.1573,-6.2331,-6.3501,-6.3603,-6.3482,-6.3308,-6.3158,-6.3468,-6.4021,-6.4316,-6.4746,-6.6378,-6.7391,-6.7031,-6.7451,-6.8134,-6.781,-6.765,-6.7647,-6.7684,-6.7904,-6.8035,-6.8254,-6.8617,-6.8791,-6.8937,-6.9057,-6.9102,-6.929,-6.9835,-7.046,-7.1216,-7.2012,-7.2758,-7.3208,-7.359,-7.401,-7.4584,-7.5004,-7.531,-7.5427,-7.5392,-7.5392,-7.5389,-7.5462,-7.508,-7.4358,-7.4091,-7.4091,-7.4167,-7.4129,-7.4052,-7.4125,-7.3972,-7.3476,-7.3284,-7.317,-7.3323,-7.3628,-7.3896,-7.4125,-7.4316,-7.4507,-7.4736,-7.4507,-7.4393,-7.4736,-7.5233,-7.5271,-7.4889,-7.4354,-7.3667,-7.2941,-7.2367,-7.1871,-7.1093,-7.027,-6.9816,-6.9626,-6.8826,-6.8409,-6.8128,-6.7931,-6.7761,-6.8185,-6.9437,-6.989,-6.9769,-6.9752,-6.9349,-6.8814,-6.8126,-6.74,-6.6713,-6.6522,-6.6369,-6.6101,-5.0305,-5.1724,-5.2195,-5.2634,-5.3088,-5.3203,-5.3162,-5.312,-5.3162,-5.3244,-5.3566,-5.4561,-5.5448,-5.608,-5.8163,-5.9064,-5.9086,-6.0454,-6.1092,-6.1651,-6.2769,-6.3028,-6.3123,-6.311,-6.3158,-6.3685,-6.4472,-6.5382,-6.5287,-6.6889,-6.7926,-6.7537,-6.7484,-6.781,-6.7757,-6.7687,-6.7687,-6.7797,-6.8238,-6.8568,-6.9265,-6.9352,-6.8857,-6.8999,-6.9221,-6.8778,-6.8845,-6.983,-7.035,-7.0997,-7.213,-7.3257,-7.3858,-7.424,-7.4584,-7.4927,-7.5386,-7.5424,-7.5501,-7.5501,-7.5501,-7.5424,-7.5271,-7.4775,-7.4201,-7.3858,-7.3972,-7.4205,-7.4201,-7.401,-7.3934,-7.3743,-7.3399,-7.3552,-7.359,-7.424,-7.4736,-7.4889,-7.5004,-7.5042,-7.5042,-7.4813,-7.4354,-7.4393,-7.4698,-7.5119,-7.531,-7.4927,-7.4622,-7.4163,-7.3705,-7.3246,-7.2711,-7.1858,-7.1029,-7.0231,-6.9775,-6.8809,-6.821,-6.8414,-6.8376,-6.8034,-6.8696,-7.0111,-7.0308,-7.0155,-7.0144,-7.0228,-6.9464,-6.8699,-6.8126,-6.763,-6.7362,-6.7133,-6.6865]}]]